<?xml version='1.0' encoding='UTF-8'?><gpx version="1.1" creator="JPX - https://github.com/jenetics/jpx" xmlns="http://www.topografix.com/GPX/1/1"><trk><trkseg><trkpt lat="45.0719133" lon="7.653285"><ele>260.0</ele><time>2026-04-29T07:10:23.124Z</time></trkpt><trkpt lat="45.0719783" lon="7.6531833"><ele>260.0</ele><time>2026-04-29T07:10:25.124Z</time></trkpt><trkpt lat="45.072025" lon="7.6531217"><ele>260.0</ele><time>2026-04-29T07:10:26.125Z</time></trkpt><trkpt lat="45.0721017" lon="7.6531217"><ele>260.0</ele><time>2026-04-29T07:10:27.124Z</time></trkpt><trkpt lat="45.0722217" lon="7.6531533"><ele>260.0</ele><time>2026-04-29T07:10:29.124Z</time></trkpt><trkpt lat="45.0723067" lon="7.6531817"><ele>260.0</ele><time>2026-04-29T07:10:30.125Z</time></trkpt><trkpt lat="45.0723783" lon="7.6532167"><ele>260.5</ele><time>2026-04-29T07:10:31.124Z</time></trkpt><trkpt lat="45.0724617" lon="7.6532467"><ele>261.0</ele><time>2026-04-29T07:10:32.125Z</time></trkpt><trkpt lat="45.07254" lon="7.653285"><ele>261.5</ele><time>2026-04-29T07:10:33.124Z</time></trkpt><trkpt lat="45.0726117" lon="7.6533233"><ele>262.0</ele><time>2026-04-29T07:10:34.124Z</time></trkpt><trkpt lat="45.0726883" lon="7.6533567"><ele>262.5</ele><time>2026-04-29T07:10:35.124Z</time></trkpt><trkpt lat="45.0727517" lon="7.653415"><ele>263.0</ele><time>2026-04-29T07:10:36.124Z</time></trkpt><trkpt lat="45.0728033" lon="7.6534933"><ele>263.0</ele><time>2026-04-29T07:10:37.124Z</time></trkpt><trkpt lat="45.0728333" lon="7.6536017"><ele>263.0</ele><time>2026-04-29T07:10:38.124Z</time></trkpt><trkpt lat="45.072835" lon="7.653755"><ele>263.0</ele><time>2026-04-29T07:10:39.124Z</time></trkpt><trkpt lat="45.07283" lon="7.6538833"><ele>263.0</ele><time>2026-04-29T07:10:40.125Z</time></trkpt><trkpt lat="45.0728167" lon="7.653995"><ele>263.0</ele><time>2026-04-29T07:10:41.125Z</time></trkpt><trkpt lat="45.0727917" lon="7.6541067"><ele>263.0</ele><time>2026-04-29T07:10:42.124Z</time></trkpt><trkpt lat="45.072755" lon="7.6542017"><ele>263.1666666666667</ele><time>2026-04-29T07:10:43.124Z</time></trkpt><trkpt lat="45.0727017" lon="7.65429"><ele>263.33333333333337</ele><time>2026-04-29T07:10:44.124Z</time></trkpt><trkpt lat="45.0726533" lon="7.6543733"><ele>263.5</ele><time>2026-04-29T07:10:45.124Z</time></trkpt><trkpt lat="45.0725817" lon="7.6544283"><ele>263.6666666666667</ele><time>2026-04-29T07:10:46.124Z</time></trkpt><trkpt lat="45.0725267" lon="7.6544767"><ele>263.8333333333333</ele><time>2026-04-29T07:10:47.125Z</time></trkpt><trkpt lat="45.0724533" lon="7.65452"><ele>264.0</ele><time>2026-04-29T07:10:48.125Z</time></trkpt><trkpt lat="45.07239" lon="7.654555"><ele>263.0</ele><time>2026-04-29T07:10:49.124Z</time></trkpt><trkpt lat="45.072275" lon="7.65458"><ele>262.0</ele><time>2026-04-29T07:10:51.124Z</time></trkpt><trkpt lat="45.0721833" lon="7.654595"><ele>261.0</ele><time>2026-04-29T07:10:53.124Z</time></trkpt><trkpt lat="45.072115" lon="7.6545967"><ele>260.0</ele><time>2026-04-29T07:10:55.124Z</time></trkpt><trkpt lat="45.072055" lon="7.6545417"><ele>259.0</ele><time>2026-04-29T07:10:57.124Z</time></trkpt><trkpt lat="45.07202" lon="7.65443"><ele>258.0</ele><time>2026-04-29T07:10:59.124Z</time></trkpt><trkpt lat="45.0719667" lon="7.6543183"><ele>258.0</ele><time>2026-04-29T07:11:01.124Z</time></trkpt><trkpt lat="45.07194" lon="7.6542033"><ele>258.0</ele><time>2026-04-29T07:11:04.125Z</time></trkpt><trkpt lat="45.07196" lon="7.654065"><ele>258.0</ele><time>2026-04-29T07:11:25.124Z</time></trkpt><trkpt lat="45.0718883" lon="7.6539867"><ele>258.0</ele><time>2026-04-29T07:11:27.124Z</time></trkpt><trkpt lat="45.0718033" lon="7.6539717"><ele>258.0</ele><time>2026-04-29T07:11:29.124Z</time></trkpt><trkpt lat="45.0716683" lon="7.6540767"><ele>258.0</ele><time>2026-04-29T07:11:31.124Z</time></trkpt><trkpt lat="45.07161" lon="7.65418"><ele>258.0</ele><time>2026-04-29T07:11:32.125Z</time></trkpt><trkpt lat="45.0715617" lon="7.6542783"><ele>258.0</ele><time>2026-04-29T07:11:33.124Z</time></trkpt><trkpt lat="45.071515" lon="7.6543767"><ele>258.0</ele><time>2026-04-29T07:11:34.124Z</time></trkpt><trkpt lat="45.0714767" lon="7.654465"><ele>258.0</ele><time>2026-04-29T07:11:35.124Z</time></trkpt><trkpt lat="45.0714367" lon="7.6545483"><ele>258.0</ele><time>2026-04-29T07:11:36.124Z</time></trkpt><trkpt lat="45.0713733" lon="7.6546817"><ele>257.6666666666667</ele><time>2026-04-29T07:11:38.124Z</time></trkpt><trkpt lat="45.0713367" lon="7.6547867"><ele>257.3333333333333</ele><time>2026-04-29T07:11:40.124Z</time></trkpt><trkpt lat="45.0713083" lon="7.654895"><ele>257.0</ele><time>2026-04-29T07:11:42.124Z</time></trkpt><trkpt lat="45.071275" lon="7.655005"><ele>256.66666666666663</ele><time>2026-04-29T07:11:45.124Z</time></trkpt><trkpt lat="45.0712483" lon="7.65509"><ele>256.3333333333333</ele><time>2026-04-29T07:12:27.124Z</time></trkpt><trkpt lat="45.0712167" lon="7.6551767"><ele>256.0</ele><time>2026-04-29T07:12:29.124Z</time></trkpt><trkpt lat="45.0711783" lon="7.6552683"><ele>255.66666666666666</ele><time>2026-04-29T07:12:31.124Z</time></trkpt><trkpt lat="45.0711467" lon="7.65535"><ele>255.33333333333331</ele><time>2026-04-29T07:12:33.124Z</time></trkpt><trkpt lat="45.0711067" lon="7.655525"><ele>255.0</ele><time>2026-04-29T07:12:59.125Z</time></trkpt><trkpt lat="45.0711617" lon="7.6556283"><ele>254.66666666666669</ele><time>2026-04-29T07:13:01.124Z</time></trkpt><trkpt lat="45.0712167" lon="7.6556967"><ele>254.33333333333334</ele><time>2026-04-29T07:13:02.124Z</time></trkpt><trkpt lat="45.0712817" lon="7.6557667"><ele>254.0</ele><time>2026-04-29T07:13:03.124Z</time></trkpt><trkpt lat="45.0713533" lon="7.6558317"><ele>254.0</ele><time>2026-04-29T07:13:04.124Z</time></trkpt><trkpt lat="45.0714383" lon="7.65587"><ele>253.99999999999997</ele><time>2026-04-29T07:13:05.125Z</time></trkpt><trkpt lat="45.071535" lon="7.6558967"><ele>253.99999999999997</ele><time>2026-04-29T07:13:06.124Z</time></trkpt><trkpt lat="45.0716367" lon="7.6559133"><ele>254.0</ele><time>2026-04-29T07:13:07.124Z</time></trkpt><trkpt lat="45.0717383" lon="7.6559333"><ele>254.0</ele><time>2026-04-29T07:13:08.124Z</time></trkpt><trkpt lat="45.0718417" lon="7.6559583"><ele>254.2</ele><time>2026-04-29T07:13:09.124Z</time></trkpt><trkpt lat="45.0719483" lon="7.65598"><ele>254.39999999999998</ele><time>2026-04-29T07:13:10.124Z</time></trkpt><trkpt lat="45.0720583" lon="7.656005"><ele>254.6</ele><time>2026-04-29T07:13:11.124Z</time></trkpt><trkpt lat="45.0721717" lon="7.6560367"><ele>254.8</ele><time>2026-04-29T07:13:12.124Z</time></trkpt><trkpt lat="45.0722817" lon="7.65606"><ele>255.0</ele><time>2026-04-29T07:13:13.125Z</time></trkpt><trkpt lat="45.0723817" lon="7.6560767"><ele>255.33333333333334</ele><time>2026-04-29T07:13:14.124Z</time></trkpt><trkpt lat="45.0724683" lon="7.6560883"><ele>255.66666666666669</ele><time>2026-04-29T07:13:15.125Z</time></trkpt><trkpt lat="45.07254" lon="7.6560983"><ele>256.0</ele><time>2026-04-29T07:13:16.124Z</time></trkpt><trkpt lat="45.0726283" lon="7.6561217"><ele>256.33333333333337</ele><time>2026-04-29T07:13:18.124Z</time></trkpt><trkpt lat="45.07268" lon="7.6561783"><ele>256.6666666666667</ele><time>2026-04-29T07:13:22.124Z</time></trkpt><trkpt lat="45.0726883" lon="7.65629"><ele>257.0</ele><time>2026-04-29T07:13:24.125Z</time></trkpt><trkpt lat="45.072635" lon="7.65647"><ele>257.2</ele><time>2026-04-29T07:13:26.124Z</time></trkpt><trkpt lat="45.072595" lon="7.6565767"><ele>257.4</ele><time>2026-04-29T07:13:27.124Z</time></trkpt><trkpt lat="45.0725517" lon="7.65669"><ele>257.6</ele><time>2026-04-29T07:13:28.124Z</time></trkpt><trkpt lat="45.072505" lon="7.656805"><ele>257.8</ele><time>2026-04-29T07:13:29.124Z</time></trkpt><trkpt lat="45.0724517" lon="7.6569267"><ele>258.0</ele><time>2026-04-29T07:13:30.125Z</time></trkpt><trkpt lat="45.072395" lon="7.65706"><ele>257.5</ele><time>2026-04-29T07:13:31.124Z</time></trkpt><trkpt lat="45.07234" lon="7.6572033"><ele>257.0</ele><time>2026-04-29T07:13:32.124Z</time></trkpt><trkpt lat="45.0722883" lon="7.65735"><ele>256.5</ele><time>2026-04-29T07:13:33.124Z</time></trkpt><trkpt lat="45.0722417" lon="7.6575033"><ele>256.0</ele><time>2026-04-29T07:13:34.124Z</time></trkpt><trkpt lat="45.07219" lon="7.6576517"><ele>255.75</ele><time>2026-04-29T07:13:35.124Z</time></trkpt><trkpt lat="45.0721367" lon="7.6578017"><ele>255.5</ele><time>2026-04-29T07:13:36.124Z</time></trkpt><trkpt lat="45.0720817" lon="7.6579517"><ele>255.25</ele><time>2026-04-29T07:13:37.124Z</time></trkpt><trkpt lat="45.072025" lon="7.658105"><ele>255.0</ele><time>2026-04-29T07:13:38.124Z</time></trkpt><trkpt lat="45.0719667" lon="7.6582583"><ele>255.0</ele><time>2026-04-29T07:13:39.125Z</time></trkpt><trkpt lat="45.07191" lon="7.6584117"><ele>255.0</ele><time>2026-04-29T07:13:40.124Z</time></trkpt><trkpt lat="45.0718567" lon="7.6585667"><ele>255.0</ele><time>2026-04-29T07:13:41.124Z</time></trkpt><trkpt lat="45.0718033" lon="7.6587217"><ele>255.0</ele><time>2026-04-29T07:13:42.124Z</time></trkpt><trkpt lat="45.0717517" lon="7.6588633"><ele>255.0</ele><time>2026-04-29T07:13:43.124Z</time></trkpt><trkpt lat="45.0717033" lon="7.6589983"><ele>255.0</ele><time>2026-04-29T07:13:44.124Z</time></trkpt><trkpt lat="45.0716583" lon="7.659135"><ele>255.0</ele><time>2026-04-29T07:13:45.125Z</time></trkpt><trkpt lat="45.0716083" lon="7.6592733"><ele>255.0</ele><time>2026-04-29T07:13:46.124Z</time></trkpt><trkpt lat="45.0715567" lon="7.6594133"><ele>255.0</ele><time>2026-04-29T07:13:47.124Z</time></trkpt><trkpt lat="45.0715017" lon="7.6595533"><ele>255.0</ele><time>2026-04-29T07:13:48.124Z</time></trkpt><trkpt lat="45.0714467" lon="7.6596967"><ele>255.0</ele><time>2026-04-29T07:13:49.124Z</time></trkpt><trkpt lat="45.071395" lon="7.6598467"><ele>255.0</ele><time>2026-04-29T07:13:50.125Z</time></trkpt><trkpt lat="45.0713417" lon="7.6599883"><ele>255.0</ele><time>2026-04-29T07:13:51.124Z</time></trkpt><trkpt lat="45.0712917" lon="7.6601233"><ele>255.0</ele><time>2026-04-29T07:13:52.124Z</time></trkpt><trkpt lat="45.07125" lon="7.66025"><ele>255.0</ele><time>2026-04-29T07:13:53.124Z</time></trkpt><trkpt lat="45.0712233" lon="7.6603583"><ele>255.0</ele><time>2026-04-29T07:13:54.125Z</time></trkpt><trkpt lat="45.0712067" lon="7.6604533"><ele>255.0</ele><time>2026-04-29T07:13:55.124Z</time></trkpt><trkpt lat="45.071185" lon="7.660585"><ele>255.0</ele><time>2026-04-29T07:13:57.124Z</time></trkpt><trkpt lat="45.0711617" lon="7.6606717"><ele>255.0</ele><time>2026-04-29T07:14:01.124Z</time></trkpt><trkpt lat="45.0711367" lon="7.660795"><ele>254.83333333333334</ele><time>2026-04-29T07:14:03.124Z</time></trkpt><trkpt lat="45.071115" lon="7.66088"><ele>254.66666666666669</ele><time>2026-04-29T07:14:04.124Z</time></trkpt><trkpt lat="45.0710817" lon="7.66098"><ele>254.5</ele><time>2026-04-29T07:14:05.124Z</time></trkpt><trkpt lat="45.07104" lon="7.6610867"><ele>254.33333333333334</ele><time>2026-04-29T07:14:06.124Z</time></trkpt><trkpt lat="45.0709967" lon="7.6612033"><ele>254.16666666666669</ele><time>2026-04-29T07:14:07.124Z</time></trkpt><trkpt lat="45.0709483" lon="7.661325"><ele>254.0</ele><time>2026-04-29T07:14:08.124Z</time></trkpt><trkpt lat="45.0708983" lon="7.6614567"><ele>254.0</ele><time>2026-04-29T07:14:09.124Z</time></trkpt><trkpt lat="45.07085" lon="7.6615917"><ele>253.99999999999997</ele><time>2026-04-29T07:14:10.124Z</time></trkpt><trkpt lat="45.0708017" lon="7.661735"><ele>253.99999999999997</ele><time>2026-04-29T07:14:11.125Z</time></trkpt><trkpt lat="45.0707517" lon="7.6618783"><ele>254.0</ele><time>2026-04-29T07:14:12.124Z</time></trkpt><trkpt lat="45.0707017" lon="7.6620267"><ele>254.0</ele><time>2026-04-29T07:14:13.125Z</time></trkpt><trkpt lat="45.0706483" lon="7.6621767"><ele>254.25</ele><time>2026-04-29T07:14:14.124Z</time></trkpt><trkpt lat="45.0705917" lon="7.6623283"><ele>254.5</ele><time>2026-04-29T07:14:15.124Z</time></trkpt><trkpt lat="45.0705367" lon="7.6624783"><ele>254.75</ele><time>2026-04-29T07:14:16.125Z</time></trkpt><trkpt lat="45.070485" lon="7.6626383"><ele>255.0</ele><time>2026-04-29T07:14:17.125Z</time></trkpt><trkpt lat="45.0704317" lon="7.6627917"><ele>255.0</ele><time>2026-04-29T07:14:18.124Z</time></trkpt><trkpt lat="45.07038" lon="7.6629433"><ele>255.0</ele><time>2026-04-29T07:14:19.124Z</time></trkpt><trkpt lat="45.0703333" lon="7.663075"><ele>255.0</ele><time>2026-04-29T07:14:20.124Z</time></trkpt><trkpt lat="45.0702933" lon="7.6631933"><ele>255.0</ele><time>2026-04-29T07:14:21.125Z</time></trkpt><trkpt lat="45.0702567" lon="7.6632967"><ele>255.0</ele><time>2026-04-29T07:14:22.125Z</time></trkpt><trkpt lat="45.0702267" lon="7.663385"><ele>255.0</ele><time>2026-04-29T07:14:23.124Z</time></trkpt><trkpt lat="45.0701967" lon="7.6634983"><ele>255.0</ele><time>2026-04-29T07:14:25.124Z</time></trkpt><trkpt lat="45.0701283" lon="7.6636367"><ele>255.0</ele><time>2026-04-29T07:15:43.124Z</time></trkpt><trkpt lat="45.0700883" lon="7.6637183"><ele>255.0</ele><time>2026-04-29T07:15:44.124Z</time></trkpt><trkpt lat="45.0700467" lon="7.6638117"><ele>255.0</ele><time>2026-04-29T07:15:45.124Z</time></trkpt><trkpt lat="45.0700067" lon="7.6639117"><ele>255.0</ele><time>2026-04-29T07:15:46.125Z</time></trkpt><trkpt lat="45.06997" lon="7.6640133"><ele>254.83333333333334</ele><time>2026-04-29T07:15:47.124Z</time></trkpt><trkpt lat="45.0699333" lon="7.664115"><ele>254.66666666666669</ele><time>2026-04-29T07:15:48.124Z</time></trkpt><trkpt lat="45.0698983" lon="7.6642167"><ele>254.5</ele><time>2026-04-29T07:15:49.125Z</time></trkpt><trkpt lat="45.0698633" lon="7.66432"><ele>254.33333333333334</ele><time>2026-04-29T07:15:50.124Z</time></trkpt><trkpt lat="45.06983" lon="7.664425"><ele>254.16666666666669</ele><time>2026-04-29T07:15:51.124Z</time></trkpt><trkpt lat="45.0697967" lon="7.6645317"><ele>254.0</ele><time>2026-04-29T07:15:52.124Z</time></trkpt><trkpt lat="45.06976" lon="7.6646383"><ele>254.00000000000003</ele><time>2026-04-29T07:15:53.124Z</time></trkpt><trkpt lat="45.0697267" lon="7.664745"><ele>254.0</ele><time>2026-04-29T07:15:54.124Z</time></trkpt><trkpt lat="45.0696933" lon="7.6648467"><ele>254.0</ele><time>2026-04-29T07:15:55.124Z</time></trkpt><trkpt lat="45.0696683" lon="7.6649483"><ele>254.0</ele><time>2026-04-29T07:15:56.124Z</time></trkpt><trkpt lat="45.0696583" lon="7.66511"><ele>254.00000000000003</ele><time>2026-04-29T07:15:58.125Z</time></trkpt><trkpt lat="45.0696967" lon="7.6652183"><ele>254.0</ele><time>2026-04-29T07:16:00.124Z</time></trkpt><trkpt lat="45.0697467" lon="7.6653117"><ele>254.50000000000003</ele><time>2026-04-29T07:16:08.124Z</time></trkpt><trkpt lat="45.069845" lon="7.6654067"><ele>255.0</ele><time>2026-04-29T07:16:10.124Z</time></trkpt><trkpt lat="45.0699083" lon="7.66546"><ele>255.5</ele><time>2026-04-29T07:16:11.124Z</time></trkpt><trkpt lat="45.0699783" lon="7.6655167"><ele>256.0</ele><time>2026-04-29T07:16:12.125Z</time></trkpt><trkpt lat="45.0700533" lon="7.6655767"><ele>256.5</ele><time>2026-04-29T07:16:13.124Z</time></trkpt><trkpt lat="45.0701267" lon="7.6656383"><ele>257.0</ele><time>2026-04-29T07:16:14.124Z</time></trkpt><trkpt lat="45.0702017" lon="7.6657"><ele>255.2</ele><time>2026-04-29T07:16:15.124Z</time></trkpt><trkpt lat="45.0702817" lon="7.6657633"><ele>253.39999999999998</ele><time>2026-04-29T07:16:16.124Z</time></trkpt><trkpt lat="45.07037" lon="7.665825"><ele>251.60000000000002</ele><time>2026-04-29T07:16:17.124Z</time></trkpt><trkpt lat="45.0704633" lon="7.6658833"><ele>249.8</ele><time>2026-04-29T07:16:18.124Z</time></trkpt><trkpt lat="45.07056" lon="7.6659433"><ele>248.0</ele><time>2026-04-29T07:16:19.124Z</time></trkpt><trkpt lat="45.0706583" lon="7.6659983"><ele>248.0</ele><time>2026-04-29T07:16:20.124Z</time></trkpt><trkpt lat="45.0707567" lon="7.66607"><ele>248.0</ele><time>2026-04-29T07:16:21.124Z</time></trkpt><trkpt lat="45.070855" lon="7.6661483"><ele>248.0</ele><time>2026-04-29T07:16:22.124Z</time></trkpt><trkpt lat="45.0709683" lon="7.6662267"><ele>248.0</ele><time>2026-04-29T07:16:23.124Z</time></trkpt><trkpt lat="45.0710633" lon="7.6662917"><ele>248.50000000000003</ele><time>2026-04-29T07:16:24.124Z</time></trkpt><trkpt lat="45.0711583" lon="7.66637"><ele>249.0</ele><time>2026-04-29T07:16:25.124Z</time></trkpt><trkpt lat="45.07123" lon="7.6664217"><ele>249.5</ele><time>2026-04-29T07:16:26.124Z</time></trkpt><trkpt lat="45.0712983" lon="7.666475"><ele>250.0</ele><time>2026-04-29T07:16:27.124Z</time></trkpt><trkpt lat="45.07137" lon="7.666525"><ele>250.50000000000003</ele><time>2026-04-29T07:16:28.124Z</time></trkpt><trkpt lat="45.0714417" lon="7.6665767"><ele>251.0</ele><time>2026-04-29T07:16:29.124Z</time></trkpt><trkpt lat="45.071525" lon="7.666635"><ele>251.0</ele><time>2026-04-29T07:16:30.124Z</time></trkpt><trkpt lat="45.0716133" lon="7.6667017"><ele>251.00000000000003</ele><time>2026-04-29T07:16:31.124Z</time></trkpt><trkpt lat="45.0716917" lon="7.6667667"><ele>251.00000000000003</ele><time>2026-04-29T07:16:32.125Z</time></trkpt><trkpt lat="45.0717783" lon="7.66683"><ele>251.0</ele><time>2026-04-29T07:16:33.125Z</time></trkpt><trkpt lat="45.0718633" lon="7.6668983"><ele>251.0</ele><time>2026-04-29T07:16:34.124Z</time></trkpt><trkpt lat="45.0719417" lon="7.6669567"><ele>251.00000000000003</ele><time>2026-04-29T07:16:35.124Z</time></trkpt><trkpt lat="45.0720167" lon="7.6670133"><ele>251.0</ele><time>2026-04-29T07:16:36.124Z</time></trkpt><trkpt lat="45.07209" lon="7.66706"><ele>251.0</ele><time>2026-04-29T07:16:37.124Z</time></trkpt><trkpt lat="45.07216" lon="7.6671067"><ele>251.0</ele><time>2026-04-29T07:16:38.125Z</time></trkpt><trkpt lat="45.0722283" lon="7.6671433"><ele>251.00000000000003</ele><time>2026-04-29T07:16:39.124Z</time></trkpt><trkpt lat="45.0722967" lon="7.6671717"><ele>251.0</ele><time>2026-04-29T07:16:40.124Z</time></trkpt><trkpt lat="45.072355" lon="7.6672083"><ele>250.50000000000003</ele><time>2026-04-29T07:16:41.124Z</time></trkpt><trkpt lat="45.0724533" lon="7.6672817"><ele>250.0</ele><time>2026-04-29T07:16:43.124Z</time></trkpt><trkpt lat="45.0725483" lon="7.6673667"><ele>249.5</ele><time>2026-04-29T07:16:45.124Z</time></trkpt><trkpt lat="45.0726033" lon="7.6674167"><ele>249.0</ele><time>2026-04-29T07:16:46.124Z</time></trkpt><trkpt lat="45.07266" lon="7.66746"><ele>248.50000000000003</ele><time>2026-04-29T07:16:47.124Z</time></trkpt><trkpt lat="45.07274" lon="7.667525"><ele>248.0</ele><time>2026-04-29T07:16:49.124Z</time></trkpt><trkpt lat="45.0727983" lon="7.66757"><ele>248.00000000000003</ele><time>2026-04-29T07:16:51.124Z</time></trkpt><trkpt lat="45.0728567" lon="7.6676033"><ele>248.0</ele><time>2026-04-29T07:16:53.124Z</time></trkpt><trkpt lat="45.07291" lon="7.6676867"><ele>248.0</ele><time>2026-04-29T07:16:56.124Z</time></trkpt><trkpt lat="45.0728633" lon="7.6677633"><ele>248.0</ele><time>2026-04-29T07:16:59.124Z</time></trkpt><trkpt lat="45.072795" lon="7.667765"><ele>248.00000000000003</ele><time>2026-04-29T07:17:03.124Z</time></trkpt><trkpt lat="45.07271" lon="7.6677067"><ele>248.0</ele><time>2026-04-29T07:17:05.124Z</time></trkpt><trkpt lat="45.0726383" lon="7.6676583"><ele>248.0</ele><time>2026-04-29T07:17:06.124Z</time></trkpt><trkpt lat="45.0725617" lon="7.6676067"><ele>248.0</ele><time>2026-04-29T07:17:07.124Z</time></trkpt><trkpt lat="45.0724817" lon="7.66755"><ele>248.0</ele><time>2026-04-29T07:17:08.124Z</time></trkpt><trkpt lat="45.0723967" lon="7.667485"><ele>248.0</ele><time>2026-04-29T07:17:09.124Z</time></trkpt><trkpt lat="45.07231" lon="7.6674217"><ele>248.0</ele><time>2026-04-29T07:17:10.124Z</time></trkpt><trkpt lat="45.0722233" lon="7.6673617"><ele>248.60000000000002</ele><time>2026-04-29T07:17:11.124Z</time></trkpt><trkpt lat="45.0721317" lon="7.667295"><ele>249.20000000000002</ele><time>2026-04-29T07:17:12.124Z</time></trkpt><trkpt lat="45.0720383" lon="7.6672267"><ele>249.8</ele><time>2026-04-29T07:17:13.124Z</time></trkpt><trkpt lat="45.0719433" lon="7.6671667"><ele>250.4</ele><time>2026-04-29T07:17:14.125Z</time></trkpt><trkpt lat="45.071855" lon="7.6670983"><ele>251.0</ele><time>2026-04-29T07:17:15.124Z</time></trkpt><trkpt lat="45.0717733" lon="7.6670267"><ele>251.00000000000003</ele><time>2026-04-29T07:17:16.124Z</time></trkpt><trkpt lat="45.0716967" lon="7.6669567"><ele>251.0</ele><time>2026-04-29T07:17:17.124Z</time></trkpt><trkpt lat="45.0716333" lon="7.6668967"><ele>251.0</ele><time>2026-04-29T07:17:18.124Z</time></trkpt><trkpt lat="45.0715733" lon="7.6668467"><ele>251.0</ele><time>2026-04-29T07:17:19.124Z</time></trkpt><trkpt lat="45.07148" lon="7.6667983"><ele>251.00000000000003</ele><time>2026-04-29T07:17:21.124Z</time></trkpt><trkpt lat="45.0714017" lon="7.6668033"><ele>251.0</ele><time>2026-04-29T07:17:24.124Z</time></trkpt><trkpt lat="45.0713267" lon="7.666845"><ele>251.00000000000003</ele><time>2026-04-29T07:17:29.124Z</time></trkpt><trkpt lat="45.07124" lon="7.6668667"><ele>251.0</ele><time>2026-04-29T07:17:32.124Z</time></trkpt><trkpt lat="45.0711783" lon="7.6668383"><ele>251.0</ele><time>2026-04-29T07:17:35.124Z</time></trkpt><trkpt lat="45.0711217" lon="7.6669383"><ele>251.0</ele><time>2026-04-29T07:17:38.125Z</time></trkpt><trkpt lat="45.07109" lon="7.66704"><ele>251.00000000000003</ele><time>2026-04-29T07:17:41.124Z</time></trkpt><trkpt lat="45.071155" lon="7.66704"><ele>251.0</ele><time>2026-04-29T07:17:45.124Z</time></trkpt><trkpt lat="45.0711033" lon="7.6669"><ele>251.00000000000003</ele><time>2026-04-29T07:17:48.125Z</time></trkpt><trkpt lat="45.071035" lon="7.66684"><ele>251.0</ele><time>2026-04-29T07:17:49.124Z</time></trkpt><trkpt lat="45.0709617" lon="7.6667767"><ele>251.0</ele><time>2026-04-29T07:17:50.124Z</time></trkpt><trkpt lat="45.0708917" lon="7.6667233"><ele>251.0</ele><time>2026-04-29T07:17:51.124Z</time></trkpt><trkpt lat="45.0708083" lon="7.66667"><ele>251.00000000000003</ele><time>2026-04-29T07:17:52.124Z</time></trkpt><trkpt lat="45.07073" lon="7.6666333"><ele>251.0</ele><time>2026-04-29T07:17:53.124Z</time></trkpt><trkpt lat="45.0706667" lon="7.6666"><ele>252.00000000000003</ele><time>2026-04-29T07:17:54.124Z</time></trkpt><trkpt lat="45.0705783" lon="7.66665"><ele>253.0</ele><time>2026-04-29T07:17:57.124Z</time></trkpt><trkpt lat="45.070525" lon="7.6667717"><ele>254.0</ele><time>2026-04-29T07:17:59.125Z</time></trkpt><trkpt lat="45.0704883" lon="7.6668583"><ele>255.0</ele><time>2026-04-29T07:18:00.124Z</time></trkpt><trkpt lat="45.0704567" lon="7.66694"><ele>256.0</ele><time>2026-04-29T07:18:01.124Z</time></trkpt><trkpt lat="45.070425" lon="7.6670333"><ele>257.0</ele><time>2026-04-29T07:18:02.125Z</time></trkpt><trkpt lat="45.070395" lon="7.6671333"><ele>257.5</ele><time>2026-04-29T07:18:03.124Z</time></trkpt><trkpt lat="45.0703667" lon="7.6672417"><ele>258.0</ele><time>2026-04-29T07:18:04.124Z</time></trkpt><trkpt lat="45.07034" lon="7.667355"><ele>258.5</ele><time>2026-04-29T07:18:05.124Z</time></trkpt><trkpt lat="45.0702983" lon="7.667475"><ele>259.0</ele><time>2026-04-29T07:18:06.124Z</time></trkpt><trkpt lat="45.0702683" lon="7.6675833"><ele>259.5</ele><time>2026-04-29T07:18:07.124Z</time></trkpt><trkpt lat="45.07024" lon="7.667685"><ele>260.0</ele><time>2026-04-29T07:18:08.124Z</time></trkpt><trkpt lat="45.0702167" lon="7.6677717"><ele>259.4</ele><time>2026-04-29T07:18:09.124Z</time></trkpt><trkpt lat="45.0701333" lon="7.66786"><ele>258.8</ele><time>2026-04-29T07:18:12.124Z</time></trkpt><trkpt lat="45.0700233" lon="7.667855"><ele>258.2</ele><time>2026-04-29T07:18:14.124Z</time></trkpt><trkpt lat="45.069935" lon="7.6678483"><ele>257.6</ele><time>2026-04-29T07:18:16.124Z</time></trkpt><trkpt lat="45.0698533" lon="7.66788"><ele>257.0</ele><time>2026-04-29T07:18:19.124Z</time></trkpt><trkpt lat="45.0698767" lon="7.6680067"><ele>257.0</ele><time>2026-04-29T07:18:22.124Z</time></trkpt><trkpt lat="45.0699983" lon="7.6681317"><ele>257.0</ele><time>2026-04-29T07:18:24.124Z</time></trkpt><trkpt lat="45.0700783" lon="7.6682167"><ele>257.0</ele><time>2026-04-29T07:18:25.124Z</time></trkpt><trkpt lat="45.0701717" lon="7.668305"><ele>257.0</ele><time>2026-04-29T07:18:26.124Z</time></trkpt><trkpt lat="45.0702583" lon="7.66838"><ele>257.0</ele><time>2026-04-29T07:18:27.124Z</time></trkpt><trkpt lat="45.0703483" lon="7.6684633"><ele>257.0</ele><time>2026-04-29T07:18:28.124Z</time></trkpt><trkpt lat="45.0704417" lon="7.6685467"><ele>257.0</ele><time>2026-04-29T07:18:29.124Z</time></trkpt><trkpt lat="45.07054" lon="7.6686217"><ele>257.0</ele><time>2026-04-29T07:18:30.124Z</time></trkpt><trkpt lat="45.0706417" lon="7.668695"><ele>257.0</ele><time>2026-04-29T07:18:31.125Z</time></trkpt><trkpt lat="45.0707383" lon="7.6687717"><ele>256.4</ele><time>2026-04-29T07:18:32.124Z</time></trkpt><trkpt lat="45.0708333" lon="7.6688467"><ele>255.79999999999998</ele><time>2026-04-29T07:18:33.124Z</time></trkpt><trkpt lat="45.070935" lon="7.668925"><ele>255.2</ele><time>2026-04-29T07:18:34.124Z</time></trkpt><trkpt lat="45.0710283" lon="7.6689933"><ele>254.6</ele><time>2026-04-29T07:18:35.124Z</time></trkpt><trkpt lat="45.0711167" lon="7.6690567"><ele>254.0</ele><time>2026-04-29T07:18:36.124Z</time></trkpt><trkpt lat="45.0711967" lon="7.66912"><ele>254.00000000000003</ele><time>2026-04-29T07:18:37.124Z</time></trkpt><trkpt lat="45.0712517" lon="7.66917"><ele>254.0</ele><time>2026-04-29T07:18:38.124Z</time></trkpt><trkpt lat="45.0713317" lon="7.6692267"><ele>254.0</ele><time>2026-04-29T07:18:40.124Z</time></trkpt><trkpt lat="45.0713" lon="7.669315"><ele>254.0</ele><time>2026-04-29T07:18:45.124Z</time></trkpt><trkpt lat="45.071275" lon="7.6693983"><ele>254.00000000000003</ele><time>2026-04-29T07:18:47.124Z</time></trkpt><trkpt lat="45.0712467" lon="7.6695783"><ele>254.0</ele><time>2026-04-29T07:18:49.124Z</time></trkpt><trkpt lat="45.0712417" lon="7.66967"><ele>254.00000000000003</ele><time>2026-04-29T07:18:50.124Z</time></trkpt><trkpt lat="45.0712267" lon="7.6697617"><ele>254.0</ele><time>2026-04-29T07:18:51.124Z</time></trkpt><trkpt lat="45.07122" lon="7.6698583"><ele>254.0</ele><time>2026-04-29T07:18:52.124Z</time></trkpt><trkpt lat="45.071175" lon="7.6700017"><ele>254.0</ele><time>2026-04-29T07:18:54.124Z</time></trkpt><trkpt lat="45.0711067" lon="7.6701067"><ele>254.00000000000003</ele><time>2026-04-29T07:18:56.124Z</time></trkpt><trkpt lat="45.0710733" lon="7.6701867"><ele>254.0</ele><time>2026-04-29T07:18:57.124Z</time></trkpt><trkpt lat="45.0710317" lon="7.670285"><ele>253.6</ele><time>2026-04-29T07:18:58.124Z</time></trkpt><trkpt lat="45.0709917" lon="7.6703983"><ele>253.2</ele><time>2026-04-29T07:18:59.124Z</time></trkpt><trkpt lat="45.0709483" lon="7.6705217"><ele>252.79999999999998</ele><time>2026-04-29T07:19:00.124Z</time></trkpt><trkpt lat="45.070895" lon="7.6706767"><ele>252.39999999999998</ele><time>2026-04-29T07:19:01.124Z</time></trkpt><trkpt lat="45.070845" lon="7.6708283"><ele>252.0</ele><time>2026-04-29T07:19:02.124Z</time></trkpt><trkpt lat="45.0707967" lon="7.6709667"><ele>253.0</ele><time>2026-04-29T07:19:03.124Z</time></trkpt><trkpt lat="45.07075" lon="7.6711033"><ele>254.0</ele><time>2026-04-29T07:19:04.124Z</time></trkpt><trkpt lat="45.0706967" lon="7.6712433"><ele>255.0</ele><time>2026-04-29T07:19:05.124Z</time></trkpt><trkpt lat="45.07065" lon="7.6713967"><ele>256.0</ele><time>2026-04-29T07:19:06.124Z</time></trkpt><trkpt lat="45.0706" lon="7.67155"><ele>256.0</ele><time>2026-04-29T07:19:07.124Z</time></trkpt><trkpt lat="45.0705417" lon="7.6716917"><ele>256.0</ele><time>2026-04-29T07:19:08.124Z</time></trkpt><trkpt lat="45.0704967" lon="7.6718133"><ele>256.0</ele><time>2026-04-29T07:19:09.124Z</time></trkpt><trkpt lat="45.0704567" lon="7.6719167"><ele>256.0</ele><time>2026-04-29T07:19:10.125Z</time></trkpt><trkpt lat="45.0704233" lon="7.6720017"><ele>256.0</ele><time>2026-04-29T07:19:11.124Z</time></trkpt><trkpt lat="45.0703917" lon="7.67212"><ele>255.33333333333331</ele><time>2026-04-29T07:19:13.124Z</time></trkpt><trkpt lat="45.0704333" lon="7.67225"><ele>254.66666666666666</ele><time>2026-04-29T07:19:15.124Z</time></trkpt><trkpt lat="45.0704783" lon="7.672315"><ele>254.0</ele><time>2026-04-29T07:19:16.124Z</time></trkpt><trkpt lat="45.0705383" lon="7.6723583"><ele>253.33333333333331</ele><time>2026-04-29T07:19:17.124Z</time></trkpt><trkpt lat="45.07061" lon="7.6724217"><ele>252.66666666666666</ele><time>2026-04-29T07:19:18.124Z</time></trkpt><trkpt lat="45.0706917" lon="7.6725017"><ele>252.0</ele><time>2026-04-29T07:19:19.124Z</time></trkpt><trkpt lat="45.0707817" lon="7.6725567"><ele>250.6</ele><time>2026-04-29T07:19:20.124Z</time></trkpt><trkpt lat="45.0708883" lon="7.6726033"><ele>249.2</ele><time>2026-04-29T07:19:21.124Z</time></trkpt><trkpt lat="45.0709967" lon="7.672655"><ele>247.8</ele><time>2026-04-29T07:19:22.124Z</time></trkpt><trkpt lat="45.0711" lon="7.6727117"><ele>246.4</ele><time>2026-04-29T07:19:23.124Z</time></trkpt><trkpt lat="45.0712017" lon="7.672775"><ele>245.0</ele><time>2026-04-29T07:19:24.124Z</time></trkpt><trkpt lat="45.0713033" lon="7.6728417"><ele>245.0</ele><time>2026-04-29T07:19:25.124Z</time></trkpt><trkpt lat="45.0714" lon="7.6729067"><ele>245.0</ele><time>2026-04-29T07:19:26.125Z</time></trkpt><trkpt lat="45.0714867" lon="7.6729733"><ele>245.0</ele><time>2026-04-29T07:19:27.124Z</time></trkpt><trkpt lat="45.07156" lon="7.6730367"><ele>245.0</ele><time>2026-04-29T07:19:28.125Z</time></trkpt><trkpt lat="45.0716233" lon="7.67309"><ele>245.0</ele><time>2026-04-29T07:19:29.124Z</time></trkpt><trkpt lat="45.0717067" lon="7.6731883"><ele>245.2</ele><time>2026-04-29T07:19:31.124Z</time></trkpt><trkpt lat="45.0716867" lon="7.6733117"><ele>245.4</ele><time>2026-04-29T07:19:33.124Z</time></trkpt><trkpt lat="45.0716567" lon="7.673395"><ele>245.60000000000002</ele><time>2026-04-29T07:19:34.124Z</time></trkpt><trkpt lat="45.071615" lon="7.6735083"><ele>245.8</ele><time>2026-04-29T07:19:35.124Z</time></trkpt><trkpt lat="45.0715617" lon="7.6736383"><ele>246.0</ele><time>2026-04-29T07:19:36.124Z</time></trkpt><trkpt lat="45.0715017" lon="7.673785"><ele>246.0</ele><time>2026-04-29T07:19:37.124Z</time></trkpt><trkpt lat="45.0714333" lon="7.6739483"><ele>246.0</ele><time>2026-04-29T07:19:38.124Z</time></trkpt><trkpt lat="45.07137" lon="7.6741067"><ele>246.0</ele><time>2026-04-29T07:19:39.124Z</time></trkpt><trkpt lat="45.0713083" lon="7.6742417"><ele>246.0</ele><time>2026-04-29T07:19:40.124Z</time></trkpt><trkpt lat="45.071245" lon="7.6743417"><ele>246.0</ele><time>2026-04-29T07:19:41.125Z</time></trkpt><trkpt lat="45.0711567" lon="7.67439"><ele>246.00000000000003</ele><time>2026-04-29T07:19:42.125Z</time></trkpt><trkpt lat="45.071075" lon="7.674415"><ele>246.00000000000003</ele><time>2026-04-29T07:19:43.124Z</time></trkpt><trkpt lat="45.0710067" lon="7.6744533"><ele>246.0</ele><time>2026-04-29T07:19:44.124Z</time></trkpt><trkpt lat="45.0709183" lon="7.6745667"><ele>246.0</ele><time>2026-04-29T07:19:46.124Z</time></trkpt><trkpt lat="45.0709017" lon="7.6747117"><ele>246.33333333333334</ele><time>2026-04-29T07:19:48.124Z</time></trkpt><trkpt lat="45.0709267" lon="7.6748167"><ele>246.66666666666669</ele><time>2026-04-29T07:19:50.124Z</time></trkpt><trkpt lat="45.0709883" lon="7.6748983"><ele>247.0</ele><time>2026-04-29T07:19:53.124Z</time></trkpt><trkpt lat="45.071055" lon="7.6749433"><ele>247.33333333333334</ele><time>2026-04-29T07:19:56.124Z</time></trkpt><trkpt lat="45.0711083" lon="7.67501"><ele>247.66666666666669</ele><time>2026-04-29T07:19:59.124Z</time></trkpt><trkpt lat="45.0711533" lon="7.67511"><ele>248.0</ele><time>2026-04-29T07:20:06.124Z</time></trkpt><trkpt lat="45.0711217" lon="7.6752567"><ele>248.83333333333334</ele><time>2026-04-29T07:20:08.124Z</time></trkpt><trkpt lat="45.0710967" lon="7.675345"><ele>249.66666666666669</ele><time>2026-04-29T07:20:09.124Z</time></trkpt><trkpt lat="45.0710683" lon="7.6754383"><ele>250.5</ele><time>2026-04-29T07:20:10.124Z</time></trkpt><trkpt lat="45.0710383" lon="7.6755283"><ele>251.33333333333331</ele><time>2026-04-29T07:20:11.124Z</time></trkpt><trkpt lat="45.0710067" lon="7.67563"><ele>252.16666666666666</ele><time>2026-04-29T07:20:12.124Z</time></trkpt><trkpt lat="45.070975" lon="7.675735"><ele>253.0</ele><time>2026-04-29T07:20:13.124Z</time></trkpt><trkpt lat="45.07094" lon="7.6758433"><ele>252.99999999999997</ele><time>2026-04-29T07:20:14.124Z</time></trkpt><trkpt lat="45.070905" lon="7.6759533"><ele>253.0</ele><time>2026-04-29T07:20:15.124Z</time></trkpt><trkpt lat="45.07087" lon="7.676065"><ele>253.0</ele><time>2026-04-29T07:20:16.124Z</time></trkpt><trkpt lat="45.0708383" lon="7.67617"><ele>253.0</ele><time>2026-04-29T07:20:17.124Z</time></trkpt><trkpt lat="45.0708033" lon="7.6762767"><ele>252.99999999999997</ele><time>2026-04-29T07:20:18.124Z</time></trkpt><trkpt lat="45.07077" lon="7.676385"><ele>253.0</ele><time>2026-04-29T07:20:19.124Z</time></trkpt><trkpt lat="45.070735" lon="7.67649"><ele>252.83333333333331</ele><time>2026-04-29T07:20:20.124Z</time></trkpt><trkpt lat="45.0707067" lon="7.6766"><ele>252.66666666666666</ele><time>2026-04-29T07:20:21.124Z</time></trkpt><trkpt lat="45.0706717" lon="7.676695"><ele>252.5</ele><time>2026-04-29T07:20:22.125Z</time></trkpt><trkpt lat="45.0706383" lon="7.6767817"><ele>252.33333333333331</ele><time>2026-04-29T07:20:23.124Z</time></trkpt><trkpt lat="45.070605" lon="7.6768683"><ele>252.16666666666666</ele><time>2026-04-29T07:20:24.124Z</time></trkpt><trkpt lat="45.0705383" lon="7.6769383"><ele>252.0</ele><time>2026-04-29T07:20:25.124Z</time></trkpt><trkpt lat="45.070505" lon="7.677025"><ele>251.8</ele><time>2026-04-29T07:20:26.124Z</time></trkpt><trkpt lat="45.0704717" lon="7.67711"><ele>251.6</ele><time>2026-04-29T07:20:27.124Z</time></trkpt><trkpt lat="45.0704167" lon="7.6772633"><ele>251.40000000000003</ele><time>2026-04-29T07:20:29.124Z</time></trkpt><trkpt lat="45.0703833" lon="7.677405"><ele>251.20000000000002</ele><time>2026-04-29T07:20:31.124Z</time></trkpt><trkpt lat="45.0703467" lon="7.6775467"><ele>251.0</ele><time>2026-04-29T07:20:33.124Z</time></trkpt><trkpt lat="45.070325" lon="7.6777067"><ele>251.66666666666669</ele><time>2026-04-29T07:20:35.124Z</time></trkpt><trkpt lat="45.0702967" lon="7.67781"><ele>252.33333333333334</ele><time>2026-04-29T07:20:36.125Z</time></trkpt><trkpt lat="45.0702733" lon="7.6779117"><ele>253.0</ele><time>2026-04-29T07:20:37.124Z</time></trkpt><trkpt lat="45.07027" lon="7.6780217"><ele>253.66666666666669</ele><time>2026-04-29T07:20:38.124Z</time></trkpt><trkpt lat="45.0702767" lon="7.6781333"><ele>254.33333333333334</ele><time>2026-04-29T07:20:39.124Z</time></trkpt><trkpt lat="45.0702917" lon="7.6782517"><ele>255.0</ele><time>2026-04-29T07:20:40.124Z</time></trkpt><trkpt lat="45.0703033" lon="7.678365"><ele>255.0</ele><time>2026-04-29T07:20:41.124Z</time></trkpt><trkpt lat="45.0703183" lon="7.67848"><ele>255.0</ele><time>2026-04-29T07:20:42.124Z</time></trkpt><trkpt lat="45.0703333" lon="7.6785967"><ele>255.0</ele><time>2026-04-29T07:20:43.124Z</time></trkpt><trkpt lat="45.07035" lon="7.6787167"><ele>255.0</ele><time>2026-04-29T07:20:44.124Z</time></trkpt><trkpt lat="45.0703667" lon="7.6788367"><ele>255.0</ele><time>2026-04-29T07:20:45.124Z</time></trkpt><trkpt lat="45.0703817" lon="7.6789633"><ele>255.0</ele><time>2026-04-29T07:20:46.124Z</time></trkpt><trkpt lat="45.0703967" lon="7.6790883"><ele>255.33333333333334</ele><time>2026-04-29T07:20:47.124Z</time></trkpt><trkpt lat="45.0703983" lon="7.679205"><ele>255.66666666666669</ele><time>2026-04-29T07:20:48.124Z</time></trkpt><trkpt lat="45.0704" lon="7.6793233"><ele>256.0</ele><time>2026-04-29T07:20:49.124Z</time></trkpt><trkpt lat="45.070405" lon="7.6794333"><ele>256.33333333333337</ele><time>2026-04-29T07:20:50.124Z</time></trkpt><trkpt lat="45.070425" lon="7.6795233"><ele>256.6666666666667</ele><time>2026-04-29T07:20:51.125Z</time></trkpt><trkpt lat="45.0704317" lon="7.679695"><ele>257.0</ele><time>2026-04-29T07:20:53.124Z</time></trkpt><trkpt lat="45.0704417" lon="7.6798417"><ele>257.0</ele><time>2026-04-29T07:20:55.124Z</time></trkpt><trkpt lat="45.07046" lon="7.6799433"><ele>257.0</ele><time>2026-04-29T07:20:57.124Z</time></trkpt><trkpt lat="45.0704683" lon="7.680035"><ele>257.0</ele><time>2026-04-29T07:21:13.124Z</time></trkpt><trkpt lat="45.070465" lon="7.68016"><ele>257.0</ele><time>2026-04-29T07:21:15.124Z</time></trkpt><trkpt lat="45.0704683" lon="7.6802733"><ele>257.0</ele><time>2026-04-29T07:21:17.124Z</time></trkpt><trkpt lat="45.0704783" lon="7.6803983"><ele>257.0</ele><time>2026-04-29T07:21:19.124Z</time></trkpt><trkpt lat="45.0704917" lon="7.6804983"><ele>257.2</ele><time>2026-04-29T07:21:20.124Z</time></trkpt><trkpt lat="45.070505" lon="7.6806183"><ele>257.4</ele><time>2026-04-29T07:21:21.124Z</time></trkpt><trkpt lat="45.0705183" lon="7.6807467"><ele>257.6</ele><time>2026-04-29T07:21:22.124Z</time></trkpt><trkpt lat="45.070535" lon="7.68088"><ele>257.8</ele><time>2026-04-29T07:21:23.124Z</time></trkpt><trkpt lat="45.0705483" lon="7.68101"><ele>258.0</ele><time>2026-04-29T07:21:24.124Z</time></trkpt><trkpt lat="45.0705633" lon="7.68115"><ele>257.3333333333333</ele><time>2026-04-29T07:21:25.124Z</time></trkpt><trkpt lat="45.0705667" lon="7.6812867"><ele>256.6666666666667</ele><time>2026-04-29T07:21:26.124Z</time></trkpt><trkpt lat="45.07058" lon="7.6814217"><ele>256.0</ele><time>2026-04-29T07:21:27.125Z</time></trkpt><trkpt lat="45.0705883" lon="7.6815517"><ele>255.33333333333334</ele><time>2026-04-29T07:21:28.124Z</time></trkpt><trkpt lat="45.0705983" lon="7.6816683"><ele>254.66666666666669</ele><time>2026-04-29T07:21:29.125Z</time></trkpt><trkpt lat="45.0706033" lon="7.6817833"><ele>254.0</ele><time>2026-04-29T07:21:30.125Z</time></trkpt><trkpt lat="45.07062" lon="7.6819033"><ele>253.66666666666669</ele><time>2026-04-29T07:21:31.125Z</time></trkpt><trkpt lat="45.07064" lon="7.6820217"><ele>253.33333333333334</ele><time>2026-04-29T07:21:32.125Z</time></trkpt><trkpt lat="45.0706617" lon="7.6821533"><ele>253.0</ele><time>2026-04-29T07:21:33.124Z</time></trkpt><trkpt lat="45.070685" lon="7.68228"><ele>252.66666666666669</ele><time>2026-04-29T07:21:34.124Z</time></trkpt><trkpt lat="45.0707" lon="7.6824"><ele>252.33333333333334</ele><time>2026-04-29T07:21:35.124Z</time></trkpt><trkpt lat="45.0707133" lon="7.6825233"><ele>252.0</ele><time>2026-04-29T07:21:36.124Z</time></trkpt><trkpt lat="45.0707333" lon="7.6826517"><ele>252.0</ele><time>2026-04-29T07:21:37.124Z</time></trkpt><trkpt lat="45.070755" lon="7.6827683"><ele>252.0</ele><time>2026-04-29T07:21:38.125Z</time></trkpt><trkpt lat="45.070755" lon="7.6828733"><ele>252.0</ele><time>2026-04-29T07:21:39.124Z</time></trkpt><trkpt lat="45.0707517" lon="7.6829667"><ele>252.0</ele><time>2026-04-29T07:21:40.124Z</time></trkpt><trkpt lat="45.07076" lon="7.6830583"><ele>252.0</ele><time>2026-04-29T07:21:41.124Z</time></trkpt><trkpt lat="45.070775" lon="7.6831533"><ele>252.0</ele><time>2026-04-29T07:21:42.124Z</time></trkpt><trkpt lat="45.0707917" lon="7.68324"><ele>252.0</ele><time>2026-04-29T07:21:43.125Z</time></trkpt><trkpt lat="45.070805" lon="7.6833283"><ele>252.0</ele><time>2026-04-29T07:21:44.124Z</time></trkpt><trkpt lat="45.07081" lon="7.6834183"><ele>252.0</ele><time>2026-04-29T07:21:45.124Z</time></trkpt><trkpt lat="45.0708233" lon="7.6835167"><ele>252.0</ele><time>2026-04-29T07:21:46.125Z</time></trkpt><trkpt lat="45.070835" lon="7.6836167"><ele>252.0</ele><time>2026-04-29T07:21:47.124Z</time></trkpt><trkpt lat="45.0708417" lon="7.6837183"><ele>252.0</ele><time>2026-04-29T07:21:48.125Z</time></trkpt><trkpt lat="45.0708433" lon="7.68382"><ele>252.0</ele><time>2026-04-29T07:21:49.124Z</time></trkpt><trkpt lat="45.0708317" lon="7.6839133"><ele>252.0</ele><time>2026-04-29T07:21:50.124Z</time></trkpt><trkpt lat="45.0708183" lon="7.68408"><ele>252.0</ele><time>2026-04-29T07:21:52.124Z</time></trkpt><trkpt lat="45.0708133" lon="7.68424"><ele>252.0</ele><time>2026-04-29T07:21:54.125Z</time></trkpt><trkpt lat="45.0707783" lon="7.6843983"><ele>252.0</ele><time>2026-04-29T07:21:56.124Z</time></trkpt><trkpt lat="45.0707133" lon="7.6845567"><ele>252.0</ele><time>2026-04-29T07:21:58.124Z</time></trkpt><trkpt lat="45.07068" lon="7.68465"><ele>252.0</ele><time>2026-04-29T07:21:59.124Z</time></trkpt><trkpt lat="45.070645" lon="7.684745"><ele>252.0</ele><time>2026-04-29T07:22:00.124Z</time></trkpt><trkpt lat="45.07061" lon="7.684845"><ele>252.0</ele><time>2026-04-29T07:22:01.124Z</time></trkpt><trkpt lat="45.07057" lon="7.68494"><ele>252.0</ele><time>2026-04-29T07:22:02.124Z</time></trkpt><trkpt lat="45.0705267" lon="7.6850333"><ele>252.0</ele><time>2026-04-29T07:22:03.124Z</time></trkpt><trkpt lat="45.070485" lon="7.6851217"><ele>252.0</ele><time>2026-04-29T07:22:04.124Z</time></trkpt><trkpt lat="45.0704467" lon="7.685215"><ele>252.0</ele><time>2026-04-29T07:22:05.124Z</time></trkpt><trkpt lat="45.0704033" lon="7.6853033"><ele>251.28571428571428</ele><time>2026-04-29T07:22:06.124Z</time></trkpt><trkpt lat="45.070365" lon="7.6853917"><ele>250.57142857142856</ele><time>2026-04-29T07:22:07.124Z</time></trkpt><trkpt lat="45.0703283" lon="7.6854833"><ele>249.85714285714286</ele><time>2026-04-29T07:22:08.124Z</time></trkpt><trkpt lat="45.0702933" lon="7.6855767"><ele>249.14285714285714</ele><time>2026-04-29T07:22:09.125Z</time></trkpt><trkpt lat="45.07026" lon="7.6856667"><ele>248.42857142857142</ele><time>2026-04-29T07:22:10.124Z</time></trkpt><trkpt lat="45.0702233" lon="7.6857533"><ele>247.71428571428572</ele><time>2026-04-29T07:22:11.124Z</time></trkpt><trkpt lat="45.0701867" lon="7.6858383"><ele>247.0</ele><time>2026-04-29T07:22:12.125Z</time></trkpt><trkpt lat="45.0701533" lon="7.6859233"><ele>246.99999999999997</ele><time>2026-04-29T07:22:13.124Z</time></trkpt><trkpt lat="45.0701217" lon="7.6860033"><ele>247.0</ele><time>2026-04-29T07:22:14.124Z</time></trkpt><trkpt lat="45.0701083" lon="7.6861033"><ele>247.0</ele><time>2026-04-29T07:22:15.124Z</time></trkpt><trkpt lat="45.0701083" lon="7.6862917"><ele>247.0</ele><time>2026-04-29T07:22:17.124Z</time></trkpt><trkpt lat="45.0701133" lon="7.68639"><ele>246.99999999999997</ele><time>2026-04-29T07:22:18.124Z</time></trkpt><trkpt lat="45.0701183" lon="7.6864817"><ele>247.0</ele><time>2026-04-29T07:22:19.124Z</time></trkpt><trkpt lat="45.0701567" lon="7.6866117"><ele>247.2</ele><time>2026-04-29T07:22:21.124Z</time></trkpt><trkpt lat="45.070175" lon="7.68672"><ele>247.39999999999998</ele><time>2026-04-29T07:23:05.124Z</time></trkpt><trkpt lat="45.07018" lon="7.686845"><ele>247.60000000000002</ele><time>2026-04-29T07:23:07.124Z</time></trkpt><trkpt lat="45.0701533" lon="7.687025"><ele>247.8</ele><time>2026-04-29T07:23:09.124Z</time></trkpt><trkpt lat="45.0700983" lon="7.68712"><ele>248.0</ele><time>2026-04-29T07:23:10.125Z</time></trkpt><trkpt lat="45.070055" lon="7.6872333"><ele>248.2</ele><time>2026-04-29T07:23:11.124Z</time></trkpt><trkpt lat="45.0699933" lon="7.6873483"><ele>248.4</ele><time>2026-04-29T07:23:12.124Z</time></trkpt><trkpt lat="45.069935" lon="7.6874517"><ele>248.59999999999997</ele><time>2026-04-29T07:23:13.124Z</time></trkpt><trkpt lat="45.0698783" lon="7.6875483"><ele>248.79999999999998</ele><time>2026-04-29T07:23:14.124Z</time></trkpt><trkpt lat="45.06982" lon="7.6876417"><ele>249.0</ele><time>2026-04-29T07:23:15.124Z</time></trkpt><trkpt lat="45.0697667" lon="7.6877267"><ele>248.83333333333334</ele><time>2026-04-29T07:23:16.124Z</time></trkpt><trkpt lat="45.0697167" lon="7.687805"><ele>248.66666666666669</ele><time>2026-04-29T07:23:17.124Z</time></trkpt><trkpt lat="45.06967" lon="7.6878767"><ele>248.5</ele><time>2026-04-29T07:23:18.124Z</time></trkpt><trkpt lat="45.0696017" lon="7.688005"><ele>248.33333333333334</ele><time>2026-04-29T07:23:20.125Z</time></trkpt><trkpt lat="45.0695633" lon="7.68808"><ele>248.16666666666669</ele><time>2026-04-29T07:23:22.124Z</time></trkpt><trkpt lat="45.0695083" lon="7.68815"><ele>248.0</ele><time>2026-04-29T07:23:31.124Z</time></trkpt><trkpt lat="45.0694083" lon="7.688285"><ele>248.0</ele><time>2026-04-29T07:23:33.124Z</time></trkpt><trkpt lat="45.0693467" lon="7.688375"><ele>248.0</ele><time>2026-04-29T07:23:34.125Z</time></trkpt><trkpt lat="45.0692833" lon="7.6884833"><ele>248.0</ele><time>2026-04-29T07:23:35.124Z</time></trkpt><trkpt lat="45.0692217" lon="7.6885883"><ele>248.0</ele><time>2026-04-29T07:23:36.124Z</time></trkpt><trkpt lat="45.06916" lon="7.688695"><ele>248.0</ele><time>2026-04-29T07:23:37.125Z</time></trkpt><trkpt lat="45.0691017" lon="7.6888067"><ele>247.60000000000002</ele><time>2026-04-29T07:23:38.125Z</time></trkpt><trkpt lat="45.0690383" lon="7.6889067"><ele>247.20000000000002</ele><time>2026-04-29T07:23:39.124Z</time></trkpt><trkpt lat="45.068975" lon="7.689005"><ele>246.8</ele><time>2026-04-29T07:23:40.124Z</time></trkpt><trkpt lat="45.068915" lon="7.6891033"><ele>246.4</ele><time>2026-04-29T07:23:41.125Z</time></trkpt><trkpt lat="45.0688667" lon="7.6892117"><ele>246.0</ele><time>2026-04-29T07:23:42.124Z</time></trkpt><trkpt lat="45.0687967" lon="7.689315"><ele>246.0</ele><time>2026-04-29T07:23:43.124Z</time></trkpt><trkpt lat="45.0687233" lon="7.689415"><ele>246.0</ele><time>2026-04-29T07:23:44.124Z</time></trkpt><trkpt lat="45.06866" lon="7.689515"><ele>246.0</ele><time>2026-04-29T07:23:45.124Z</time></trkpt><trkpt lat="45.06859" lon="7.6895967"><ele>246.0</ele><time>2026-04-29T07:23:46.124Z</time></trkpt><trkpt lat="45.068535" lon="7.689675"><ele>246.0</ele><time>2026-04-29T07:23:47.124Z</time></trkpt><trkpt lat="45.068485" lon="7.68975"><ele>246.0</ele><time>2026-04-29T07:23:48.124Z</time></trkpt><trkpt lat="45.0684217" lon="7.6898467"><ele>245.60000000000002</ele><time>2026-04-29T07:23:50.124Z</time></trkpt><trkpt lat="45.0683717" lon="7.689935"><ele>245.20000000000002</ele><time>2026-04-29T07:24:27.125Z</time></trkpt><trkpt lat="45.0683183" lon="7.6900233"><ele>244.79999999999998</ele><time>2026-04-29T07:24:29.124Z</time></trkpt><trkpt lat="45.0682517" lon="7.69013"><ele>244.39999999999998</ele><time>2026-04-29T07:24:31.124Z</time></trkpt><trkpt lat="45.0681867" lon="7.6902067"><ele>244.0</ele><time>2026-04-29T07:24:33.124Z</time></trkpt><trkpt lat="45.068075" lon="7.6901717"><ele>244.0</ele><time>2026-04-29T07:24:35.124Z</time></trkpt><trkpt lat="45.0679883" lon="7.69012"><ele>243.99999999999997</ele><time>2026-04-29T07:24:36.124Z</time></trkpt><trkpt lat="45.0678917" lon="7.6900567"><ele>243.99999999999997</ele><time>2026-04-29T07:24:37.124Z</time></trkpt><trkpt lat="45.0678" lon="7.6900017"><ele>244.0</ele><time>2026-04-29T07:24:38.125Z</time></trkpt><trkpt lat="45.067705" lon="7.68995"><ele>244.0</ele><time>2026-04-29T07:24:39.125Z</time></trkpt><trkpt lat="45.0675983" lon="7.6899"><ele>244.0</ele><time>2026-04-29T07:24:40.124Z</time></trkpt><trkpt lat="45.0675" lon="7.6898467"><ele>243.99999999999997</ele><time>2026-04-29T07:24:41.124Z</time></trkpt><trkpt lat="45.0674033" lon="7.6897983"><ele>243.99999999999997</ele><time>2026-04-29T07:24:42.124Z</time></trkpt><trkpt lat="45.0673067" lon="7.689755"><ele>244.0</ele><time>2026-04-29T07:24:43.125Z</time></trkpt><trkpt lat="45.0672083" lon="7.6896933"><ele>244.0</ele><time>2026-04-29T07:24:44.124Z</time></trkpt><trkpt lat="45.0671133" lon="7.6896433"><ele>244.2</ele><time>2026-04-29T07:24:45.124Z</time></trkpt><trkpt lat="45.0670167" lon="7.6895817"><ele>244.39999999999998</ele><time>2026-04-29T07:24:46.124Z</time></trkpt><trkpt lat="45.0669283" lon="7.68952"><ele>244.6</ele><time>2026-04-29T07:24:47.124Z</time></trkpt><trkpt lat="45.0668433" lon="7.6894583"><ele>244.8</ele><time>2026-04-29T07:24:48.124Z</time></trkpt><trkpt lat="45.06678" lon="7.6893683"><ele>245.0</ele><time>2026-04-29T07:24:49.124Z</time></trkpt><trkpt lat="45.066715" lon="7.68927"><ele>245.00000000000003</ele><time>2026-04-29T07:24:50.124Z</time></trkpt><trkpt lat="45.0666883" lon="7.6891367"><ele>245.0</ele><time>2026-04-29T07:24:51.124Z</time></trkpt><trkpt lat="45.0666467" lon="7.68905"><ele>245.0</ele><time>2026-04-29T07:24:52.124Z</time></trkpt><trkpt lat="45.06662" lon="7.6889417"><ele>245.0</ele><time>2026-04-29T07:24:53.125Z</time></trkpt><trkpt lat="45.066605" lon="7.6888217"><ele>245.00000000000003</ele><time>2026-04-29T07:24:54.124Z</time></trkpt><trkpt lat="45.0665767" lon="7.6887"><ele>245.0</ele><time>2026-04-29T07:24:55.124Z</time></trkpt><trkpt lat="45.066545" lon="7.6885867"><ele>245.16666666666669</ele><time>2026-04-29T07:24:56.124Z</time></trkpt><trkpt lat="45.0664933" lon="7.6884933"><ele>245.33333333333334</ele><time>2026-04-29T07:24:57.124Z</time></trkpt><trkpt lat="45.066425" lon="7.6884217"><ele>245.5</ele><time>2026-04-29T07:24:58.124Z</time></trkpt><trkpt lat="45.0663467" lon="7.6883833"><ele>245.66666666666669</ele><time>2026-04-29T07:24:59.124Z</time></trkpt><trkpt lat="45.0662633" lon="7.6883867"><ele>245.83333333333334</ele><time>2026-04-29T07:25:00.124Z</time></trkpt><trkpt lat="45.0661783" lon="7.6884183"><ele>246.0</ele><time>2026-04-29T07:25:01.124Z</time></trkpt><trkpt lat="45.0660967" lon="7.6884683"><ele>246.0</ele><time>2026-04-29T07:25:02.124Z</time></trkpt><trkpt lat="45.0660267" lon="7.6885267"><ele>246.0</ele><time>2026-04-29T07:25:03.124Z</time></trkpt><trkpt lat="45.0659717" lon="7.6885917"><ele>246.0</ele><time>2026-04-29T07:25:04.124Z</time></trkpt><trkpt lat="45.0659367" lon="7.68868"><ele>246.0</ele><time>2026-04-29T07:25:05.124Z</time></trkpt><trkpt lat="45.0659167" lon="7.6887833"><ele>246.0</ele><time>2026-04-29T07:25:06.124Z</time></trkpt><trkpt lat="45.0659083" lon="7.6888917"><ele>246.0</ele><time>2026-04-29T07:25:07.124Z</time></trkpt><trkpt lat="45.0659283" lon="7.6889983"><ele>245.83333333333334</ele><time>2026-04-29T07:25:08.124Z</time></trkpt><trkpt lat="45.06596" lon="7.6891083"><ele>245.66666666666669</ele><time>2026-04-29T07:25:09.124Z</time></trkpt><trkpt lat="45.06599" lon="7.6892183"><ele>245.5</ele><time>2026-04-29T07:25:10.125Z</time></trkpt><trkpt lat="45.06602" lon="7.6893233"><ele>245.33333333333334</ele><time>2026-04-29T07:25:11.124Z</time></trkpt><trkpt lat="45.0660367" lon="7.689415"><ele>245.16666666666669</ele><time>2026-04-29T07:25:12.124Z</time></trkpt><trkpt lat="45.0660433" lon="7.6895133"><ele>245.0</ele><time>2026-04-29T07:25:13.125Z</time></trkpt><trkpt lat="45.0660367" lon="7.6896167"><ele>245.00000000000003</ele><time>2026-04-29T07:25:14.124Z</time></trkpt><trkpt lat="45.0660183" lon="7.689715"><ele>245.0</ele><time>2026-04-29T07:25:15.124Z</time></trkpt><trkpt lat="45.0659883" lon="7.6898183"><ele>245.0</ele><time>2026-04-29T07:25:16.124Z</time></trkpt><trkpt lat="45.0659567" lon="7.689925"><ele>245.0</ele><time>2026-04-29T07:25:17.124Z</time></trkpt><trkpt lat="45.065915" lon="7.6900433"><ele>245.00000000000003</ele><time>2026-04-29T07:25:18.124Z</time></trkpt><trkpt lat="45.0658767" lon="7.6901533"><ele>245.0</ele><time>2026-04-29T07:25:19.125Z</time></trkpt><trkpt lat="45.0658383" lon="7.6902517"><ele>244.4</ele><time>2026-04-29T07:25:20.124Z</time></trkpt><trkpt lat="45.065775" lon="7.690375"><ele>243.8</ele><time>2026-04-29T07:25:22.124Z</time></trkpt><trkpt lat="45.0657367" lon="7.6904567"><ele>243.2</ele><time>2026-04-29T07:25:24.124Z</time></trkpt><trkpt lat="45.065695" lon="7.6906333"><ele>242.6</ele><time>2026-04-29T07:25:26.124Z</time></trkpt><trkpt lat="45.065665" lon="7.6907483"><ele>242.0</ele><time>2026-04-29T07:25:27.124Z</time></trkpt><trkpt lat="45.0656317" lon="7.6908733"><ele>242.0</ele><time>2026-04-29T07:25:28.124Z</time></trkpt><trkpt lat="45.0655983" lon="7.6909967"><ele>242.0</ele><time>2026-04-29T07:25:29.124Z</time></trkpt><trkpt lat="45.0655617" lon="7.6911267"><ele>242.0</ele><time>2026-04-29T07:25:30.124Z</time></trkpt><trkpt lat="45.0655267" lon="7.6912517"><ele>242.0</ele><time>2026-04-29T07:25:31.124Z</time></trkpt><trkpt lat="45.0654883" lon="7.6913617"><ele>242.0</ele><time>2026-04-29T07:25:32.124Z</time></trkpt><trkpt lat="45.0654567" lon="7.6914617"><ele>241.83333333333334</ele><time>2026-04-29T07:25:33.124Z</time></trkpt><trkpt lat="45.065425" lon="7.6915617"><ele>241.66666666666669</ele><time>2026-04-29T07:25:34.124Z</time></trkpt><trkpt lat="45.0654033" lon="7.6916517"><ele>241.5</ele><time>2026-04-29T07:25:35.125Z</time></trkpt><trkpt lat="45.06537" lon="7.6917333"><ele>241.33333333333331</ele><time>2026-04-29T07:25:36.124Z</time></trkpt><trkpt lat="45.065335" lon="7.6918267"><ele>241.16666666666666</ele><time>2026-04-29T07:25:37.125Z</time></trkpt><trkpt lat="45.0653017" lon="7.69194"><ele>241.0</ele><time>2026-04-29T07:25:38.124Z</time></trkpt><trkpt lat="45.06526" lon="7.6920583"><ele>240.4</ele><time>2026-04-29T07:25:39.124Z</time></trkpt><trkpt lat="45.0652133" lon="7.6921883"><ele>239.8</ele><time>2026-04-29T07:25:40.124Z</time></trkpt><trkpt lat="45.06517" lon="7.6923233"><ele>239.20000000000002</ele><time>2026-04-29T07:25:41.124Z</time></trkpt><trkpt lat="45.0651217" lon="7.692455"><ele>238.60000000000002</ele><time>2026-04-29T07:25:42.124Z</time></trkpt><trkpt lat="45.0650783" lon="7.692595"><ele>238.0</ele><time>2026-04-29T07:25:43.124Z</time></trkpt><trkpt lat="45.0650367" lon="7.69273"><ele>237.83333333333331</ele><time>2026-04-29T07:25:44.124Z</time></trkpt><trkpt lat="45.0649933" lon="7.69285"><ele>237.66666666666666</ele><time>2026-04-29T07:25:45.124Z</time></trkpt><trkpt lat="45.0649517" lon="7.692955"><ele>237.5</ele><time>2026-04-29T07:25:46.124Z</time></trkpt><trkpt lat="45.0649133" lon="7.693055"><ele>237.33333333333331</ele><time>2026-04-29T07:25:47.124Z</time></trkpt><trkpt lat="45.0648833" lon="7.6931567"><ele>237.16666666666666</ele><time>2026-04-29T07:25:48.124Z</time></trkpt><trkpt lat="45.064835" lon="7.693245"><ele>237.0</ele><time>2026-04-29T07:25:49.125Z</time></trkpt><trkpt lat="45.0647733" lon="7.69333"><ele>237.0</ele><time>2026-04-29T07:25:50.124Z</time></trkpt><trkpt lat="45.0647083" lon="7.6934217"><ele>237.0</ele><time>2026-04-29T07:25:51.124Z</time></trkpt><trkpt lat="45.064645" lon="7.693515"><ele>237.0</ele><time>2026-04-29T07:25:52.124Z</time></trkpt><trkpt lat="45.064585" lon="7.6936067"><ele>237.0</ele><time>2026-04-29T07:25:53.124Z</time></trkpt><trkpt lat="45.0645267" lon="7.6936967"><ele>237.0</ele><time>2026-04-29T07:25:54.124Z</time></trkpt><trkpt lat="45.06447" lon="7.69378"><ele>237.0</ele><time>2026-04-29T07:25:55.124Z</time></trkpt><trkpt lat="45.0643933" lon="7.693865"><ele>237.0</ele><time>2026-04-29T07:25:56.124Z</time></trkpt><trkpt lat="45.06433" lon="7.69393"><ele>237.0</ele><time>2026-04-29T07:25:57.124Z</time></trkpt><trkpt lat="45.0642717" lon="7.6940033"><ele>237.0</ele><time>2026-04-29T07:25:58.124Z</time></trkpt><trkpt lat="45.06421" lon="7.6940833"><ele>237.0</ele><time>2026-04-29T07:25:59.124Z</time></trkpt><trkpt lat="45.0641467" lon="7.69417"><ele>237.0</ele><time>2026-04-29T07:26:00.124Z</time></trkpt><trkpt lat="45.0640833" lon="7.6942683"><ele>237.0</ele><time>2026-04-29T07:26:01.124Z</time></trkpt><trkpt lat="45.0640217" lon="7.6943717"><ele>236.16666666666666</ele><time>2026-04-29T07:26:02.124Z</time></trkpt><trkpt lat="45.0639617" lon="7.6944667"><ele>235.33333333333331</ele><time>2026-04-29T07:26:03.124Z</time></trkpt><trkpt lat="45.063905" lon="7.69456"><ele>234.5</ele><time>2026-04-29T07:26:04.124Z</time></trkpt><trkpt lat="45.06385" lon="7.69464"><ele>233.66666666666666</ele><time>2026-04-29T07:26:05.125Z</time></trkpt><trkpt lat="45.063805" lon="7.69471"><ele>232.83333333333331</ele><time>2026-04-29T07:26:06.125Z</time></trkpt><trkpt lat="45.0637417" lon="7.6947933"><ele>232.0</ele><time>2026-04-29T07:26:08.124Z</time></trkpt><trkpt lat="45.0636683" lon="7.694875"><ele>232.0</ele><time>2026-04-29T07:26:12.124Z</time></trkpt><trkpt lat="45.0635783" lon="7.694985"><ele>232.0</ele><time>2026-04-29T07:26:14.125Z</time></trkpt><trkpt lat="45.0635233" lon="7.695075"><ele>232.0</ele><time>2026-04-29T07:26:15.124Z</time></trkpt><trkpt lat="45.06346" lon="7.6951733"><ele>232.0</ele><time>2026-04-29T07:26:16.125Z</time></trkpt><trkpt lat="45.0634033" lon="7.6952683"><ele>232.0</ele><time>2026-04-29T07:26:17.124Z</time></trkpt><trkpt lat="45.0633483" lon="7.6953517"><ele>232.16666666666666</ele><time>2026-04-29T07:26:18.124Z</time></trkpt><trkpt lat="45.0633033" lon="7.695425"><ele>232.33333333333331</ele><time>2026-04-29T07:26:19.125Z</time></trkpt><trkpt lat="45.0632617" lon="7.6955333"><ele>232.5</ele><time>2026-04-29T07:26:21.124Z</time></trkpt><trkpt lat="45.06322" lon="7.6956417"><ele>232.66666666666669</ele><time>2026-04-29T07:26:34.124Z</time></trkpt><trkpt lat="45.0632617" lon="7.6957667"><ele>232.83333333333334</ele><time>2026-04-29T07:26:36.124Z</time></trkpt><trkpt lat="45.063305" lon="7.6958383"><ele>233.0</ele><time>2026-04-29T07:26:37.124Z</time></trkpt><trkpt lat="45.0633567" lon="7.6959183"><ele>233.00000000000003</ele><time>2026-04-29T07:26:38.124Z</time></trkpt><trkpt lat="45.0634133" lon="7.69599"><ele>233.0</ele><time>2026-04-29T07:26:39.124Z</time></trkpt><trkpt lat="45.0634867" lon="7.696085"><ele>233.0</ele><time>2026-04-29T07:26:41.124Z</time></trkpt><trkpt lat="45.06356" lon="7.6961617"><ele>233.0</ele><time>2026-04-29T07:26:45.124Z</time></trkpt><trkpt lat="45.0636283" lon="7.6962617"><ele>233.00000000000003</ele><time>2026-04-29T07:26:47.124Z</time></trkpt><trkpt lat="45.0636717" lon="7.6963383"><ele>233.0</ele><time>2026-04-29T07:26:48.124Z</time></trkpt><trkpt lat="45.0637283" lon="7.6964133"><ele>231.83333333333334</ele><time>2026-04-29T07:26:49.124Z</time></trkpt><trkpt lat="45.06379" lon="7.6964933"><ele>230.66666666666669</ele><time>2026-04-29T07:26:50.124Z</time></trkpt><trkpt lat="45.0638483" lon="7.6965517"><ele>229.5</ele><time>2026-04-29T07:26:51.124Z</time></trkpt><trkpt lat="45.063905" lon="7.6966917"><ele>228.33333333333331</ele><time>2026-04-29T07:26:53.124Z</time></trkpt><trkpt lat="45.06387" lon="7.6968167"><ele>227.16666666666666</ele><time>2026-04-29T07:26:55.124Z</time></trkpt><trkpt lat="45.0638233" lon="7.69688"><ele>226.0</ele><time>2026-04-29T07:26:56.124Z</time></trkpt><trkpt lat="45.0637583" lon="7.69696"><ele>223.60000000000002</ele><time>2026-04-29T07:26:57.124Z</time></trkpt><trkpt lat="45.0636983" lon="7.6970433"><ele>221.20000000000002</ele><time>2026-04-29T07:26:58.125Z</time></trkpt><trkpt lat="45.063635" lon="7.6971267"><ele>218.79999999999998</ele><time>2026-04-29T07:26:59.124Z</time></trkpt><trkpt lat="45.06357" lon="7.6972183"><ele>216.39999999999998</ele><time>2026-04-29T07:27:00.124Z</time></trkpt><trkpt lat="45.06351" lon="7.6973167"><ele>214.0</ele><time>2026-04-29T07:27:01.124Z</time></trkpt><trkpt lat="45.063445" lon="7.6974167"><ele>213.99999999999997</ele><time>2026-04-29T07:27:02.125Z</time></trkpt><trkpt lat="45.0633833" lon="7.6975067"><ele>214.0</ele><time>2026-04-29T07:27:03.124Z</time></trkpt><trkpt lat="45.0633333" lon="7.697585"><ele>214.0</ele><time>2026-04-29T07:27:04.124Z</time></trkpt><trkpt lat="45.0632883" lon="7.697655"><ele>214.0</ele><time>2026-04-29T07:27:05.124Z</time></trkpt><trkpt lat="45.0632017" lon="7.697765"><ele>213.99999999999997</ele><time>2026-04-29T07:27:07.124Z</time></trkpt><trkpt lat="45.0631383" lon="7.6978733"><ele>214.0</ele><time>2026-04-29T07:27:09.124Z</time></trkpt><trkpt lat="45.0630783" lon="7.6979933"><ele>215.33333333333331</ele><time>2026-04-29T07:27:11.124Z</time></trkpt><trkpt lat="45.06303" lon="7.698085"><ele>216.66666666666666</ele><time>2026-04-29T07:27:13.124Z</time></trkpt><trkpt lat="45.0629833" lon="7.6981717"><ele>218.0</ele><time>2026-04-29T07:27:16.124Z</time></trkpt><trkpt lat="45.0629083" lon="7.69824"><ele>219.33333333333331</ele><time>2026-04-29T07:27:50.124Z</time></trkpt><trkpt lat="45.0628317" lon="7.6982933"><ele>220.66666666666666</ele><time>2026-04-29T07:27:51.124Z</time></trkpt><trkpt lat="45.0627567" lon="7.6983417"><ele>222.0</ele><time>2026-04-29T07:27:52.124Z</time></trkpt><trkpt lat="45.0626767" lon="7.6983883"><ele>222.0</ele><time>2026-04-29T07:27:53.124Z</time></trkpt><trkpt lat="45.062595" lon="7.69844"><ele>222.0</ele><time>2026-04-29T07:27:54.124Z</time></trkpt><trkpt lat="45.062505" lon="7.6984983"><ele>222.0</ele><time>2026-04-29T07:27:55.124Z</time></trkpt><trkpt lat="45.0624217" lon="7.698565"><ele>222.0</ele><time>2026-04-29T07:27:56.124Z</time></trkpt><trkpt lat="45.06234" lon="7.69864"><ele>222.0</ele><time>2026-04-29T07:27:57.124Z</time></trkpt><trkpt lat="45.0622633" lon="7.6987367"><ele>223.2</ele><time>2026-04-29T07:27:58.124Z</time></trkpt><trkpt lat="45.0621967" lon="7.6988383"><ele>224.39999999999998</ele><time>2026-04-29T07:27:59.124Z</time></trkpt><trkpt lat="45.0621217" lon="7.698945"><ele>225.60000000000002</ele><time>2026-04-29T07:28:00.124Z</time></trkpt><trkpt lat="45.06205" lon="7.6990317"><ele>226.8</ele><time>2026-04-29T07:28:01.124Z</time></trkpt><trkpt lat="45.0619783" lon="7.69913"><ele>228.0</ele><time>2026-04-29T07:28:02.124Z</time></trkpt><trkpt lat="45.0619033" lon="7.6992267"><ele>228.0</ele><time>2026-04-29T07:28:03.124Z</time></trkpt><trkpt lat="45.06183" lon="7.6993283"><ele>228.0</ele><time>2026-04-29T07:28:04.124Z</time></trkpt><trkpt lat="45.0617567" lon="7.6994317"><ele>228.0</ele><time>2026-04-29T07:28:05.124Z</time></trkpt><trkpt lat="45.0616983" lon="7.6995483"><ele>228.0</ele><time>2026-04-29T07:28:06.124Z</time></trkpt><trkpt lat="45.0616317" lon="7.69966"><ele>228.0</ele><time>2026-04-29T07:28:07.124Z</time></trkpt><trkpt lat="45.0615633" lon="7.6997733"><ele>229.60000000000002</ele><time>2026-04-29T07:28:08.125Z</time></trkpt><trkpt lat="45.0614967" lon="7.6998917"><ele>231.20000000000002</ele><time>2026-04-29T07:28:09.124Z</time></trkpt><trkpt lat="45.0614283" lon="7.7000033"><ele>232.8</ele><time>2026-04-29T07:28:10.124Z</time></trkpt><trkpt lat="45.0613667" lon="7.7001033"><ele>234.4</ele><time>2026-04-29T07:28:11.124Z</time></trkpt><trkpt lat="45.0613033" lon="7.700195"><ele>236.0</ele><time>2026-04-29T07:28:12.124Z</time></trkpt><trkpt lat="45.0612433" lon="7.7002933"><ele>236.0</ele><time>2026-04-29T07:28:13.124Z</time></trkpt><trkpt lat="45.0611783" lon="7.7003983"><ele>236.00000000000003</ele><time>2026-04-29T07:28:14.124Z</time></trkpt><trkpt lat="45.0611117" lon="7.70051"><ele>236.00000000000003</ele><time>2026-04-29T07:28:15.125Z</time></trkpt><trkpt lat="45.0610433" lon="7.7006283"><ele>236.0</ele><time>2026-04-29T07:28:16.124Z</time></trkpt><trkpt lat="45.0609733" lon="7.70075"><ele>236.0</ele><time>2026-04-29T07:28:17.124Z</time></trkpt><trkpt lat="45.0609017" lon="7.700865"><ele>236.0</ele><time>2026-04-29T07:28:18.124Z</time></trkpt><trkpt lat="45.06083" lon="7.70098"><ele>236.00000000000003</ele><time>2026-04-29T07:28:19.124Z</time></trkpt><trkpt lat="45.06076" lon="7.7010817"><ele>236.00000000000003</ele><time>2026-04-29T07:28:20.124Z</time></trkpt><trkpt lat="45.0606933" lon="7.7011817"><ele>236.0</ele><time>2026-04-29T07:28:21.124Z</time></trkpt><trkpt lat="45.0606383" lon="7.7012683"><ele>236.0</ele><time>2026-04-29T07:28:22.124Z</time></trkpt><trkpt lat="45.0605967" lon="7.7013433"><ele>236.8</ele><time>2026-04-29T07:28:23.125Z</time></trkpt><trkpt lat="45.0605883" lon="7.701475"><ele>237.60000000000002</ele><time>2026-04-29T07:28:25.125Z</time></trkpt><trkpt lat="45.0606583" lon="7.7015933"><ele>238.4</ele><time>2026-04-29T07:28:27.124Z</time></trkpt><trkpt lat="45.060785" lon="7.7016533"><ele>239.2</ele><time>2026-04-29T07:28:29.124Z</time></trkpt><trkpt lat="45.060865" lon="7.7016667"><ele>240.0</ele><time>2026-04-29T07:28:30.124Z</time></trkpt><trkpt lat="45.060935" lon="7.7016967"><ele>240.0</ele><time>2026-04-29T07:28:31.124Z</time></trkpt><trkpt lat="45.061005" lon="7.7017133"><ele>240.0</ele><time>2026-04-29T07:28:32.124Z</time></trkpt><trkpt lat="45.0610633" lon="7.7017533"><ele>240.0</ele><time>2026-04-29T07:28:33.124Z</time></trkpt><trkpt lat="45.061115" lon="7.70181"><ele>240.0</ele><time>2026-04-29T07:28:34.124Z</time></trkpt><trkpt lat="45.0611667" lon="7.7018767"><ele>240.0</ele><time>2026-04-29T07:28:36.124Z</time></trkpt><trkpt lat="45.06118" lon="7.702"><ele>240.0</ele><time>2026-04-29T07:28:40.124Z</time></trkpt><trkpt lat="45.061125" lon="7.7021533"><ele>240.6</ele><time>2026-04-29T07:28:42.124Z</time></trkpt><trkpt lat="45.06107" lon="7.7022567"><ele>241.2</ele><time>2026-04-29T07:28:43.124Z</time></trkpt><trkpt lat="45.0610167" lon="7.7023617"><ele>241.8</ele><time>2026-04-29T07:28:44.124Z</time></trkpt><trkpt lat="45.0609633" lon="7.7024733"><ele>242.4</ele><time>2026-04-29T07:28:45.124Z</time></trkpt><trkpt lat="45.0609067" lon="7.7025917"><ele>243.0</ele><time>2026-04-29T07:28:46.124Z</time></trkpt><trkpt lat="45.0608483" lon="7.7027133"><ele>243.4</ele><time>2026-04-29T07:28:47.124Z</time></trkpt><trkpt lat="45.0607867" lon="7.702835"><ele>243.8</ele><time>2026-04-29T07:28:48.124Z</time></trkpt><trkpt lat="45.0607267" lon="7.7029417"><ele>244.2</ele><time>2026-04-29T07:28:49.124Z</time></trkpt><trkpt lat="45.0606667" lon="7.7030683"><ele>244.6</ele><time>2026-04-29T07:28:50.125Z</time></trkpt><trkpt lat="45.0606017" lon="7.7031983"><ele>245.0</ele><time>2026-04-29T07:28:51.124Z</time></trkpt><trkpt lat="45.0605433" lon="7.703325"><ele>246.2</ele><time>2026-04-29T07:28:52.125Z</time></trkpt><trkpt lat="45.0604817" lon="7.70345"><ele>247.4</ele><time>2026-04-29T07:28:53.124Z</time></trkpt><trkpt lat="45.0604217" lon="7.70358"><ele>248.60000000000002</ele><time>2026-04-29T07:28:54.124Z</time></trkpt><trkpt lat="45.0603617" lon="7.7037067"><ele>249.8</ele><time>2026-04-29T07:28:55.124Z</time></trkpt><trkpt lat="45.0603017" lon="7.7038333"><ele>251.0</ele><time>2026-04-29T07:28:56.124Z</time></trkpt><trkpt lat="45.0602383" lon="7.7039567"><ele>251.20000000000002</ele><time>2026-04-29T07:28:57.124Z</time></trkpt><trkpt lat="45.0601733" lon="7.7040767"><ele>251.40000000000003</ele><time>2026-04-29T07:28:58.125Z</time></trkpt><trkpt lat="45.060105" lon="7.7042033"><ele>251.6</ele><time>2026-04-29T07:28:59.124Z</time></trkpt><trkpt lat="45.0600367" lon="7.70433"><ele>251.8</ele><time>2026-04-29T07:29:00.124Z</time></trkpt><trkpt lat="45.05997" lon="7.7044633"><ele>252.0</ele><time>2026-04-29T07:29:01.124Z</time></trkpt><trkpt lat="45.0599017" lon="7.70459"><ele>256.0</ele><time>2026-04-29T07:29:02.124Z</time></trkpt><trkpt lat="45.05985" lon="7.70472"><ele>260.0</ele><time>2026-04-29T07:29:03.124Z</time></trkpt><trkpt lat="45.059785" lon="7.704855"><ele>264.0</ele><time>2026-04-29T07:29:04.125Z</time></trkpt><trkpt lat="45.0597367" lon="7.7049967"><ele>268.0</ele><time>2026-04-29T07:29:05.124Z</time></trkpt><trkpt lat="45.0596783" lon="7.7050883"><ele>272.0</ele><time>2026-04-29T07:29:06.124Z</time></trkpt><trkpt lat="45.0596333" lon="7.705175"><ele>271.83333333333337</ele><time>2026-04-29T07:29:07.124Z</time></trkpt><trkpt lat="45.0596167" lon="7.7052667"><ele>271.6666666666667</ele><time>2026-04-29T07:29:08.124Z</time></trkpt><trkpt lat="45.0595833" lon="7.70543"><ele>271.5</ele><time>2026-04-29T07:29:10.124Z</time></trkpt><trkpt lat="45.0596033" lon="7.7055183"><ele>271.3333333333333</ele><time>2026-04-29T07:29:11.124Z</time></trkpt><trkpt lat="45.05964" lon="7.7056017"><ele>271.16666666666663</ele><time>2026-04-29T07:29:12.124Z</time></trkpt><trkpt lat="45.0596833" lon="7.7056867"><ele>271.0</ele><time>2026-04-29T07:29:13.125Z</time></trkpt><trkpt lat="45.0597133" lon="7.7057833"><ele>271.0</ele><time>2026-04-29T07:29:14.124Z</time></trkpt><trkpt lat="45.0597283" lon="7.7059017"><ele>271.0</ele><time>2026-04-29T07:29:15.124Z</time></trkpt><trkpt lat="45.0597317" lon="7.7060333"><ele>271.0</ele><time>2026-04-29T07:29:16.124Z</time></trkpt><trkpt lat="45.0597417" lon="7.706175"><ele>271.0</ele><time>2026-04-29T07:29:17.124Z</time></trkpt><trkpt lat="45.0597517" lon="7.7063183"><ele>271.0</ele><time>2026-04-29T07:29:18.124Z</time></trkpt><trkpt lat="45.05974" lon="7.70644"><ele>271.3333333333333</ele><time>2026-04-29T07:29:19.125Z</time></trkpt><trkpt lat="45.0597683" lon="7.7065617"><ele>271.66666666666663</ele><time>2026-04-29T07:29:20.124Z</time></trkpt><trkpt lat="45.0598033" lon="7.70666"><ele>272.0</ele><time>2026-04-29T07:29:21.124Z</time></trkpt><trkpt lat="45.0598633" lon="7.706775"><ele>272.3333333333333</ele><time>2026-04-29T07:29:23.124Z</time></trkpt><trkpt lat="45.0599117" lon="7.7068733"><ele>272.6666666666667</ele><time>2026-04-29T07:29:25.124Z</time></trkpt><trkpt lat="45.0599533" lon="7.7069433"><ele>273.0</ele><time>2026-04-29T07:29:26.124Z</time></trkpt><trkpt lat="45.0600167" lon="7.7070117"><ele>273.1666666666667</ele><time>2026-04-29T07:29:27.124Z</time></trkpt><trkpt lat="45.06008" lon="7.7070783"><ele>273.3333333333333</ele><time>2026-04-29T07:29:28.125Z</time></trkpt><trkpt lat="45.060145" lon="7.7071383"><ele>273.5</ele><time>2026-04-29T07:29:29.124Z</time></trkpt><trkpt lat="45.06021" lon="7.707195"><ele>273.66666666666663</ele><time>2026-04-29T07:29:30.124Z</time></trkpt><trkpt lat="45.0602883" lon="7.70725"><ele>273.8333333333333</ele><time>2026-04-29T07:29:31.124Z</time></trkpt><trkpt lat="45.060365" lon="7.7073233"><ele>274.0</ele><time>2026-04-29T07:29:32.124Z</time></trkpt><trkpt lat="45.0604383" lon="7.7073867"><ele>274.0</ele><time>2026-04-29T07:29:33.125Z</time></trkpt><trkpt lat="45.060515" lon="7.707455"><ele>274.0</ele><time>2026-04-29T07:29:34.124Z</time></trkpt><trkpt lat="45.0605767" lon="7.7075517"><ele>274.0</ele><time>2026-04-29T07:29:35.124Z</time></trkpt><trkpt lat="45.0606333" lon="7.7076633"><ele>274.0</ele><time>2026-04-29T07:29:36.124Z</time></trkpt><trkpt lat="45.0606833" lon="7.7077867"><ele>274.0</ele><time>2026-04-29T07:29:37.124Z</time></trkpt><trkpt lat="45.06073" lon="7.70791"><ele>277.0</ele><time>2026-04-29T07:29:38.124Z</time></trkpt><trkpt lat="45.060765" lon="7.7080367"><ele>280.0</ele><time>2026-04-29T07:29:39.125Z</time></trkpt><trkpt lat="45.0607783" lon="7.7081733"><ele>283.0</ele><time>2026-04-29T07:29:40.124Z</time></trkpt><trkpt lat="45.060775" lon="7.7083117"><ele>286.0</ele><time>2026-04-29T07:29:41.124Z</time></trkpt><trkpt lat="45.0607467" lon="7.70845"><ele>289.0</ele><time>2026-04-29T07:29:42.124Z</time></trkpt><trkpt lat="45.0607133" lon="7.70858"><ele>291.2</ele><time>2026-04-29T07:29:43.124Z</time></trkpt><trkpt lat="45.0606683" lon="7.708725"><ele>293.4</ele><time>2026-04-29T07:29:44.124Z</time></trkpt><trkpt lat="45.0606367" lon="7.70886"><ele>295.6</ele><time>2026-04-29T07:29:45.124Z</time></trkpt><trkpt lat="45.0606283" lon="7.7090033"><ele>297.8</ele><time>2026-04-29T07:29:46.124Z</time></trkpt><trkpt lat="45.0606383" lon="7.7091317"><ele>300.0</ele><time>2026-04-29T07:29:47.124Z</time></trkpt><trkpt lat="45.060675" lon="7.7092533"><ele>300.0</ele><time>2026-04-29T07:29:48.124Z</time></trkpt><trkpt lat="45.0607267" lon="7.7093633"><ele>300.0</ele><time>2026-04-29T07:29:49.124Z</time></trkpt><trkpt lat="45.060805" lon="7.7094433"><ele>300.0</ele><time>2026-04-29T07:29:50.124Z</time></trkpt><trkpt lat="45.0609" lon="7.70949"><ele>300.0</ele><time>2026-04-29T07:29:51.124Z</time></trkpt><trkpt lat="45.061" lon="7.7095217"><ele>300.0</ele><time>2026-04-29T07:29:52.124Z</time></trkpt><trkpt lat="45.0610983" lon="7.7095533"><ele>296.6</ele><time>2026-04-29T07:29:53.124Z</time></trkpt><trkpt lat="45.0611917" lon="7.7095983"><ele>293.2</ele><time>2026-04-29T07:29:54.125Z</time></trkpt><trkpt lat="45.0612633" lon="7.7096867"><ele>289.8</ele><time>2026-04-29T07:29:55.125Z</time></trkpt><trkpt lat="45.0613183" lon="7.7098117"><ele>286.4</ele><time>2026-04-29T07:29:56.124Z</time></trkpt><trkpt lat="45.0613583" lon="7.70996"><ele>283.0</ele><time>2026-04-29T07:29:57.124Z</time></trkpt><trkpt lat="45.06141" lon="7.7101117"><ele>285.0</ele><time>2026-04-29T07:29:58.124Z</time></trkpt><trkpt lat="45.06147" lon="7.7102417"><ele>287.0</ele><time>2026-04-29T07:29:59.124Z</time></trkpt><trkpt lat="45.0615433" lon="7.7103533"><ele>289.0</ele><time>2026-04-29T07:30:00.124Z</time></trkpt><trkpt lat="45.0616167" lon="7.7104517"><ele>291.0</ele><time>2026-04-29T07:30:01.125Z</time></trkpt><trkpt lat="45.0616883" lon="7.7105567"><ele>293.0</ele><time>2026-04-29T07:30:02.124Z</time></trkpt><trkpt lat="45.061765" lon="7.7106483"><ele>289.8</ele><time>2026-04-29T07:30:03.124Z</time></trkpt><trkpt lat="45.0618333" lon="7.7107483"><ele>286.6</ele><time>2026-04-29T07:30:04.124Z</time></trkpt><trkpt lat="45.0618867" lon="7.7108367"><ele>283.4</ele><time>2026-04-29T07:30:05.124Z</time></trkpt><trkpt lat="45.061935" lon="7.7109467"><ele>280.2</ele><time>2026-04-29T07:30:06.124Z</time></trkpt><trkpt lat="45.0619733" lon="7.7110767"><ele>277.0</ele><time>2026-04-29T07:30:07.125Z</time></trkpt><trkpt lat="45.06202" lon="7.7111983"><ele>277.0</ele><time>2026-04-29T07:30:08.124Z</time></trkpt><trkpt lat="45.0620967" lon="7.7112883"><ele>277.0</ele><time>2026-04-29T07:30:09.124Z</time></trkpt><trkpt lat="45.062185" lon="7.7113733"><ele>277.0</ele><time>2026-04-29T07:30:10.124Z</time></trkpt><trkpt lat="45.0622617" lon="7.7114517"><ele>277.0</ele><time>2026-04-29T07:30:11.124Z</time></trkpt><trkpt lat="45.06234" lon="7.7115283"><ele>277.0</ele><time>2026-04-29T07:30:12.124Z</time></trkpt><trkpt lat="45.0624083" lon="7.711635"><ele>274.0</ele><time>2026-04-29T07:30:13.124Z</time></trkpt><trkpt lat="45.0624583" lon="7.7117667"><ele>271.0</ele><time>2026-04-29T07:30:14.124Z</time></trkpt><trkpt lat="45.0624917" lon="7.711915"><ele>268.0</ele><time>2026-04-29T07:30:15.124Z</time></trkpt><trkpt lat="45.0625233" lon="7.712075"><ele>265.0</ele><time>2026-04-29T07:30:16.124Z</time></trkpt><trkpt lat="45.06257" lon="7.71224"><ele>265.0</ele><time>2026-04-29T07:30:17.125Z</time></trkpt><trkpt lat="45.06263" lon="7.7123767"><ele>265.0</ele><time>2026-04-29T07:30:18.124Z</time></trkpt><trkpt lat="45.0626883" lon="7.71252"><ele>265.0</ele><time>2026-04-29T07:30:19.124Z</time></trkpt><trkpt lat="45.0627483" lon="7.7126567"><ele>265.0</ele><time>2026-04-29T07:30:20.124Z</time></trkpt><trkpt lat="45.062805" lon="7.7127833"><ele>266.0</ele><time>2026-04-29T07:30:21.124Z</time></trkpt><trkpt lat="45.0628567" lon="7.7129067"><ele>267.0</ele><time>2026-04-29T07:30:22.124Z</time></trkpt><trkpt lat="45.0629" lon="7.7130217"><ele>268.0</ele><time>2026-04-29T07:30:23.124Z</time></trkpt><trkpt lat="45.062945" lon="7.7131367"><ele>269.0</ele><time>2026-04-29T07:30:24.124Z</time></trkpt><trkpt lat="45.0629867" lon="7.7132583"><ele>270.0</ele><time>2026-04-29T07:30:25.124Z</time></trkpt><trkpt lat="45.0630083" lon="7.71338"><ele>270.0</ele><time>2026-04-29T07:30:26.124Z</time></trkpt><trkpt lat="45.06298" lon="7.7135133"><ele>270.0</ele><time>2026-04-29T07:30:27.124Z</time></trkpt><trkpt lat="45.0629367" lon="7.713645"><ele>270.0</ele><time>2026-04-29T07:30:28.125Z</time></trkpt><trkpt lat="45.0628933" lon="7.71375"><ele>270.0</ele><time>2026-04-29T07:30:29.125Z</time></trkpt><trkpt lat="45.0628783" lon="7.7138783"><ele>270.0</ele><time>2026-04-29T07:30:30.124Z</time></trkpt><trkpt lat="45.062895" lon="7.7140033"><ele>268.4</ele><time>2026-04-29T07:30:31.125Z</time></trkpt><trkpt lat="45.0629333" lon="7.71411"><ele>266.8</ele><time>2026-04-29T07:30:32.124Z</time></trkpt><trkpt lat="45.063" lon="7.7141883"><ele>265.2</ele><time>2026-04-29T07:30:33.124Z</time></trkpt><trkpt lat="45.0630883" lon="7.71425"><ele>263.6</ele><time>2026-04-29T07:30:34.124Z</time></trkpt><trkpt lat="45.063175" lon="7.714305"><ele>262.0</ele><time>2026-04-29T07:30:35.124Z</time></trkpt><trkpt lat="45.0632567" lon="7.7143483"><ele>260.0</ele><time>2026-04-29T07:30:36.124Z</time></trkpt><trkpt lat="45.063325" lon="7.714385"><ele>258.0</ele><time>2026-04-29T07:30:37.125Z</time></trkpt><trkpt lat="45.0634233" lon="7.7144567"><ele>256.0</ele><time>2026-04-29T07:30:39.124Z</time></trkpt><trkpt lat="45.06347" lon="7.714565"><ele>254.0</ele><time>2026-04-29T07:30:41.125Z</time></trkpt><trkpt lat="45.063435" lon="7.7147383"><ele>252.0</ele><time>2026-04-29T07:30:43.124Z</time></trkpt><trkpt lat="45.063395" lon="7.71484"><ele>252.0</ele><time>2026-04-29T07:30:44.124Z</time></trkpt><trkpt lat="45.0633417" lon="7.7149483"><ele>252.0</ele><time>2026-04-29T07:30:45.124Z</time></trkpt><trkpt lat="45.0632883" lon="7.71505"><ele>252.0</ele><time>2026-04-29T07:30:46.124Z</time></trkpt><trkpt lat="45.0632383" lon="7.71516"><ele>252.0</ele><time>2026-04-29T07:30:47.125Z</time></trkpt><trkpt lat="45.0631883" lon="7.7152667"><ele>252.0</ele><time>2026-04-29T07:30:48.124Z</time></trkpt><trkpt lat="45.063135" lon="7.71536"><ele>253.83333333333334</ele><time>2026-04-29T07:30:49.124Z</time></trkpt><trkpt lat="45.0630717" lon="7.7154483"><ele>255.66666666666669</ele><time>2026-04-29T07:30:50.124Z</time></trkpt><trkpt lat="45.062995" lon="7.7155183"><ele>257.5</ele><time>2026-04-29T07:30:51.124Z</time></trkpt><trkpt lat="45.0629117" lon="7.7155517"><ele>259.33333333333337</ele><time>2026-04-29T07:30:52.124Z</time></trkpt><trkpt lat="45.06282" lon="7.715565"><ele>261.1666666666667</ele><time>2026-04-29T07:30:53.124Z</time></trkpt><trkpt lat="45.0627317" lon="7.7155583"><ele>263.0</ele><time>2026-04-29T07:30:54.124Z</time></trkpt><trkpt lat="45.0626383" lon="7.715565"><ele>263.0</ele><time>2026-04-29T07:30:55.124Z</time></trkpt><trkpt lat="45.0625533" lon="7.7155567"><ele>263.0</ele><time>2026-04-29T07:30:56.124Z</time></trkpt><trkpt lat="45.0624633" lon="7.71556"><ele>263.0</ele><time>2026-04-29T07:30:57.124Z</time></trkpt><trkpt lat="45.0623633" lon="7.7155567"><ele>263.0</ele><time>2026-04-29T07:30:58.124Z</time></trkpt><trkpt lat="45.06226" lon="7.7155533"><ele>263.0</ele><time>2026-04-29T07:30:59.124Z</time></trkpt><trkpt lat="45.0621533" lon="7.71555"><ele>264.5</ele><time>2026-04-29T07:31:00.124Z</time></trkpt><trkpt lat="45.0620433" lon="7.7155633"><ele>266.0</ele><time>2026-04-29T07:31:01.124Z</time></trkpt><trkpt lat="45.06193" lon="7.7155767"><ele>267.5</ele><time>2026-04-29T07:31:02.124Z</time></trkpt><trkpt lat="45.061815" lon="7.7155967"><ele>269.0</ele><time>2026-04-29T07:31:03.124Z</time></trkpt><trkpt lat="45.0617033" lon="7.7155967"><ele>269.59999999999997</ele><time>2026-04-29T07:31:04.124Z</time></trkpt><trkpt lat="45.0615883" lon="7.715595"><ele>270.2</ele><time>2026-04-29T07:31:05.124Z</time></trkpt><trkpt lat="45.06148" lon="7.7155983"><ele>270.79999999999995</ele><time>2026-04-29T07:31:06.124Z</time></trkpt><trkpt lat="45.061375" lon="7.7156117"><ele>271.4</ele><time>2026-04-29T07:31:07.124Z</time></trkpt><trkpt lat="45.0612783" lon="7.7156483"><ele>272.0</ele><time>2026-04-29T07:31:08.124Z</time></trkpt><trkpt lat="45.0611883" lon="7.7156917"><ele>272.0</ele><time>2026-04-29T07:31:09.124Z</time></trkpt><trkpt lat="45.0610983" lon="7.71576"><ele>272.0</ele><time>2026-04-29T07:31:10.124Z</time></trkpt><trkpt lat="45.0610133" lon="7.7158133"><ele>272.0</ele><time>2026-04-29T07:31:11.124Z</time></trkpt><trkpt lat="45.0609233" lon="7.715875"><ele>272.0</ele><time>2026-04-29T07:31:12.124Z</time></trkpt><trkpt lat="45.0608433" lon="7.71595"><ele>272.0</ele><time>2026-04-29T07:31:13.124Z</time></trkpt><trkpt lat="45.06078" lon="7.716055"><ele>273.4</ele><time>2026-04-29T07:31:14.124Z</time></trkpt><trkpt lat="45.0607283" lon="7.7161833"><ele>274.79999999999995</ele><time>2026-04-29T07:31:15.124Z</time></trkpt><trkpt lat="45.06067" lon="7.7162833"><ele>276.2</ele><time>2026-04-29T07:31:16.124Z</time></trkpt><trkpt lat="45.0606" lon="7.7163983"><ele>277.59999999999997</ele><time>2026-04-29T07:31:17.125Z</time></trkpt><trkpt lat="45.0605183" lon="7.7165333"><ele>279.0</ele><time>2026-04-29T07:31:18.125Z</time></trkpt><trkpt lat="45.0604417" lon="7.7166583"><ele>279.0</ele><time>2026-04-29T07:31:19.124Z</time></trkpt><trkpt lat="45.0603567" lon="7.7167917"><ele>279.0</ele><time>2026-04-29T07:31:20.124Z</time></trkpt><trkpt lat="45.0602783" lon="7.7169083"><ele>279.0</ele><time>2026-04-29T07:31:21.124Z</time></trkpt><trkpt lat="45.0601867" lon="7.7170233"><ele>279.0</ele><time>2026-04-29T07:31:22.124Z</time></trkpt><trkpt lat="45.0600933" lon="7.7171167"><ele>281.5</ele><time>2026-04-29T07:31:23.125Z</time></trkpt><trkpt lat="45.0599867" lon="7.7171933"><ele>284.0</ele><time>2026-04-29T07:31:24.124Z</time></trkpt><trkpt lat="45.0598767" lon="7.71724"><ele>286.5</ele><time>2026-04-29T07:31:25.124Z</time></trkpt><trkpt lat="45.0597617" lon="7.7172983"><ele>289.0</ele><time>2026-04-29T07:31:26.124Z</time></trkpt><trkpt lat="45.059665" lon="7.7173683"><ele>289.59999999999997</ele><time>2026-04-29T07:31:27.125Z</time></trkpt><trkpt lat="45.0595817" lon="7.7174667"><ele>290.2</ele><time>2026-04-29T07:31:28.125Z</time></trkpt><trkpt lat="45.0594983" lon="7.717545"><ele>290.79999999999995</ele><time>2026-04-29T07:31:29.124Z</time></trkpt><trkpt lat="45.0594133" lon="7.7176317"><ele>291.4</ele><time>2026-04-29T07:31:30.124Z</time></trkpt><trkpt lat="45.0593333" lon="7.7177083"><ele>292.0</ele><time>2026-04-29T07:31:31.124Z</time></trkpt><trkpt lat="45.0592383" lon="7.7177917"><ele>293.2</ele><time>2026-04-29T07:31:32.125Z</time></trkpt><trkpt lat="45.0591533" lon="7.7178717"><ele>294.4</ele><time>2026-04-29T07:31:33.124Z</time></trkpt><trkpt lat="45.0590667" lon="7.7179517"><ele>295.6</ele><time>2026-04-29T07:31:34.124Z</time></trkpt><trkpt lat="45.05898" lon="7.71802"><ele>296.8</ele><time>2026-04-29T07:31:35.124Z</time></trkpt><trkpt lat="45.0589017" lon="7.71812"><ele>298.0</ele><time>2026-04-29T07:31:36.124Z</time></trkpt><trkpt lat="45.05886" lon="7.7182483"><ele>298.0</ele><time>2026-04-29T07:31:37.124Z</time></trkpt><trkpt lat="45.0588167" lon="7.718385"><ele>298.0</ele><time>2026-04-29T07:31:38.124Z</time></trkpt><trkpt lat="45.0587833" lon="7.7185317"><ele>298.0</ele><time>2026-04-29T07:31:39.124Z</time></trkpt><trkpt lat="45.0587383" lon="7.7186583"><ele>298.0</ele><time>2026-04-29T07:31:40.124Z</time></trkpt><trkpt lat="45.0587117" lon="7.71881"><ele>298.0</ele><time>2026-04-29T07:31:41.124Z</time></trkpt><trkpt lat="45.0587183" lon="7.71896"><ele>299.66666666666663</ele><time>2026-04-29T07:31:42.124Z</time></trkpt><trkpt lat="45.05872" lon="7.7191017"><ele>301.3333333333333</ele><time>2026-04-29T07:31:43.124Z</time></trkpt><trkpt lat="45.0587283" lon="7.7192417"><ele>303.0</ele><time>2026-04-29T07:31:44.124Z</time></trkpt><trkpt lat="45.05873" lon="7.71937"><ele>304.6666666666667</ele><time>2026-04-29T07:31:45.125Z</time></trkpt><trkpt lat="45.0587083" lon="7.7194733"><ele>306.33333333333337</ele><time>2026-04-29T07:31:46.124Z</time></trkpt><trkpt lat="45.0586483" lon="7.71955"><ele>308.0</ele><time>2026-04-29T07:31:47.124Z</time></trkpt><trkpt lat="45.0585667" lon="7.7196"><ele>309.75</ele><time>2026-04-29T07:31:48.124Z</time></trkpt><trkpt lat="45.0584617" lon="7.71961"><ele>311.5</ele><time>2026-04-29T07:31:49.124Z</time></trkpt><trkpt lat="45.0583417" lon="7.7196117"><ele>313.25</ele><time>2026-04-29T07:31:50.124Z</time></trkpt><trkpt lat="45.0582167" lon="7.7196083"><ele>315.0</ele><time>2026-04-29T07:31:51.124Z</time></trkpt><trkpt lat="45.058105" lon="7.7196217"><ele>315.0</ele><time>2026-04-29T07:31:52.124Z</time></trkpt><trkpt lat="45.058005" lon="7.719655"><ele>315.0</ele><time>2026-04-29T07:31:53.124Z</time></trkpt><trkpt lat="45.0579233" lon="7.719715"><ele>315.0</ele><time>2026-04-29T07:31:54.124Z</time></trkpt><trkpt lat="45.057845" lon="7.7198033"><ele>315.0</ele><time>2026-04-29T07:31:55.125Z</time></trkpt><trkpt lat="45.057775" lon="7.7199083"><ele>315.0</ele><time>2026-04-29T07:31:56.125Z</time></trkpt><trkpt lat="45.0577033" lon="7.7200117"><ele>315.0</ele><time>2026-04-29T07:31:57.124Z</time></trkpt><trkpt lat="45.0576317" lon="7.7201167"><ele>315.0</ele><time>2026-04-29T07:31:58.124Z</time></trkpt><trkpt lat="45.057555" lon="7.72021"><ele>315.0</ele><time>2026-04-29T07:31:59.124Z</time></trkpt><trkpt lat="45.0574783" lon="7.7202967"><ele>315.0</ele><time>2026-04-29T07:32:00.124Z</time></trkpt><trkpt lat="45.0574" lon="7.72037"><ele>315.0</ele><time>2026-04-29T07:32:01.124Z</time></trkpt><trkpt lat="45.0573367" lon="7.72044"><ele>315.6666666666667</ele><time>2026-04-29T07:32:02.124Z</time></trkpt><trkpt lat="45.05728" lon="7.7204833"><ele>316.3333333333333</ele><time>2026-04-29T07:32:03.124Z</time></trkpt><trkpt lat="45.0572133" lon="7.7205333"><ele>317.0</ele><time>2026-04-29T07:32:05.125Z</time></trkpt><trkpt lat="45.05718" lon="7.72061"><ele>317.66666666666663</ele><time>2026-04-29T07:32:16.124Z</time></trkpt><trkpt lat="45.0571033" lon="7.720735"><ele>318.3333333333333</ele><time>2026-04-29T07:32:18.124Z</time></trkpt><trkpt lat="45.057065" lon="7.7208083"><ele>319.0</ele><time>2026-04-29T07:32:19.124Z</time></trkpt><trkpt lat="45.05706" lon="7.72093"><ele>319.0</ele><time>2026-04-29T07:32:21.124Z</time></trkpt><trkpt lat="45.057145" lon="7.7209417"><ele>319.0</ele><time>2026-04-29T07:32:23.125Z</time></trkpt><trkpt lat="45.0572033" lon="7.7208833"><ele>319.0</ele><time>2026-04-29T07:32:24.125Z</time></trkpt><trkpt lat="45.05726" lon="7.7208167"><ele>319.0</ele><time>2026-04-29T07:32:25.124Z</time></trkpt><trkpt lat="45.057325" lon="7.7207683"><ele>319.0</ele><time>2026-04-29T07:32:26.124Z</time></trkpt><trkpt lat="45.0573917" lon="7.72076"><ele>319.0</ele><time>2026-04-29T07:32:27.124Z</time></trkpt><trkpt lat="45.0574533" lon="7.7207983"><ele>319.0</ele><time>2026-04-29T07:32:28.124Z</time></trkpt><trkpt lat="45.05752" lon="7.72085"><ele>319.66666666666663</ele><time>2026-04-29T07:32:29.124Z</time></trkpt><trkpt lat="45.057595" lon="7.7209067"><ele>320.3333333333333</ele><time>2026-04-29T07:32:30.124Z</time></trkpt><trkpt lat="45.0576683" lon="7.7209783"><ele>321.0</ele><time>2026-04-29T07:32:31.124Z</time></trkpt><trkpt lat="45.0577417" lon="7.721035"><ele>321.6666666666667</ele><time>2026-04-29T07:32:32.124Z</time></trkpt><trkpt lat="45.057805" lon="7.7211067"><ele>322.33333333333337</ele><time>2026-04-29T07:32:33.124Z</time></trkpt><trkpt lat="45.0578683" lon="7.721195"><ele>323.0</ele><time>2026-04-29T07:32:34.124Z</time></trkpt><trkpt lat="45.05793" lon="7.7213"><ele>324.4</ele><time>2026-04-29T07:32:35.124Z</time></trkpt><trkpt lat="45.0579817" lon="7.7214117"><ele>325.79999999999995</ele><time>2026-04-29T07:32:36.124Z</time></trkpt><trkpt lat="45.05804" lon="7.7215233"><ele>327.2</ele><time>2026-04-29T07:32:37.125Z</time></trkpt><trkpt lat="45.05811" lon="7.7216117"><ele>328.6</ele><time>2026-04-29T07:32:38.124Z</time></trkpt><trkpt lat="45.05818" lon="7.72169"><ele>330.0</ele><time>2026-04-29T07:32:39.124Z</time></trkpt><trkpt lat="45.05825" lon="7.72177"><ele>331.1666666666667</ele><time>2026-04-29T07:32:40.124Z</time></trkpt><trkpt lat="45.0583067" lon="7.721855"><ele>332.3333333333333</ele><time>2026-04-29T07:32:41.124Z</time></trkpt><trkpt lat="45.0583483" lon="7.7219433"><ele>333.5</ele><time>2026-04-29T07:32:42.124Z</time></trkpt><trkpt lat="45.0583483" lon="7.722115"><ele>334.66666666666663</ele><time>2026-04-29T07:32:44.124Z</time></trkpt><trkpt lat="45.0583017" lon="7.7221983"><ele>335.8333333333333</ele><time>2026-04-29T07:32:45.124Z</time></trkpt><trkpt lat="45.0582283" lon="7.7222783"><ele>337.0</ele><time>2026-04-29T07:32:46.124Z</time></trkpt><trkpt lat="45.058145" lon="7.7223633"><ele>338.20000000000005</ele><time>2026-04-29T07:32:47.124Z</time></trkpt><trkpt lat="45.05805" lon="7.7224533"><ele>339.4</ele><time>2026-04-29T07:32:48.125Z</time></trkpt><trkpt lat="45.0579633" lon="7.7225317"><ele>340.6</ele><time>2026-04-29T07:32:49.124Z</time></trkpt><trkpt lat="45.05788" lon="7.7226033"><ele>341.79999999999995</ele><time>2026-04-29T07:32:50.124Z</time></trkpt><trkpt lat="45.0577967" lon="7.722665"><ele>343.0</ele><time>2026-04-29T07:32:51.124Z</time></trkpt><trkpt lat="45.0577083" lon="7.7227233"><ele>345.4</ele><time>2026-04-29T07:32:52.125Z</time></trkpt><trkpt lat="45.0576217" lon="7.7227967"><ele>347.79999999999995</ele><time>2026-04-29T07:32:53.124Z</time></trkpt><trkpt lat="45.057545" lon="7.7228983"><ele>350.2</ele><time>2026-04-29T07:32:54.124Z</time></trkpt><trkpt lat="45.0574717" lon="7.723"><ele>352.6</ele><time>2026-04-29T07:32:55.124Z</time></trkpt><trkpt lat="45.0573967" lon="7.7230933"><ele>355.0</ele><time>2026-04-29T07:32:56.124Z</time></trkpt><trkpt lat="45.0573117" lon="7.7231633"><ele>355.0</ele><time>2026-04-29T07:32:57.125Z</time></trkpt><trkpt lat="45.05722" lon="7.7232133"><ele>355.0</ele><time>2026-04-29T07:32:58.124Z</time></trkpt><trkpt lat="45.0571233" lon="7.7232567"><ele>355.0</ele><time>2026-04-29T07:32:59.124Z</time></trkpt><trkpt lat="45.05703" lon="7.7232933"><ele>355.0</ele><time>2026-04-29T07:33:00.124Z</time></trkpt><trkpt lat="45.056935" lon="7.723335"><ele>355.0</ele><time>2026-04-29T07:33:01.124Z</time></trkpt><trkpt lat="45.0568383" lon="7.7233733"><ele>355.0</ele><time>2026-04-29T07:33:02.125Z</time></trkpt><trkpt lat="45.05674" lon="7.7234117"><ele>355.0</ele><time>2026-04-29T07:33:03.124Z</time></trkpt><trkpt lat="45.0566417" lon="7.7234517"><ele>355.0</ele><time>2026-04-29T07:33:04.125Z</time></trkpt><trkpt lat="45.0565483" lon="7.7234917"><ele>355.0</ele><time>2026-04-29T07:33:05.124Z</time></trkpt><trkpt lat="45.05645" lon="7.7235117"><ele>355.0</ele><time>2026-04-29T07:33:06.124Z</time></trkpt><trkpt lat="45.0563533" lon="7.7235283"><ele>355.0</ele><time>2026-04-29T07:33:07.124Z</time></trkpt><trkpt lat="45.0562533" lon="7.72355"><ele>355.0</ele><time>2026-04-29T07:33:08.124Z</time></trkpt><trkpt lat="45.05616" lon="7.723565"><ele>355.0</ele><time>2026-04-29T07:33:09.124Z</time></trkpt><trkpt lat="45.05608" lon="7.7235833"><ele>355.0</ele><time>2026-04-29T07:33:10.124Z</time></trkpt><trkpt lat="45.0560133" lon="7.7236183"><ele>355.0</ele><time>2026-04-29T07:33:11.124Z</time></trkpt><trkpt lat="45.0559517" lon="7.7237417"><ele>357.6</ele><time>2026-04-29T07:33:13.124Z</time></trkpt><trkpt lat="45.05595" lon="7.723885"><ele>360.2</ele><time>2026-04-29T07:33:15.125Z</time></trkpt><trkpt lat="45.0559967" lon="7.724025"><ele>362.79999999999995</ele><time>2026-04-29T07:33:16.124Z</time></trkpt><trkpt lat="45.0560167" lon="7.7241483"><ele>365.4</ele><time>2026-04-29T07:33:17.124Z</time></trkpt><trkpt lat="45.0560133" lon="7.7242717"><ele>368.0</ele><time>2026-04-29T07:33:18.124Z</time></trkpt><trkpt lat="45.0559917" lon="7.7244033"><ele>368.4</ele><time>2026-04-29T07:33:19.124Z</time></trkpt><trkpt lat="45.0559433" lon="7.72452"><ele>368.79999999999995</ele><time>2026-04-29T07:33:20.125Z</time></trkpt><trkpt lat="45.0558733" lon="7.724625"><ele>369.2</ele><time>2026-04-29T07:33:21.124Z</time></trkpt><trkpt lat="45.0558017" lon="7.72472"><ele>369.6</ele><time>2026-04-29T07:33:22.124Z</time></trkpt><trkpt lat="45.0557283" lon="7.7248133"><ele>370.0</ele><time>2026-04-29T07:33:23.124Z</time></trkpt><trkpt lat="45.055655" lon="7.7249117"><ele>370.0</ele><time>2026-04-29T07:33:24.124Z</time></trkpt><trkpt lat="45.0555783" lon="7.7250033"><ele>370.0</ele><time>2026-04-29T07:33:25.124Z</time></trkpt><trkpt lat="45.0555017" lon="7.7250917"><ele>370.0</ele><time>2026-04-29T07:33:26.124Z</time></trkpt><trkpt lat="45.0554317" lon="7.7251817"><ele>370.0</ele><time>2026-04-29T07:33:27.124Z</time></trkpt><trkpt lat="45.055365" lon="7.72526"><ele>370.0</ele><time>2026-04-29T07:33:28.124Z</time></trkpt><trkpt lat="45.0553167" lon="7.725335"><ele>372.25</ele><time>2026-04-29T07:33:29.124Z</time></trkpt><trkpt lat="45.0552883" lon="7.7254967"><ele>374.5</ele><time>2026-04-29T07:33:31.124Z</time></trkpt><trkpt lat="45.05532" lon="7.7257033"><ele>376.75</ele><time>2026-04-29T07:33:33.124Z</time></trkpt><trkpt lat="45.0553633" lon="7.7258517"><ele>379.0</ele><time>2026-04-29T07:33:34.124Z</time></trkpt><trkpt lat="45.05538" lon="7.7259683"><ele>379.8333333333333</ele><time>2026-04-29T07:33:35.124Z</time></trkpt><trkpt lat="45.0553967" lon="7.7260883"><ele>380.66666666666663</ele><time>2026-04-29T07:33:36.124Z</time></trkpt><trkpt lat="45.0554233" lon="7.726205"><ele>381.5</ele><time>2026-04-29T07:33:37.125Z</time></trkpt><trkpt lat="45.0554567" lon="7.7263117"><ele>382.3333333333333</ele><time>2026-04-29T07:33:38.124Z</time></trkpt><trkpt lat="45.055495" lon="7.7264133"><ele>383.1666666666667</ele><time>2026-04-29T07:33:39.124Z</time></trkpt><trkpt lat="45.05553" lon="7.72652"><ele>384.0</ele><time>2026-04-29T07:33:40.125Z</time></trkpt><trkpt lat="45.0555567" lon="7.7266283"><ele>384.0</ele><time>2026-04-29T07:33:41.124Z</time></trkpt><trkpt lat="45.0555717" lon="7.7267483"><ele>384.0</ele><time>2026-04-29T07:33:42.125Z</time></trkpt><trkpt lat="45.0555633" lon="7.7268717"><ele>384.0</ele><time>2026-04-29T07:33:43.124Z</time></trkpt><trkpt lat="45.0555267" lon="7.72698"><ele>384.0</ele><time>2026-04-29T07:33:44.125Z</time></trkpt><trkpt lat="45.055475" lon="7.72704"><ele>384.0</ele><time>2026-04-29T07:33:45.124Z</time></trkpt><trkpt lat="45.0553333" lon="7.72702"><ele>384.0</ele><time>2026-04-29T07:33:47.124Z</time></trkpt><trkpt lat="45.0552383" lon="7.726975"><ele>384.0</ele><time>2026-04-29T07:33:48.124Z</time></trkpt><trkpt lat="45.0551367" lon="7.72693"><ele>384.0</ele><time>2026-04-29T07:33:49.124Z</time></trkpt><trkpt lat="45.05504" lon="7.7268883"><ele>384.0</ele><time>2026-04-29T07:33:50.125Z</time></trkpt><trkpt lat="45.0549433" lon="7.726865"><ele>384.0</ele><time>2026-04-29T07:33:51.124Z</time></trkpt><trkpt lat="45.0548467" lon="7.7268767"><ele>384.2</ele><time>2026-04-29T07:33:52.124Z</time></trkpt><trkpt lat="45.0547533" lon="7.7269183"><ele>384.4</ele><time>2026-04-29T07:33:53.124Z</time></trkpt><trkpt lat="45.0546767" lon="7.72697"><ele>384.6</ele><time>2026-04-29T07:33:54.124Z</time></trkpt><trkpt lat="45.0545933" lon="7.7270583"><ele>384.8</ele><time>2026-04-29T07:33:55.124Z</time></trkpt><trkpt lat="45.0545267" lon="7.727165"><ele>385.0</ele><time>2026-04-29T07:33:56.124Z</time></trkpt><trkpt lat="45.0544717" lon="7.7272767"><ele>385.0</ele><time>2026-04-29T07:33:57.124Z</time></trkpt><trkpt lat="45.0544167" lon="7.7273933"><ele>385.0</ele><time>2026-04-29T07:33:58.124Z</time></trkpt><trkpt lat="45.0543517" lon="7.727505"><ele>385.0</ele><time>2026-04-29T07:33:59.124Z</time></trkpt><trkpt lat="45.0542833" lon="7.7276"><ele>385.0</ele><time>2026-04-29T07:34:00.124Z</time></trkpt><trkpt lat="45.0542283" lon="7.7277033"><ele>385.0</ele><time>2026-04-29T07:34:01.124Z</time></trkpt><trkpt lat="45.0541917" lon="7.727815"><ele>384.83333333333337</ele><time>2026-04-29T07:34:02.125Z</time></trkpt><trkpt lat="45.0541733" lon="7.7279433"><ele>384.6666666666667</ele><time>2026-04-29T07:34:03.124Z</time></trkpt><trkpt lat="45.054165" lon="7.7280767"><ele>384.5</ele><time>2026-04-29T07:34:04.124Z</time></trkpt><trkpt lat="45.054155" lon="7.7281933"><ele>384.33333333333337</ele><time>2026-04-29T07:34:05.124Z</time></trkpt><trkpt lat="45.0541333" lon="7.7282933"><ele>384.1666666666667</ele><time>2026-04-29T07:34:06.124Z</time></trkpt><trkpt lat="45.0540933" lon="7.7283667"><ele>384.0</ele><time>2026-04-29T07:34:07.124Z</time></trkpt><trkpt lat="45.0540333" lon="7.72842"><ele>384.0</ele><time>2026-04-29T07:34:08.124Z</time></trkpt><trkpt lat="45.053965" lon="7.7284833"><ele>384.0</ele><time>2026-04-29T07:34:09.124Z</time></trkpt><trkpt lat="45.0539" lon="7.7285433"><ele>384.0</ele><time>2026-04-29T07:34:10.124Z</time></trkpt><trkpt lat="45.05384" lon="7.7285917"><ele>384.0</ele><time>2026-04-29T07:34:11.124Z</time></trkpt><trkpt lat="45.053785" lon="7.7286467"><ele>384.0</ele><time>2026-04-29T07:34:12.124Z</time></trkpt><trkpt lat="45.0537383" lon="7.7287883"><ele>384.0</ele><time>2026-04-29T07:34:14.124Z</time></trkpt><trkpt lat="45.053805" lon="7.7289583"><ele>385.1666666666667</ele><time>2026-04-29T07:34:16.124Z</time></trkpt><trkpt lat="45.053865" lon="7.729025"><ele>386.33333333333337</ele><time>2026-04-29T07:34:17.124Z</time></trkpt><trkpt lat="45.0539367" lon="7.7291017"><ele>387.5</ele><time>2026-04-29T07:34:18.124Z</time></trkpt><trkpt lat="45.0540033" lon="7.7291733"><ele>388.6666666666667</ele><time>2026-04-29T07:34:19.124Z</time></trkpt><trkpt lat="45.0540717" lon="7.7292583"><ele>389.83333333333337</ele><time>2026-04-29T07:34:20.124Z</time></trkpt><trkpt lat="45.054145" lon="7.7293367"><ele>391.0</ele><time>2026-04-29T07:34:21.124Z</time></trkpt><trkpt lat="45.054215" lon="7.7294183"><ele>393.00000000000006</ele><time>2026-04-29T07:34:22.124Z</time></trkpt><trkpt lat="45.05428" lon="7.7294983"><ele>395.0</ele><time>2026-04-29T07:34:23.124Z</time></trkpt><trkpt lat="45.0543483" lon="7.7295633"><ele>397.0</ele><time>2026-04-29T07:34:24.124Z</time></trkpt><trkpt lat="45.0544117" lon="7.7296367"><ele>399.0</ele><time>2026-04-29T07:34:25.124Z</time></trkpt><trkpt lat="45.0544833" lon="7.7297167"><ele>401.00000000000006</ele><time>2026-04-29T07:34:26.124Z</time></trkpt><trkpt lat="45.0545517" lon="7.7298017"><ele>403.0</ele><time>2026-04-29T07:34:27.124Z</time></trkpt><trkpt lat="45.05462" lon="7.7298933"><ele>403.00000000000006</ele><time>2026-04-29T07:34:28.124Z</time></trkpt><trkpt lat="45.0546817" lon="7.7299817"><ele>403.0</ele><time>2026-04-29T07:34:29.124Z</time></trkpt><trkpt lat="45.0547417" lon="7.7300733"><ele>403.0</ele><time>2026-04-29T07:34:30.124Z</time></trkpt><trkpt lat="45.0547917" lon="7.730175"><ele>403.0</ele><time>2026-04-29T07:34:31.124Z</time></trkpt><trkpt lat="45.0548283" lon="7.7302867"><ele>403.00000000000006</ele><time>2026-04-29T07:34:32.124Z</time></trkpt><trkpt lat="45.0548567" lon="7.7303983"><ele>403.0</ele><time>2026-04-29T07:34:33.124Z</time></trkpt><trkpt lat="45.05487" lon="7.73053"><ele>405.1666666666667</ele><time>2026-04-29T07:34:34.124Z</time></trkpt><trkpt lat="45.05488" lon="7.7306583"><ele>407.33333333333337</ele><time>2026-04-29T07:34:35.124Z</time></trkpt><trkpt lat="45.054885" lon="7.7307833"><ele>409.5</ele><time>2026-04-29T07:34:36.125Z</time></trkpt><trkpt lat="45.054895" lon="7.7309"><ele>411.66666666666663</ele><time>2026-04-29T07:34:37.124Z</time></trkpt><trkpt lat="45.0549017" lon="7.73101"><ele>413.8333333333333</ele><time>2026-04-29T07:34:38.124Z</time></trkpt><trkpt lat="45.0549167" lon="7.73114"><ele>416.0</ele><time>2026-04-29T07:34:40.124Z</time></trkpt><trkpt lat="45.0549267" lon="7.7312733"><ele>418.16666666666663</ele><time>2026-04-29T07:34:44.124Z</time></trkpt><trkpt lat="45.0548983" lon="7.731385"><ele>420.3333333333333</ele><time>2026-04-29T07:34:46.124Z</time></trkpt><trkpt lat="45.054845" lon="7.7314367"><ele>422.5</ele><time>2026-04-29T07:34:47.124Z</time></trkpt><trkpt lat="45.0547833" lon="7.731495"><ele>424.66666666666663</ele><time>2026-04-29T07:34:48.125Z</time></trkpt><trkpt lat="45.0547133" lon="7.731545"><ele>426.8333333333333</ele><time>2026-04-29T07:34:49.124Z</time></trkpt><trkpt lat="45.0546317" lon="7.7315867"><ele>429.0</ele><time>2026-04-29T07:34:50.124Z</time></trkpt><trkpt lat="45.0545517" lon="7.731625"><ele>429.0</ele><time>2026-04-29T07:34:51.125Z</time></trkpt><trkpt lat="45.05447" lon="7.7316733"><ele>429.0</ele><time>2026-04-29T07:34:52.124Z</time></trkpt><trkpt lat="45.054385" lon="7.7317317"><ele>429.0</ele><time>2026-04-29T07:34:53.124Z</time></trkpt><trkpt lat="45.0543117" lon="7.7317983"><ele>429.0</ele><time>2026-04-29T07:34:54.125Z</time></trkpt><trkpt lat="45.0542283" lon="7.7318533"><ele>429.0</ele><time>2026-04-29T07:34:55.124Z</time></trkpt><trkpt lat="45.05415" lon="7.7319133"><ele>431.79999999999995</ele><time>2026-04-29T07:34:56.124Z</time></trkpt><trkpt lat="45.0540617" lon="7.73197"><ele>434.59999999999997</ele><time>2026-04-29T07:34:57.124Z</time></trkpt><trkpt lat="45.05397" lon="7.7320333"><ele>437.4</ele><time>2026-04-29T07:34:58.124Z</time></trkpt><trkpt lat="45.0538817" lon="7.7320933"><ele>440.2</ele><time>2026-04-29T07:34:59.125Z</time></trkpt><trkpt lat="45.0538" lon="7.7321567"><ele>443.0</ele><time>2026-04-29T07:35:00.124Z</time></trkpt><trkpt lat="45.0537233" lon="7.732225"><ele>443.0</ele><time>2026-04-29T07:35:01.125Z</time></trkpt><trkpt lat="45.0536567" lon="7.732325"><ele>442.99999999999994</ele><time>2026-04-29T07:35:02.124Z</time></trkpt><trkpt lat="45.05359" lon="7.7324317"><ele>442.99999999999994</ele><time>2026-04-29T07:35:03.124Z</time></trkpt><trkpt lat="45.0535283" lon="7.7325417"><ele>443.0</ele><time>2026-04-29T07:35:04.124Z</time></trkpt><trkpt lat="45.0534833" lon="7.7326633"><ele>443.0</ele><time>2026-04-29T07:35:05.124Z</time></trkpt><trkpt lat="45.0534483" lon="7.7327767"><ele>443.0</ele><time>2026-04-29T07:35:06.124Z</time></trkpt><trkpt lat="45.0534167" lon="7.732875"><ele>443.0</ele><time>2026-04-29T07:35:07.124Z</time></trkpt><trkpt lat="45.05337" lon="7.732965"><ele>443.0</ele><time>2026-04-29T07:35:08.124Z</time></trkpt><trkpt lat="45.0533283" lon="7.7330433"><ele>443.0</ele><time>2026-04-29T07:35:09.125Z</time></trkpt><trkpt lat="45.0532683" lon="7.7330967"><ele>443.0</ele><time>2026-04-29T07:35:10.124Z</time></trkpt><trkpt lat="45.0531983" lon="7.733115"><ele>443.0</ele><time>2026-04-29T07:35:11.124Z</time></trkpt><trkpt lat="45.0531183" lon="7.7331367"><ele>443.0</ele><time>2026-04-29T07:35:12.124Z</time></trkpt><trkpt lat="45.0530217" lon="7.73315"><ele>445.2</ele><time>2026-04-29T07:35:13.124Z</time></trkpt><trkpt lat="45.0529283" lon="7.7331767"><ele>447.4</ele><time>2026-04-29T07:35:14.124Z</time></trkpt><trkpt lat="45.052835" lon="7.7332117"><ele>449.59999999999997</ele><time>2026-04-29T07:35:15.124Z</time></trkpt><trkpt lat="45.0527467" lon="7.7332383"><ele>451.79999999999995</ele><time>2026-04-29T07:35:16.124Z</time></trkpt><trkpt lat="45.052645" lon="7.73325"><ele>454.0</ele><time>2026-04-29T07:35:17.124Z</time></trkpt><trkpt lat="45.05255" lon="7.733275"><ele>454.0</ele><time>2026-04-29T07:35:18.124Z</time></trkpt><trkpt lat="45.0524617" lon="7.7333117"><ele>454.0</ele><time>2026-04-29T07:35:19.124Z</time></trkpt><trkpt lat="45.0523833" lon="7.7333733"><ele>454.0</ele><time>2026-04-29T07:35:20.124Z</time></trkpt><trkpt lat="45.052325" lon="7.7334767"><ele>454.0</ele><time>2026-04-29T07:35:21.124Z</time></trkpt><trkpt lat="45.0522733" lon="7.7335867"><ele>454.0</ele><time>2026-04-29T07:35:22.124Z</time></trkpt><trkpt lat="45.0522317" lon="7.7337183"><ele>454.79999999999995</ele><time>2026-04-29T07:35:23.124Z</time></trkpt><trkpt lat="45.0521883" lon="7.7338517"><ele>455.59999999999997</ele><time>2026-04-29T07:35:24.125Z</time></trkpt><trkpt lat="45.0521333" lon="7.7339933"><ele>456.4</ele><time>2026-04-29T07:35:25.124Z</time></trkpt><trkpt lat="45.052075" lon="7.73413"><ele>457.2</ele><time>2026-04-29T07:35:26.125Z</time></trkpt><trkpt lat="45.0520117" lon="7.73426"><ele>458.0</ele><time>2026-04-29T07:35:27.124Z</time></trkpt><trkpt lat="45.0519467" lon="7.7343833"><ele>461.79999999999995</ele><time>2026-04-29T07:35:28.125Z</time></trkpt><trkpt lat="45.0518817" lon="7.7344983"><ele>465.59999999999997</ele><time>2026-04-29T07:35:29.124Z</time></trkpt><trkpt lat="45.0518233" lon="7.7346133"><ele>469.40000000000003</ele><time>2026-04-29T07:35:30.124Z</time></trkpt><trkpt lat="45.05177" lon="7.7347283"><ele>473.20000000000005</ele><time>2026-04-29T07:35:31.124Z</time></trkpt><trkpt lat="45.051725" lon="7.7348333"><ele>477.0</ele><time>2026-04-29T07:35:32.124Z</time></trkpt><trkpt lat="45.05169" lon="7.734935"><ele>477.0</ele><time>2026-04-29T07:35:33.124Z</time></trkpt><trkpt lat="45.0516817" lon="7.7350283"><ele>477.0</ele><time>2026-04-29T07:35:34.125Z</time></trkpt><trkpt lat="45.0516983" lon="7.735125"><ele>477.0</ele><time>2026-04-29T07:35:35.124Z</time></trkpt><trkpt lat="45.0517267" lon="7.73523"><ele>477.0</ele><time>2026-04-29T07:35:36.124Z</time></trkpt><trkpt lat="45.0517617" lon="7.7353217"><ele>477.0</ele><time>2026-04-29T07:35:37.124Z</time></trkpt><trkpt lat="45.0518033" lon="7.7354183"><ele>477.0</ele><time>2026-04-29T07:35:38.124Z</time></trkpt><trkpt lat="45.05184" lon="7.7355233"><ele>479.3333333333333</ele><time>2026-04-29T07:35:39.124Z</time></trkpt><trkpt lat="45.05187" lon="7.735625"><ele>481.66666666666663</ele><time>2026-04-29T07:35:40.124Z</time></trkpt><trkpt lat="45.051905" lon="7.7357917"><ele>484.0</ele><time>2026-04-29T07:35:42.124Z</time></trkpt><trkpt lat="45.05188" lon="7.73591"><ele>486.3333333333333</ele><time>2026-04-29T07:35:44.124Z</time></trkpt><trkpt lat="45.0518033" lon="7.7359467"><ele>488.66666666666663</ele><time>2026-04-29T07:35:46.124Z</time></trkpt><trkpt lat="45.05174" lon="7.7359383"><ele>491.0</ele><time>2026-04-29T07:35:47.124Z</time></trkpt><trkpt lat="45.0516583" lon="7.7359233"><ele>491.49999999999994</ele><time>2026-04-29T07:35:48.124Z</time></trkpt><trkpt lat="45.0515817" lon="7.7359267"><ele>492.0</ele><time>2026-04-29T07:35:49.124Z</time></trkpt><trkpt lat="45.0515033" lon="7.735955"><ele>492.5</ele><time>2026-04-29T07:35:50.124Z</time></trkpt><trkpt lat="45.0514217" lon="7.735975"><ele>493.0</ele><time>2026-04-29T07:35:51.124Z</time></trkpt><trkpt lat="45.0513317" lon="7.736015"><ele>493.49999999999994</ele><time>2026-04-29T07:35:52.124Z</time></trkpt><trkpt lat="45.0512433" lon="7.7360567"><ele>494.0</ele><time>2026-04-29T07:35:53.124Z</time></trkpt><trkpt lat="45.0511483" lon="7.736095"><ele>493.4</ele><time>2026-04-29T07:35:54.124Z</time></trkpt><trkpt lat="45.0510567" lon="7.7361167"><ele>492.79999999999995</ele><time>2026-04-29T07:35:55.124Z</time></trkpt><trkpt lat="45.0509633" lon="7.7361417"><ele>492.20000000000005</ele><time>2026-04-29T07:35:56.124Z</time></trkpt><trkpt lat="45.0508617" lon="7.73615"><ele>491.6</ele><time>2026-04-29T07:35:57.124Z</time></trkpt><trkpt lat="45.0507633" lon="7.7361533"><ele>491.0</ele><time>2026-04-29T07:35:58.124Z</time></trkpt><trkpt lat="45.0506567" lon="7.73615"><ele>490.99999999999994</ele><time>2026-04-29T07:35:59.124Z</time></trkpt><trkpt lat="45.050575" lon="7.7361367"><ele>491.0</ele><time>2026-04-29T07:36:00.125Z</time></trkpt><trkpt lat="45.0505067" lon="7.7361417"><ele>491.0</ele><time>2026-04-29T07:36:01.124Z</time></trkpt><trkpt lat="45.050395" lon="7.73619"><ele>491.0</ele><time>2026-04-29T07:36:03.124Z</time></trkpt><trkpt lat="45.05033" lon="7.7362217"><ele>490.99999999999994</ele><time>2026-04-29T07:36:04.124Z</time></trkpt><trkpt lat="45.05025" lon="7.7362533"><ele>491.0</ele><time>2026-04-29T07:36:05.125Z</time></trkpt><trkpt lat="45.05017" lon="7.7363033"><ele>491.0</ele><time>2026-04-29T07:36:06.125Z</time></trkpt><trkpt lat="45.050085" lon="7.7363433"><ele>491.0</ele><time>2026-04-29T07:36:07.124Z</time></trkpt><trkpt lat="45.0499983" lon="7.7363883"><ele>491.0</ele><time>2026-04-29T07:36:08.124Z</time></trkpt><trkpt lat="45.049905" lon="7.7364233"><ele>491.0</ele><time>2026-04-29T07:36:09.124Z</time></trkpt><trkpt lat="45.0498017" lon="7.736455"><ele>491.0</ele><time>2026-04-29T07:36:10.124Z</time></trkpt><trkpt lat="45.0496933" lon="7.736485"><ele>492.4</ele><time>2026-04-29T07:36:11.124Z</time></trkpt><trkpt lat="45.0495817" lon="7.7365183"><ele>493.8</ele><time>2026-04-29T07:36:12.124Z</time></trkpt><trkpt lat="45.0494717" lon="7.736545"><ele>495.19999999999993</ele><time>2026-04-29T07:36:13.124Z</time></trkpt><trkpt lat="45.0493683" lon="7.7365617"><ele>496.59999999999997</ele><time>2026-04-29T07:36:14.125Z</time></trkpt><trkpt lat="45.0492683" lon="7.7365667"><ele>498.0</ele><time>2026-04-29T07:36:15.124Z</time></trkpt><trkpt lat="45.049165" lon="7.736555"><ele>500.2</ele><time>2026-04-29T07:36:16.124Z</time></trkpt><trkpt lat="45.0490617" lon="7.7365467"><ele>502.4</ele><time>2026-04-29T07:36:17.124Z</time></trkpt><trkpt lat="45.0489617" lon="7.736545"><ele>504.59999999999997</ele><time>2026-04-29T07:36:18.125Z</time></trkpt><trkpt lat="45.0488633" lon="7.73655"><ele>506.79999999999995</ele><time>2026-04-29T07:36:19.124Z</time></trkpt><trkpt lat="45.048765" lon="7.7365567"><ele>509.0</ele><time>2026-04-29T07:36:20.125Z</time></trkpt><trkpt lat="45.0486617" lon="7.7365517"><ele>508.99999999999994</ele><time>2026-04-29T07:36:21.124Z</time></trkpt><trkpt lat="45.04856" lon="7.7365283"><ele>509.0</ele><time>2026-04-29T07:36:22.124Z</time></trkpt><trkpt lat="45.0484667" lon="7.736505"><ele>509.0</ele><time>2026-04-29T07:36:23.124Z</time></trkpt><trkpt lat="45.0483767" lon="7.7364933"><ele>509.0</ele><time>2026-04-29T07:36:24.124Z</time></trkpt><trkpt lat="45.0482983" lon="7.7365017"><ele>508.99999999999994</ele><time>2026-04-29T07:36:25.125Z</time></trkpt><trkpt lat="45.04822" lon="7.7365367"><ele>509.0</ele><time>2026-04-29T07:36:26.124Z</time></trkpt><trkpt lat="45.0481433" lon="7.7366017"><ele>507.79999999999995</ele><time>2026-04-29T07:36:27.124Z</time></trkpt><trkpt lat="45.0480617" lon="7.7366733"><ele>506.59999999999997</ele><time>2026-04-29T07:36:28.124Z</time></trkpt><trkpt lat="45.0479717" lon="7.7367467"><ele>505.4</ele><time>2026-04-29T07:36:29.124Z</time></trkpt><trkpt lat="45.0478767" lon="7.7368117"><ele>504.2</ele><time>2026-04-29T07:36:30.124Z</time></trkpt><trkpt lat="45.04777" lon="7.7368617"><ele>503.0</ele><time>2026-04-29T07:36:31.124Z</time></trkpt><trkpt lat="45.0476567" lon="7.7369033"><ele>506.2</ele><time>2026-04-29T07:36:32.124Z</time></trkpt><trkpt lat="45.047555" lon="7.73693"><ele>509.4</ele><time>2026-04-29T07:36:33.124Z</time></trkpt><trkpt lat="45.04745" lon="7.7369533"><ele>512.5999999999999</ele><time>2026-04-29T07:36:34.124Z</time></trkpt><trkpt lat="45.04736" lon="7.7369733"><ele>515.8</ele><time>2026-04-29T07:36:35.124Z</time></trkpt><trkpt lat="45.0472967" lon="7.7369783"><ele>519.0</ele><time>2026-04-29T07:36:36.124Z</time></trkpt><trkpt lat="45.0472" lon="7.736955"><ele>520.3333333333334</ele><time>2026-04-29T07:36:38.124Z</time></trkpt><trkpt lat="45.047135" lon="7.7369833"><ele>521.6666666666666</ele><time>2026-04-29T07:36:40.124Z</time></trkpt><trkpt lat="45.0471183" lon="7.7370983"><ele>523.0</ele><time>2026-04-29T07:37:02.124Z</time></trkpt><trkpt lat="45.0471" lon="7.73719"><ele>524.3333333333333</ele><time>2026-04-29T07:37:04.124Z</time></trkpt><trkpt lat="45.047055" lon="7.7373033"><ele>525.6666666666666</ele><time>2026-04-29T07:37:06.124Z</time></trkpt><trkpt lat="45.046985" lon="7.7373833"><ele>527.0</ele><time>2026-04-29T07:37:08.124Z</time></trkpt><trkpt lat="45.0469033" lon="7.7374317"><ele>527.0</ele><time>2026-04-29T07:37:10.124Z</time></trkpt><trkpt lat="45.0468367" lon="7.7374917"><ele>527.0</ele><time>2026-04-29T07:37:12.124Z</time></trkpt><trkpt lat="45.04678" lon="7.73759"><ele>527.0</ele><time>2026-04-29T07:37:14.124Z</time></trkpt><trkpt lat="45.046755" lon="7.73772"><ele>527.0</ele><time>2026-04-29T07:37:16.124Z</time></trkpt><trkpt lat="45.046755" lon="7.7378617"><ele>527.0</ele><time>2026-04-29T07:37:18.124Z</time></trkpt><trkpt lat="45.04677" lon="7.7380033"><ele>528.0</ele><time>2026-04-29T07:37:20.124Z</time></trkpt><trkpt lat="45.046765" lon="7.738145"><ele>529.0</ele><time>2026-04-29T07:37:22.124Z</time></trkpt><trkpt lat="45.0467267" lon="7.738285"><ele>530.0</ele><time>2026-04-29T07:37:24.124Z</time></trkpt><trkpt lat="45.046665" lon="7.7384217"><ele>531.0</ele><time>2026-04-29T07:37:26.124Z</time></trkpt><trkpt lat="45.0465917" lon="7.7385417"><ele>532.0</ele><time>2026-04-29T07:37:28.124Z</time></trkpt><trkpt lat="45.046495" lon="7.73865"><ele>532.0</ele><time>2026-04-29T07:37:30.124Z</time></trkpt><trkpt lat="45.0464033" lon="7.738765"><ele>532.0</ele><time>2026-04-29T07:37:32.124Z</time></trkpt><trkpt lat="45.0463083" lon="7.738855"><ele>532.0</ele><time>2026-04-29T07:37:34.124Z</time></trkpt><trkpt lat="45.0462283" lon="7.7389133"><ele>532.0</ele><time>2026-04-29T07:37:36.124Z</time></trkpt><trkpt lat="45.0461567" lon="7.7389583"><ele>532.0</ele><time>2026-04-29T07:37:38.124Z</time></trkpt><trkpt lat="45.0460617" lon="7.7390433"><ele>532.0</ele><time>2026-04-29T07:38:40.124Z</time></trkpt><trkpt lat="45.0459883" lon="7.7391017"><ele>532.0</ele><time>2026-04-29T07:38:42.124Z</time></trkpt><trkpt lat="45.04589" lon="7.7391833"><ele>532.0</ele><time>2026-04-29T07:38:44.124Z</time></trkpt><trkpt lat="45.0457817" lon="7.7392583"><ele>532.0</ele><time>2026-04-29T07:38:46.124Z</time></trkpt><trkpt lat="45.0457183" lon="7.7392933"><ele>532.0</ele><time>2026-04-29T07:38:47.124Z</time></trkpt><trkpt lat="45.0456617" lon="7.7393333"><ele>531.0</ele><time>2026-04-29T07:38:48.124Z</time></trkpt><trkpt lat="45.0455967" lon="7.73937"><ele>530.0</ele><time>2026-04-29T07:38:49.124Z</time></trkpt><trkpt lat="45.0455317" lon="7.7394067"><ele>529.0</ele><time>2026-04-29T07:38:50.124Z</time></trkpt><trkpt lat="45.0454217" lon="7.73948"><ele>528.0</ele><time>2026-04-29T07:38:52.124Z</time></trkpt><trkpt lat="45.0453083" lon="7.7395467"><ele>527.0</ele><time>2026-04-29T07:38:54.124Z</time></trkpt><trkpt lat="45.0452133" lon="7.7396267"><ele>527.0</ele><time>2026-04-29T07:38:56.124Z</time></trkpt><trkpt lat="45.0451467" lon="7.7396783"><ele>527.0</ele><time>2026-04-29T07:38:57.124Z</time></trkpt><trkpt lat="45.04509" lon="7.7397217"><ele>527.0</ele><time>2026-04-29T07:38:58.124Z</time></trkpt><trkpt lat="45.044995" lon="7.7398083"><ele>527.0</ele><time>2026-04-29T07:39:00.124Z</time></trkpt><trkpt lat="45.0449233" lon="7.7398833"><ele>527.0</ele><time>2026-04-29T07:39:02.124Z</time></trkpt><trkpt lat="45.04485" lon="7.739965"><ele>527.0</ele><time>2026-04-29T07:39:04.124Z</time></trkpt><trkpt lat="45.0447933" lon="7.7400883"><ele>528.0</ele><time>2026-04-29T07:39:06.124Z</time></trkpt><trkpt lat="45.0447283" lon="7.7402167"><ele>529.0</ele><time>2026-04-29T07:39:08.124Z</time></trkpt><trkpt lat="45.04468" lon="7.7402817"><ele>530.0</ele><time>2026-04-29T07:39:09.125Z</time></trkpt><trkpt lat="45.0446033" lon="7.740405"><ele>531.0</ele><time>2026-04-29T07:39:11.124Z</time></trkpt><trkpt lat="45.044545" lon="7.7405217"><ele>532.0</ele><time>2026-04-29T07:39:13.124Z</time></trkpt><trkpt lat="45.04449" lon="7.7406383"><ele>532.0</ele><time>2026-04-29T07:39:15.124Z</time></trkpt><trkpt lat="45.044445" lon="7.74074"><ele>532.0</ele><time>2026-04-29T07:39:17.124Z</time></trkpt><trkpt lat="45.04438" lon="7.7408383"><ele>532.0</ele><time>2026-04-29T07:39:19.124Z</time></trkpt><trkpt lat="45.0443217" lon="7.7409133"><ele>532.0</ele><time>2026-04-29T07:39:38.124Z</time></trkpt><trkpt lat="45.04424" lon="7.7409533"><ele>532.0</ele><time>2026-04-29T07:39:40.124Z</time></trkpt><trkpt lat="45.04415" lon="7.7410033"><ele>532.0</ele><time>2026-04-29T07:39:42.124Z</time></trkpt><trkpt lat="45.0440883" lon="7.74105"><ele>532.6666666666667</ele><time>2026-04-29T07:39:44.124Z</time></trkpt><trkpt lat="45.0440067" lon="7.7410867"><ele>533.3333333333334</ele><time>2026-04-29T07:39:47.124Z</time></trkpt><trkpt lat="45.0439233" lon="7.7410983"><ele>534.0</ele><time>2026-04-29T07:39:50.124Z</time></trkpt><trkpt lat="45.0438433" lon="7.7411017"><ele>534.6666666666666</ele><time>2026-04-29T07:39:52.124Z</time></trkpt><trkpt lat="45.04378" lon="7.741095"><ele>535.3333333333333</ele><time>2026-04-29T07:39:54.124Z</time></trkpt><trkpt lat="45.04371" lon="7.7410617"><ele>536.0</ele><time>2026-04-29T07:39:56.124Z</time></trkpt><trkpt lat="45.043645" lon="7.7410117"><ele>536.0</ele><time>2026-04-29T07:39:58.124Z</time></trkpt><trkpt lat="45.0435633" lon="7.7409467"><ele>536.0</ele><time>2026-04-29T07:40:01.124Z</time></trkpt><trkpt lat="45.0434817" lon="7.740895"><ele>536.0</ele><time>2026-04-29T07:40:03.124Z</time></trkpt><trkpt lat="45.04339" lon="7.7408667"><ele>536.0</ele><time>2026-04-29T07:40:05.124Z</time></trkpt><trkpt lat="45.0433167" lon="7.740855"><ele>536.0</ele><time>2026-04-29T07:40:07.124Z</time></trkpt><trkpt lat="45.0432333" lon="7.740835"><ele>536.0</ele><time>2026-04-29T07:40:09.124Z</time></trkpt><trkpt lat="45.0431533" lon="7.7408233"><ele>535.1666666666666</ele><time>2026-04-29T07:40:11.124Z</time></trkpt><trkpt lat="45.0430717" lon="7.7408133"><ele>534.3333333333333</ele><time>2026-04-29T07:40:13.124Z</time></trkpt><trkpt lat="45.0429883" lon="7.7407967"><ele>533.5</ele><time>2026-04-29T07:40:15.124Z</time></trkpt><trkpt lat="45.0429183" lon="7.7407867"><ele>532.6666666666666</ele><time>2026-04-29T07:40:17.124Z</time></trkpt><trkpt lat="45.0428317" lon="7.7407717"><ele>531.8333333333334</ele><time>2026-04-29T07:40:20.124Z</time></trkpt><trkpt lat="45.0427667" lon="7.7407483"><ele>531.0</ele><time>2026-04-29T07:40:22.124Z</time></trkpt><trkpt lat="45.042685" lon="7.740715"><ele>531.0</ele><time>2026-04-29T07:40:24.125Z</time></trkpt><trkpt lat="45.04262" lon="7.7406717"><ele>531.0</ele><time>2026-04-29T07:40:26.124Z</time></trkpt><trkpt lat="45.042575" lon="7.7405917"><ele>531.0</ele><time>2026-04-29T07:40:29.124Z</time></trkpt><trkpt lat="45.0425417" lon="7.7405017"><ele>531.0</ele><time>2026-04-29T07:40:32.124Z</time></trkpt><trkpt lat="45.042545" lon="7.7404067"><ele>531.0</ele><time>2026-04-29T07:40:35.124Z</time></trkpt><trkpt lat="45.0425883" lon="7.740305"><ele>531.0</ele><time>2026-04-29T07:40:40.124Z</time></trkpt><trkpt lat="45.042635" lon="7.7402"><ele>533.1666666666666</ele><time>2026-04-29T07:40:43.124Z</time></trkpt><trkpt lat="45.0426683" lon="7.7400767"><ele>535.3333333333334</ele><time>2026-04-29T07:40:46.124Z</time></trkpt><trkpt lat="45.0426733" lon="7.7399733"><ele>537.5</ele><time>2026-04-29T07:40:48.124Z</time></trkpt><trkpt lat="45.0426767" lon="7.7398383"><ele>539.6666666666667</ele><time>2026-04-29T07:40:51.124Z</time></trkpt><trkpt lat="45.0426783" lon="7.73974"><ele>541.8333333333334</ele><time>2026-04-29T07:40:53.124Z</time></trkpt><trkpt lat="45.0426717" lon="7.7396233"><ele>544.0</ele><time>2026-04-29T07:40:56.124Z</time></trkpt><trkpt lat="45.0426417" lon="7.739525"><ele>543.9999999999999</ele><time>2026-04-29T07:40:59.124Z</time></trkpt><trkpt lat="45.042595" lon="7.73946"><ele>544.0</ele><time>2026-04-29T07:41:01.124Z</time></trkpt><trkpt lat="45.0425483" lon="7.7394"><ele>544.0</ele><time>2026-04-29T07:41:03.124Z</time></trkpt><trkpt lat="45.0424867" lon="7.7393133"><ele>544.0</ele><time>2026-04-29T07:41:06.125Z</time></trkpt><trkpt lat="45.042425" lon="7.73925"><ele>544.0</ele><time>2026-04-29T07:41:09.124Z</time></trkpt><trkpt lat="45.04236" lon="7.7391917"><ele>543.9999999999999</ele><time>2026-04-29T07:41:12.124Z</time></trkpt><trkpt lat="45.04228" lon="7.7391983"><ele>544.0</ele><time>2026-04-29T07:41:15.124Z</time></trkpt><trkpt lat="45.0421983" lon="7.739235"><ele>545.3333333333334</ele><time>2026-04-29T07:41:18.124Z</time></trkpt><trkpt lat="45.0421283" lon="7.7392667"><ele>546.6666666666667</ele><time>2026-04-29T07:41:20.124Z</time></trkpt><trkpt lat="45.0420483" lon="7.73929"><ele>548.0</ele><time>2026-04-29T07:41:22.124Z</time></trkpt><trkpt lat="45.041985" lon="7.739325"><ele>549.3333333333334</ele><time>2026-04-29T07:41:24.124Z</time></trkpt><trkpt lat="45.0419017" lon="7.7393583"><ele>550.6666666666666</ele><time>2026-04-29T07:41:27.124Z</time></trkpt><trkpt lat="45.041825" lon="7.7394"><ele>552.0</ele><time>2026-04-29T07:41:30.124Z</time></trkpt><trkpt lat="45.04178" lon="7.7394633"><ele>552.0</ele><time>2026-04-29T07:41:32.124Z</time></trkpt><trkpt lat="45.0416833" lon="7.7395383"><ele>552.0</ele><time>2026-04-29T07:41:34.124Z</time></trkpt><trkpt lat="45.041605" lon="7.739595"><ele>552.0</ele><time>2026-04-29T07:41:36.124Z</time></trkpt><trkpt lat="45.041545" lon="7.7396333"><ele>552.0</ele><time>2026-04-29T07:41:38.124Z</time></trkpt><trkpt lat="45.041465" lon="7.73965"><ele>552.0</ele><time>2026-04-29T07:41:41.124Z</time></trkpt><trkpt lat="45.0413667" lon="7.7396283"><ele>552.0</ele><time>2026-04-29T07:41:44.124Z</time></trkpt><trkpt lat="45.0412867" lon="7.739625"><ele>553.5714285714286</ele><time>2026-04-29T07:41:46.124Z</time></trkpt><trkpt lat="45.0412083" lon="7.739645"><ele>555.1428571428572</ele><time>2026-04-29T07:41:48.124Z</time></trkpt><trkpt lat="45.0411367" lon="7.7396833"><ele>556.7142857142858</ele><time>2026-04-29T07:41:50.124Z</time></trkpt><trkpt lat="45.04109" lon="7.7397783"><ele>558.2857142857143</ele><time>2026-04-29T07:41:53.124Z</time></trkpt><trkpt lat="45.0410467" lon="7.7398483"><ele>559.8571428571429</ele><time>2026-04-29T07:41:56.124Z</time></trkpt><trkpt lat="45.0409883" lon="7.7398933"><ele>561.4285714285714</ele><time>2026-04-29T07:41:59.125Z</time></trkpt><trkpt lat="45.04092" lon="7.7399083"><ele>563.0</ele><time>2026-04-29T07:42:02.124Z</time></trkpt><trkpt lat="45.0408533" lon="7.7399183"><ele>563.5</ele><time>2026-04-29T07:42:04.124Z</time></trkpt><trkpt lat="45.0407783" lon="7.7399267"><ele>564.0</ele><time>2026-04-29T07:42:06.124Z</time></trkpt><trkpt lat="45.0407067" lon="7.73996"><ele>564.5</ele><time>2026-04-29T07:42:08.124Z</time></trkpt><trkpt lat="45.0406233" lon="7.7399867"><ele>565.0</ele><time>2026-04-29T07:42:11.124Z</time></trkpt><trkpt lat="45.0405333" lon="7.7400033"><ele>565.5</ele><time>2026-04-29T07:42:14.124Z</time></trkpt><trkpt lat="45.0404533" lon="7.7400083"><ele>566.0</ele><time>2026-04-29T07:42:17.124Z</time></trkpt><trkpt lat="45.04037" lon="7.7399967"><ele>566.0</ele><time>2026-04-29T07:42:20.124Z</time></trkpt><trkpt lat="45.0403" lon="7.7399933"><ele>566.0</ele><time>2026-04-29T07:42:32.124Z</time></trkpt><trkpt lat="45.0401833" lon="7.7400733"><ele>566.0</ele><time>2026-04-29T07:42:38.124Z</time></trkpt><trkpt lat="45.0401" lon="7.7401183"><ele>566.0</ele><time>2026-04-29T07:42:40.125Z</time></trkpt><trkpt lat="45.0400217" lon="7.740175"><ele>566.0</ele><time>2026-04-29T07:42:42.125Z</time></trkpt><trkpt lat="45.0399467" lon="7.74021"><ele>568.8571428571429</ele><time>2026-04-29T07:42:44.124Z</time></trkpt><trkpt lat="45.0398833" lon="7.740275"><ele>571.7142857142858</ele><time>2026-04-29T07:42:46.124Z</time></trkpt><trkpt lat="45.0398317" lon="7.7403533"><ele>574.5714285714286</ele><time>2026-04-29T07:42:48.124Z</time></trkpt><trkpt lat="45.0398033" lon="7.740455"><ele>577.4285714285714</ele><time>2026-04-29T07:42:50.124Z</time></trkpt><trkpt lat="45.039765" lon="7.74054"><ele>580.2857142857142</ele><time>2026-04-29T07:42:53.124Z</time></trkpt><trkpt lat="45.0397083" lon="7.7406017"><ele>583.1428571428571</ele><time>2026-04-29T07:42:56.124Z</time></trkpt><trkpt lat="45.03966" lon="7.74068"><ele>586.0</ele><time>2026-04-29T07:43:00.124Z</time></trkpt><trkpt lat="45.0396033" lon="7.74078"><ele>585.9999999999999</ele><time>2026-04-29T07:43:04.124Z</time></trkpt><trkpt lat="45.039585" lon="7.7408867"><ele>586.0</ele><time>2026-04-29T07:43:07.124Z</time></trkpt><trkpt lat="45.0395483" lon="7.740985"><ele>586.0</ele><time>2026-04-29T07:43:10.124Z</time></trkpt><trkpt lat="45.03951" lon="7.7410667"><ele>586.0</ele><time>2026-04-29T07:43:12.124Z</time></trkpt><trkpt lat="45.03947" lon="7.7411833"><ele>586.0</ele><time>2026-04-29T07:43:15.124Z</time></trkpt><trkpt lat="45.03945" lon="7.7412717"><ele>585.9999999999999</ele><time>2026-04-29T07:43:17.124Z</time></trkpt><trkpt lat="45.039415" lon="7.7413483"><ele>586.0</ele><time>2026-04-29T07:43:19.124Z</time></trkpt><trkpt lat="45.039365" lon="7.74146"><ele>585.5</ele><time>2026-04-29T07:43:22.124Z</time></trkpt><trkpt lat="45.0393017" lon="7.7415483"><ele>585.0</ele><time>2026-04-29T07:43:25.124Z</time></trkpt><trkpt lat="45.0392533" lon="7.741655"><ele>584.5</ele><time>2026-04-29T07:44:13.124Z</time></trkpt><trkpt lat="45.0392067" lon="7.74172"><ele>584.0</ele><time>2026-04-29T07:44:15.125Z</time></trkpt><trkpt lat="45.03915" lon="7.7417883"><ele>583.5</ele><time>2026-04-29T07:44:17.124Z</time></trkpt><trkpt lat="45.0390867" lon="7.741865"><ele>583.0</ele><time>2026-04-29T07:44:20.124Z</time></trkpt><trkpt lat="45.03903" lon="7.7419417"><ele>581.8333333333334</ele><time>2026-04-29T07:44:23.124Z</time></trkpt><trkpt lat="45.03898" lon="7.742015"><ele>580.6666666666667</ele><time>2026-04-29T07:44:26.124Z</time></trkpt><trkpt lat="45.0388967" lon="7.7421"><ele>579.5</ele><time>2026-04-29T07:44:29.124Z</time></trkpt><trkpt lat="45.038845" lon="7.7421667"><ele>578.3333333333334</ele><time>2026-04-29T07:44:31.125Z</time></trkpt><trkpt lat="45.0387917" lon="7.7422383"><ele>577.1666666666666</ele><time>2026-04-29T07:44:33.124Z</time></trkpt><trkpt lat="45.03872" lon="7.7423233"><ele>576.0</ele><time>2026-04-29T07:44:36.124Z</time></trkpt><trkpt lat="45.0386567" lon="7.7424"><ele>576.0000000000001</ele><time>2026-04-29T07:44:39.124Z</time></trkpt><trkpt lat="45.0385917" lon="7.74245"><ele>576.0</ele><time>2026-04-29T07:44:42.124Z</time></trkpt><trkpt lat="45.0385217" lon="7.7424733"><ele>576.0</ele><time>2026-04-29T07:44:45.124Z</time></trkpt><trkpt lat="45.03846" lon="7.742505"><ele>576.0</ele><time>2026-04-29T07:44:47.125Z</time></trkpt><trkpt lat="45.0384083" lon="7.7425633"><ele>576.0</ele><time>2026-04-29T07:44:49.124Z</time></trkpt><trkpt lat="45.0383417" lon="7.7426567"><ele>576.0000000000001</ele><time>2026-04-29T07:44:52.124Z</time></trkpt><trkpt lat="45.03829" lon="7.742715"><ele>576.0</ele><time>2026-04-29T07:44:54.124Z</time></trkpt><trkpt lat="45.03824" lon="7.7427833"><ele>573.8333333333334</ele><time>2026-04-29T07:44:56.124Z</time></trkpt><trkpt lat="45.0381717" lon="7.7428567"><ele>571.6666666666666</ele><time>2026-04-29T07:44:58.124Z</time></trkpt><trkpt lat="45.03808" lon="7.742925"><ele>569.5</ele><time>2026-04-29T07:45:07.124Z</time></trkpt><trkpt lat="45.0380333" lon="7.7429917"><ele>567.3333333333333</ele><time>2026-04-29T07:45:08.124Z</time></trkpt><trkpt lat="45.0379833" lon="7.743075"><ele>565.1666666666666</ele><time>2026-04-29T07:45:09.124Z</time></trkpt><trkpt lat="45.037945" lon="7.7431783"><ele>563.0</ele><time>2026-04-29T07:45:10.124Z</time></trkpt><trkpt lat="45.0379133" lon="7.7433067"><ele>563.0</ele><time>2026-04-29T07:45:11.124Z</time></trkpt><trkpt lat="45.037875" lon="7.74345"><ele>563.0</ele><time>2026-04-29T07:45:12.124Z</time></trkpt><trkpt lat="45.0378333" lon="7.743595"><ele>563.0</ele><time>2026-04-29T07:45:13.124Z</time></trkpt><trkpt lat="45.0377917" lon="7.7437433"><ele>563.0</ele><time>2026-04-29T07:45:14.124Z</time></trkpt><trkpt lat="45.0377467" lon="7.7438983"><ele>562.25</ele><time>2026-04-29T07:45:15.125Z</time></trkpt><trkpt lat="45.0376967" lon="7.7440617"><ele>561.5</ele><time>2026-04-29T07:45:16.124Z</time></trkpt><trkpt lat="45.0376433" lon="7.7442283"><ele>560.75</ele><time>2026-04-29T07:45:17.124Z</time></trkpt><trkpt lat="45.0375933" lon="7.7443883"><ele>560.0</ele><time>2026-04-29T07:45:18.125Z</time></trkpt><trkpt lat="45.0375517" lon="7.7445233"><ele>559.5</ele><time>2026-04-29T07:45:19.124Z</time></trkpt><trkpt lat="45.0375133" lon="7.7446317"><ele>559.0</ele><time>2026-04-29T07:45:20.124Z</time></trkpt><trkpt lat="45.0374617" lon="7.7447517"><ele>558.5</ele><time>2026-04-29T07:45:22.124Z</time></trkpt><trkpt lat="45.0374683" lon="7.7448567"><ele>558.0</ele><time>2026-04-29T07:45:41.125Z</time></trkpt><trkpt lat="45.0375317" lon="7.74483"><ele>557.5</ele><time>2026-04-29T07:45:47.124Z</time></trkpt><trkpt lat="45.03759" lon="7.744795"><ele>557.0</ele><time>2026-04-29T07:45:50.124Z</time></trkpt><trkpt lat="45.0376517" lon="7.744755"><ele>557.0</ele><time>2026-04-29T07:45:53.124Z</time></trkpt><trkpt lat="45.0377" lon="7.7446783"><ele>557.0</ele><time>2026-04-29T07:45:56.124Z</time></trkpt><trkpt lat="45.03777" lon="7.744615"><ele>557.0</ele><time>2026-04-29T07:45:59.124Z</time></trkpt><trkpt lat="45.03784" lon="7.7445667"><ele>557.0</ele><time>2026-04-29T07:46:02.124Z</time></trkpt><trkpt lat="45.037905" lon="7.744515"><ele>557.0</ele><time>2026-04-29T07:46:06.124Z</time></trkpt><trkpt lat="45.0379717" lon="7.7444783"><ele>557.0</ele><time>2026-04-29T07:46:11.124Z</time></trkpt><trkpt lat="45.0380533" lon="7.7444367"><ele>557.0</ele><time>2026-04-29T07:46:15.124Z</time></trkpt><trkpt lat="45.0381133" lon="7.7444017"><ele>557.0</ele><time>2026-04-29T07:46:18.125Z</time></trkpt><trkpt lat="45.038185" lon="7.7443683"><ele>557.0</ele><time>2026-04-29T07:46:22.124Z</time></trkpt><trkpt lat="45.0382933" lon="7.7443167"><ele>557.0</ele><time>2026-04-29T07:46:36.125Z</time></trkpt><trkpt lat="45.0384117" lon="7.7443183"><ele>557.0</ele><time>2026-04-29T07:46:45.124Z</time></trkpt><trkpt lat="45.0385317" lon="7.744285"><ele>555.8000000000001</ele><time>2026-04-29T07:46:58.125Z</time></trkpt><trkpt lat="45.0385983" lon="7.7442267"><ele>554.6</ele><time>2026-04-29T07:47:03.124Z</time></trkpt><trkpt lat="45.0387367" lon="7.7440517"><ele>553.4000000000001</ele><time>2026-04-29T07:47:17.124Z</time></trkpt><trkpt lat="45.0387883" lon="7.7439567"><ele>552.2</ele><time>2026-04-29T07:47:24.125Z</time></trkpt><trkpt lat="45.0388717" lon="7.7438817"><ele>551.0</ele><time>2026-04-29T07:47:31.124Z</time></trkpt><trkpt lat="45.03895" lon="7.7437533"><ele>551.0</ele><time>2026-04-29T07:48:10.124Z</time></trkpt><trkpt lat="45.0390017" lon="7.74368"><ele>551.0</ele><time>2026-04-29T07:48:18.124Z</time></trkpt><trkpt lat="45.0391117" lon="7.7434933"><ele>551.0</ele><time>2026-04-29T07:49:07.124Z</time></trkpt><trkpt lat="45.039165" lon="7.7434233"><ele>551.0</ele><time>2026-04-29T07:49:12.124Z</time></trkpt><trkpt lat="45.0392083" lon="7.7433367"><ele>551.0</ele><time>2026-04-29T07:49:18.125Z</time></trkpt><trkpt lat="45.0393067" lon="7.7432533"><ele>548.3333333333333</ele><time>2026-04-29T07:49:30.125Z</time></trkpt><trkpt lat="45.0393667" lon="7.743205"><ele>545.6666666666666</ele><time>2026-04-29T07:49:33.125Z</time></trkpt><trkpt lat="45.0394367" lon="7.7431533"><ele>543.0</ele><time>2026-04-29T07:49:37.125Z</time></trkpt><trkpt lat="45.0394917" lon="7.743075"><ele>540.3333333333334</ele><time>2026-04-29T07:49:40.124Z</time></trkpt><trkpt lat="45.0395517" lon="7.7430167"><ele>537.6666666666667</ele><time>2026-04-29T07:49:43.124Z</time></trkpt><trkpt lat="45.0396267" lon="7.7429617"><ele>535.0</ele><time>2026-04-29T07:49:46.124Z</time></trkpt><trkpt lat="45.039605" lon="7.7430633"><ele>535.0</ele><time>2026-04-29T07:49:56.124Z</time></trkpt><trkpt lat="45.0395883" lon="7.743165"><ele>535.0</ele><time>2026-04-29T07:49:59.124Z</time></trkpt><trkpt lat="45.0395733" lon="7.7432583"><ele>535.0</ele><time>2026-04-29T07:50:01.124Z</time></trkpt><trkpt lat="45.0395417" lon="7.743355"><ele>535.0</ele><time>2026-04-29T07:50:04.124Z</time></trkpt><trkpt lat="45.0394933" lon="7.74344"><ele>535.0</ele><time>2026-04-29T07:50:07.124Z</time></trkpt><trkpt lat="45.0394683" lon="7.7435617"><ele>535.0</ele><time>2026-04-29T07:50:10.124Z</time></trkpt><trkpt lat="45.0394683" lon="7.7436533"><ele>535.0</ele><time>2026-04-29T07:50:12.124Z</time></trkpt><trkpt lat="45.0394717" lon="7.7437733"><ele>532.5</ele><time>2026-04-29T07:50:15.124Z</time></trkpt><trkpt lat="45.0394467" lon="7.7439033"><ele>530.0</ele><time>2026-04-29T07:50:26.125Z</time></trkpt><trkpt lat="45.0394367" lon="7.744035"><ele>527.5</ele><time>2026-04-29T07:50:28.124Z</time></trkpt><trkpt lat="45.0394367" lon="7.7441283"><ele>525.0</ele><time>2026-04-29T07:50:30.125Z</time></trkpt><trkpt lat="45.0394417" lon="7.7442417"><ele>522.5</ele><time>2026-04-29T07:50:34.124Z</time></trkpt><trkpt lat="45.0394167" lon="7.7443467"><ele>520.0</ele><time>2026-04-29T07:50:37.124Z</time></trkpt><trkpt lat="45.0393617" lon="7.744485"><ele>518.3333333333334</ele><time>2026-04-29T07:50:44.124Z</time></trkpt><trkpt lat="45.0393133" lon="7.7445617"><ele>516.6666666666667</ele><time>2026-04-29T07:50:48.125Z</time></trkpt><trkpt lat="45.03925" lon="7.7446167"><ele>515.0</ele><time>2026-04-29T07:50:52.124Z</time></trkpt><trkpt lat="45.0391883" lon="7.7447017"><ele>513.3333333333334</ele><time>2026-04-29T07:50:56.124Z</time></trkpt><trkpt lat="45.0391317" lon="7.7447733"><ele>511.6666666666667</ele><time>2026-04-29T07:50:59.124Z</time></trkpt><trkpt lat="45.0390783" lon="7.744845"><ele>510.0</ele><time>2026-04-29T07:51:01.124Z</time></trkpt><trkpt lat="45.0390317" lon="7.7449283"><ele>511.8333333333333</ele><time>2026-04-29T07:51:03.124Z</time></trkpt><trkpt lat="45.038995" lon="7.7450083"><ele>513.6666666666666</ele><time>2026-04-29T07:51:05.124Z</time></trkpt><trkpt lat="45.038955" lon="7.7451183"><ele>515.5</ele><time>2026-04-29T07:51:08.124Z</time></trkpt><trkpt lat="45.0389233" lon="7.74521"><ele>517.3333333333333</ele><time>2026-04-29T07:51:16.124Z</time></trkpt><trkpt lat="45.038895" lon="7.745305"><ele>519.1666666666666</ele><time>2026-04-29T07:51:19.125Z</time></trkpt><trkpt lat="45.0388233" lon="7.7454133"><ele>521.0</ele><time>2026-04-29T07:51:24.125Z</time></trkpt><trkpt lat="45.0387533" lon="7.7454683"><ele>521.0</ele><time>2026-04-29T07:51:28.124Z</time></trkpt><trkpt lat="45.0386833" lon="7.745505"><ele>521.0</ele><time>2026-04-29T07:51:32.124Z</time></trkpt><trkpt lat="45.0386217" lon="7.7455283"><ele>521.0</ele><time>2026-04-29T07:51:35.124Z</time></trkpt><trkpt lat="45.038535" lon="7.74554"><ele>521.0</ele><time>2026-04-29T07:51:39.124Z</time></trkpt><trkpt lat="45.03847" lon="7.74555"><ele>521.0</ele><time>2026-04-29T07:51:41.124Z</time></trkpt><trkpt lat="45.0384083" lon="7.7455767"><ele>521.0</ele><time>2026-04-29T07:51:43.124Z</time></trkpt><trkpt lat="45.0383517" lon="7.745635"><ele>521.0</ele><time>2026-04-29T07:51:46.124Z</time></trkpt><trkpt lat="45.0382967" lon="7.7457"><ele>528.0</ele><time>2026-04-29T07:51:50.124Z</time></trkpt><trkpt lat="45.03823" lon="7.74577"><ele>535.0</ele><time>2026-04-29T07:51:54.124Z</time></trkpt><trkpt lat="45.0381333" lon="7.7459233"><ele>542.0</ele><time>2026-04-29T07:52:17.124Z</time></trkpt><trkpt lat="45.0380883" lon="7.7460017"><ele>549.0</ele><time>2026-04-29T07:52:19.124Z</time></trkpt><trkpt lat="45.03799" lon="7.746215"><ele>549.0</ele><time>2026-04-29T07:52:42.124Z</time></trkpt><trkpt lat="45.0379667" lon="7.7463867"><ele>549.0</ele><time>2026-04-29T07:52:56.124Z</time></trkpt><trkpt lat="45.038005" lon="7.7464867"><ele>549.0</ele><time>2026-04-29T07:52:59.124Z</time></trkpt><trkpt lat="45.0380483" lon="7.7465817"><ele>549.0</ele><time>2026-04-29T07:53:53.124Z</time></trkpt><trkpt lat="45.038045" lon="7.7466967"><ele>549.0</ele><time>2026-04-29T07:53:58.124Z</time></trkpt><trkpt lat="45.0380267" lon="7.7467967"><ele>549.0</ele><time>2026-04-29T07:54:02.124Z</time></trkpt><trkpt lat="45.0379933" lon="7.7468867"><ele>547.0</ele><time>2026-04-29T07:54:07.124Z</time></trkpt><trkpt lat="45.03786" lon="7.74706"><ele>545.0</ele><time>2026-04-29T07:54:22.124Z</time></trkpt><trkpt lat="45.037805" lon="7.7471183"><ele>543.0</ele><time>2026-04-29T07:54:29.125Z</time></trkpt><trkpt lat="45.0376883" lon="7.7472067"><ele>541.0</ele><time>2026-04-29T07:55:39.125Z</time></trkpt><trkpt lat="45.0376283" lon="7.7472433"><ele>539.0</ele><time>2026-04-29T07:55:43.124Z</time></trkpt><trkpt lat="45.0375833" lon="7.7474"><ele>539.0</ele><time>2026-04-29T07:56:00.125Z</time></trkpt><trkpt lat="45.0375367" lon="7.74755"><ele>539.0</ele><time>2026-04-29T07:56:11.124Z</time></trkpt><trkpt lat="45.0374733" lon="7.7475917"><ele>539.0</ele><time>2026-04-29T07:56:18.124Z</time></trkpt><trkpt lat="45.037405" lon="7.74761"><ele>539.0</ele><time>2026-04-29T07:56:21.124Z</time></trkpt><trkpt lat="45.037325" lon="7.74764"><ele>539.0</ele><time>2026-04-29T07:56:24.124Z</time></trkpt><trkpt lat="45.0372567" lon="7.7476917"><ele>539.0</ele><time>2026-04-29T07:56:28.124Z</time></trkpt><trkpt lat="45.037205" lon="7.7477717"><ele>539.6666666666666</ele><time>2026-04-29T07:56:32.124Z</time></trkpt><trkpt lat="45.0371483" lon="7.7478433"><ele>540.3333333333333</ele><time>2026-04-29T07:56:35.125Z</time></trkpt><trkpt lat="45.037085" lon="7.7479133"><ele>541.0</ele><time>2026-04-29T07:56:38.124Z</time></trkpt><trkpt lat="45.037025" lon="7.7479783"><ele>541.6666666666666</ele><time>2026-04-29T07:56:42.124Z</time></trkpt><trkpt lat="45.03697" lon="7.7480733"><ele>542.3333333333334</ele><time>2026-04-29T07:56:51.124Z</time></trkpt><trkpt lat="45.03696" lon="7.7481717"><ele>543.0</ele><time>2026-04-29T07:56:55.124Z</time></trkpt><trkpt lat="45.0369733" lon="7.7482717"><ele>543.0</ele><time>2026-04-29T07:56:59.124Z</time></trkpt><trkpt lat="45.03699" lon="7.7483633"><ele>543.0</ele><time>2026-04-29T07:57:03.124Z</time></trkpt><trkpt lat="45.0370333" lon="7.7484467"><ele>543.0</ele><time>2026-04-29T07:57:07.124Z</time></trkpt><trkpt lat="45.0371567" lon="7.7484067"><ele>543.0</ele><time>2026-04-29T07:57:21.124Z</time></trkpt><trkpt lat="45.0372183" lon="7.748325"><ele>543.0</ele><time>2026-04-29T07:57:27.124Z</time></trkpt><trkpt lat="45.037335" lon="7.7483667"><ele>543.0</ele><time>2026-04-29T07:57:45.125Z</time></trkpt><trkpt lat="45.0374183" lon="7.7484883"><ele>543.0</ele><time>2026-04-29T07:58:00.124Z</time></trkpt><trkpt lat="45.0375" lon="7.748615"><ele>543.0</ele><time>2026-04-29T07:59:55.125Z</time></trkpt><trkpt lat="45.0376017" lon="7.7486067"><ele>543.0</ele><time>2026-04-29T08:00:19.124Z</time></trkpt><trkpt lat="45.0377433" lon="7.748635"><ele>535.0</ele><time>2026-04-29T08:00:33.124Z</time></trkpt><trkpt lat="45.0378467" lon="7.748665"><ele>527.0</ele><time>2026-04-29T08:00:52.124Z</time></trkpt><trkpt lat="45.0380017" lon="7.7486383"><ele>519.0</ele><time>2026-04-29T08:01:07.125Z</time></trkpt><trkpt lat="45.03809" lon="7.7486"><ele>511.0</ele><time>2026-04-29T08:01:17.124Z</time></trkpt><trkpt lat="45.0381367" lon="7.7487367"><ele>511.0</ele><time>2026-04-29T08:02:03.124Z</time></trkpt><trkpt lat="45.03812" lon="7.74885"><ele>511.0</ele><time>2026-04-29T08:02:07.125Z</time></trkpt><trkpt lat="45.0380567" lon="7.7490133"><ele>511.0</ele><time>2026-04-29T08:02:42.124Z</time></trkpt><trkpt lat="45.0379867" lon="7.74919"><ele>511.0</ele><time>2026-04-29T08:02:49.124Z</time></trkpt><trkpt lat="45.0379583" lon="7.7492717"><ele>511.0</ele><time>2026-04-29T08:02:51.124Z</time></trkpt><trkpt lat="45.037915" lon="7.7494217"><ele>510.8571428571429</ele><time>2026-04-29T08:02:59.125Z</time></trkpt><trkpt lat="45.0379017" lon="7.749535"><ele>510.7142857142857</ele><time>2026-04-29T08:03:02.124Z</time></trkpt><trkpt lat="45.0378883" lon="7.7496333"><ele>510.57142857142856</ele><time>2026-04-29T08:03:05.124Z</time></trkpt><trkpt lat="45.0378767" lon="7.7497317"><ele>510.42857142857144</ele><time>2026-04-29T08:03:08.124Z</time></trkpt><trkpt lat="45.0378517" lon="7.7498217"><ele>510.28571428571433</ele><time>2026-04-29T08:03:11.124Z</time></trkpt><trkpt lat="45.03781" lon="7.7499067"><ele>510.14285714285717</ele><time>2026-04-29T08:03:14.124Z</time></trkpt><trkpt lat="45.037765" lon="7.7499733"><ele>510.0</ele><time>2026-04-29T08:03:16.124Z</time></trkpt><trkpt lat="45.0377117" lon="7.75006"><ele>510.0</ele><time>2026-04-29T08:03:19.124Z</time></trkpt><trkpt lat="45.037665" lon="7.750135"><ele>510.0</ele><time>2026-04-29T08:03:22.124Z</time></trkpt><trkpt lat="45.0376233" lon="7.7502817"><ele>510.0</ele><time>2026-04-29T08:03:42.124Z</time></trkpt><trkpt lat="45.0376517" lon="7.7503783"><ele>510.0</ele><time>2026-04-29T08:03:47.124Z</time></trkpt><trkpt lat="45.0376517" lon="7.7504733"><ele>510.0</ele><time>2026-04-29T08:03:58.124Z</time></trkpt><trkpt lat="45.03766" lon="7.7505633"><ele>510.0</ele><time>2026-04-29T08:04:01.124Z</time></trkpt><trkpt lat="45.0376883" lon="7.7506767"><ele>508.8333333333333</ele><time>2026-04-29T08:04:04.124Z</time></trkpt><trkpt lat="45.0377067" lon="7.7507633"><ele>507.66666666666663</ele><time>2026-04-29T08:04:07.125Z</time></trkpt><trkpt lat="45.0376783" lon="7.750845"><ele>506.5</ele><time>2026-04-29T08:04:17.124Z</time></trkpt><trkpt lat="45.03765" lon="7.750985"><ele>505.3333333333333</ele><time>2026-04-29T08:05:12.124Z</time></trkpt><trkpt lat="45.0376117" lon="7.751095"><ele>504.16666666666663</ele><time>2026-04-29T08:05:16.124Z</time></trkpt><trkpt lat="45.03759" lon="7.7512033"><ele>503.0</ele><time>2026-04-29T08:05:20.124Z</time></trkpt><trkpt lat="45.037555" lon="7.7512933"><ele>503.0</ele><time>2026-04-29T08:05:23.124Z</time></trkpt><trkpt lat="45.0374967" lon="7.7513633"><ele>503.00000000000006</ele><time>2026-04-29T08:05:26.124Z</time></trkpt><trkpt lat="45.0374417" lon="7.751425"><ele>503.0</ele><time>2026-04-29T08:05:30.124Z</time></trkpt><trkpt lat="45.0373783" lon="7.7514767"><ele>503.0</ele><time>2026-04-29T08:05:34.124Z</time></trkpt><trkpt lat="45.037335" lon="7.7515533"><ele>503.00000000000006</ele><time>2026-04-29T08:05:38.124Z</time></trkpt><trkpt lat="45.0373" lon="7.751665"><ele>503.0</ele><time>2026-04-29T08:05:41.124Z</time></trkpt><trkpt lat="45.0372567" lon="7.75173"><ele>503.0</ele><time>2026-04-29T08:05:43.125Z</time></trkpt><trkpt lat="45.0372167" lon="7.7518067"><ele>506.99999999999994</ele><time>2026-04-29T08:05:46.124Z</time></trkpt><trkpt lat="45.0371433" lon="7.75186"><ele>511.0</ele><time>2026-04-29T08:05:57.125Z</time></trkpt><trkpt lat="45.0370783" lon="7.7519033"><ele>515.0</ele><time>2026-04-29T08:06:07.124Z</time></trkpt><trkpt lat="45.0370183" lon="7.7519917"><ele>519.0</ele><time>2026-04-29T08:06:11.124Z</time></trkpt><trkpt lat="45.0369817" lon="7.75211"><ele>523.0</ele><time>2026-04-29T08:06:14.124Z</time></trkpt><trkpt lat="45.0369517" lon="7.7521917"><ele>527.0</ele><time>2026-04-29T08:06:16.124Z</time></trkpt><trkpt lat="45.03695" lon="7.752295"><ele>527.4</ele><time>2026-04-29T08:06:19.124Z</time></trkpt><trkpt lat="45.0369467" lon="7.7524133"><ele>527.8000000000001</ele><time>2026-04-29T08:06:23.124Z</time></trkpt><trkpt lat="45.0369667" lon="7.7524983"><ele>528.2</ele><time>2026-04-29T08:06:26.124Z</time></trkpt><trkpt lat="45.0369733" lon="7.752605"><ele>528.6</ele><time>2026-04-29T08:06:30.124Z</time></trkpt><trkpt lat="45.03694" lon="7.75282"><ele>529.0</ele><time>2026-04-29T08:06:39.124Z</time></trkpt><trkpt lat="45.0369367" lon="7.753025"><ele>529.0</ele><time>2026-04-29T08:06:57.124Z</time></trkpt><trkpt lat="45.0368767" lon="7.7532283"><ele>529.0</ele><time>2026-04-29T08:07:15.124Z</time></trkpt><trkpt lat="45.0368483" lon="7.7534533"><ele>529.0</ele><time>2026-04-29T08:07:23.124Z</time></trkpt><trkpt lat="45.0368333" lon="7.7536067"><ele>529.0</ele><time>2026-04-29T08:07:32.124Z</time></trkpt><trkpt lat="45.0368667" lon="7.7537233"><ele>528.8333333333334</ele><time>2026-04-29T08:07:35.124Z</time></trkpt><trkpt lat="45.03689" lon="7.7538067"><ele>528.6666666666667</ele><time>2026-04-29T08:07:37.124Z</time></trkpt><trkpt lat="45.0369333" lon="7.7539433"><ele>528.5</ele><time>2026-04-29T08:07:53.124Z</time></trkpt><trkpt lat="45.0369667" lon="7.754055"><ele>528.3333333333334</ele><time>2026-04-29T08:08:00.124Z</time></trkpt><trkpt lat="45.0370067" lon="7.7541417"><ele>528.1666666666666</ele><time>2026-04-29T08:08:02.124Z</time></trkpt><trkpt lat="45.0370917" lon="7.7542183"><ele>528.0</ele><time>2026-04-29T08:08:04.124Z</time></trkpt><trkpt lat="45.0371533" lon="7.7542567"><ele>528.0</ele><time>2026-04-29T08:08:05.124Z</time></trkpt><trkpt lat="45.03722" lon="7.75429"><ele>528.0</ele><time>2026-04-29T08:08:06.124Z</time></trkpt><trkpt lat="45.0372867" lon="7.7543167"><ele>528.0</ele><time>2026-04-29T08:08:07.125Z</time></trkpt><trkpt lat="45.0373583" lon="7.75435"><ele>528.0</ele><time>2026-04-29T08:08:08.124Z</time></trkpt><trkpt lat="45.0374233" lon="7.7543967"><ele>528.0</ele><time>2026-04-29T08:08:09.125Z</time></trkpt><trkpt lat="45.0374883" lon="7.75443"><ele>528.0</ele><time>2026-04-29T08:08:10.124Z</time></trkpt><trkpt lat="45.03755" lon="7.754465"><ele>528.0</ele><time>2026-04-29T08:08:11.125Z</time></trkpt><trkpt lat="45.0376283" lon="7.7545333"><ele>527.5</ele><time>2026-04-29T08:08:13.124Z</time></trkpt><trkpt lat="45.0376967" lon="7.7545817"><ele>527.0</ele><time>2026-04-29T08:08:15.125Z</time></trkpt><trkpt lat="45.03777" lon="7.7546183"><ele>526.5</ele><time>2026-04-29T08:08:17.124Z</time></trkpt><trkpt lat="45.037875" lon="7.7546617"><ele>526.0</ele><time>2026-04-29T08:08:19.124Z</time></trkpt><trkpt lat="45.037945" lon="7.7546933"><ele>525.5</ele><time>2026-04-29T08:08:21.124Z</time></trkpt><trkpt lat="45.038015" lon="7.7547567"><ele>525.0</ele><time>2026-04-29T08:08:52.124Z</time></trkpt><trkpt lat="45.0380917" lon="7.7549083"><ele>525.0</ele><time>2026-04-29T08:09:13.124Z</time></trkpt><trkpt lat="45.0381267" lon="7.7550017"><ele>525.0</ele><time>2026-04-29T08:09:16.124Z</time></trkpt><trkpt lat="45.0381633" lon="7.7551033"><ele>525.0</ele><time>2026-04-29T08:09:27.124Z</time></trkpt><trkpt lat="45.0381933" lon="7.7552067"><ele>525.0</ele><time>2026-04-29T08:09:30.124Z</time></trkpt><trkpt lat="45.0382283" lon="7.7553067"><ele>525.0</ele><time>2026-04-29T08:09:34.124Z</time></trkpt><trkpt lat="45.03827" lon="7.7553967"><ele>525.0</ele><time>2026-04-29T08:09:37.125Z</time></trkpt><trkpt lat="45.0383067" lon="7.75547"><ele>527.1666666666666</ele><time>2026-04-29T08:09:40.124Z</time></trkpt><trkpt lat="45.0383367" lon="7.7555683"><ele>529.3333333333334</ele><time>2026-04-29T08:09:43.124Z</time></trkpt><trkpt lat="45.0383633" lon="7.7556683"><ele>531.5</ele><time>2026-04-29T08:09:46.124Z</time></trkpt><trkpt lat="45.038415" lon="7.7557283"><ele>533.6666666666667</ele><time>2026-04-29T08:09:49.124Z</time></trkpt><trkpt lat="45.0384883" lon="7.7557767"><ele>535.8333333333334</ele><time>2026-04-29T08:09:52.124Z</time></trkpt><trkpt lat="45.0385583" lon="7.7558267"><ele>538.0</ele><time>2026-04-29T08:09:56.124Z</time></trkpt><trkpt lat="45.0385883" lon="7.755925"><ele>538.0</ele><time>2026-04-29T08:10:00.124Z</time></trkpt><trkpt lat="45.0386283" lon="7.7560733"><ele>538.0</ele><time>2026-04-29T08:10:06.124Z</time></trkpt><trkpt lat="45.0386633" lon="7.7561883"><ele>538.0</ele><time>2026-04-29T08:11:10.124Z</time></trkpt><trkpt lat="45.0387317" lon="7.75621"><ele>538.0</ele><time>2026-04-29T08:16:09.124Z</time></trkpt><trkpt lat="45.0387017" lon="7.75611"><ele>538.0</ele><time>2026-04-29T08:16:13.124Z</time></trkpt><trkpt lat="45.03869" lon="7.7560167"><ele>538.0</ele><time>2026-04-29T08:16:16.124Z</time></trkpt><trkpt lat="45.0387783" lon="7.7559867"><ele>538.3333333333334</ele><time>2026-04-29T08:16:39.124Z</time></trkpt><trkpt lat="45.038825" lon="7.7560567"><ele>538.6666666666667</ele><time>2026-04-29T08:16:43.124Z</time></trkpt><trkpt lat="45.03889" lon="7.7561"><ele>539.0</ele><time>2026-04-29T08:16:47.124Z</time></trkpt><trkpt lat="45.03895" lon="7.75616"><ele>539.3333333333334</ele><time>2026-04-29T08:16:50.124Z</time></trkpt><trkpt lat="45.039025" lon="7.7562433"><ele>539.6666666666666</ele><time>2026-04-29T08:16:53.124Z</time></trkpt><trkpt lat="45.0390883" lon="7.75632"><ele>540.0</ele><time>2026-04-29T08:16:56.124Z</time></trkpt><trkpt lat="45.0391533" lon="7.75642"><ele>542.6666666666666</ele><time>2026-04-29T08:16:59.124Z</time></trkpt><trkpt lat="45.0392017" lon="7.7564883"><ele>545.3333333333334</ele><time>2026-04-29T08:17:01.124Z</time></trkpt><trkpt lat="45.039265" lon="7.7565833"><ele>548.0</ele><time>2026-04-29T08:17:04.124Z</time></trkpt><trkpt lat="45.0393183" lon="7.756675"><ele>550.6666666666667</ele><time>2026-04-29T08:17:07.125Z</time></trkpt><trkpt lat="45.03934" lon="7.7567717"><ele>553.3333333333334</ele><time>2026-04-29T08:17:10.124Z</time></trkpt><trkpt lat="45.0393217" lon="7.7568667"><ele>556.0</ele><time>2026-04-29T08:17:13.124Z</time></trkpt><trkpt lat="45.0392717" lon="7.7569433"><ele>556.1666666666667</ele><time>2026-04-29T08:17:17.124Z</time></trkpt><trkpt lat="45.0392233" lon="7.7570167"><ele>556.3333333333334</ele><time>2026-04-29T08:17:20.124Z</time></trkpt><trkpt lat="45.039195" lon="7.7571083"><ele>556.5</ele><time>2026-04-29T08:17:23.124Z</time></trkpt><trkpt lat="45.0391683" lon="7.75722"><ele>556.6666666666666</ele><time>2026-04-29T08:17:27.124Z</time></trkpt><trkpt lat="45.0391283" lon="7.7573117"><ele>556.8333333333333</ele><time>2026-04-29T08:17:31.124Z</time></trkpt><trkpt lat="45.0390767" lon="7.757405"><ele>557.0</ele><time>2026-04-29T08:17:35.124Z</time></trkpt><trkpt lat="45.03903" lon="7.757495"><ele>556.0</ele><time>2026-04-29T08:17:39.124Z</time></trkpt><trkpt lat="45.03899" lon="7.7575667"><ele>555.0</ele><time>2026-04-29T08:17:42.124Z</time></trkpt><trkpt lat="45.038935" lon="7.75764"><ele>554.0</ele><time>2026-04-29T08:17:45.124Z</time></trkpt><trkpt lat="45.0388683" lon="7.757725"><ele>553.0</ele><time>2026-04-29T08:17:48.124Z</time></trkpt><trkpt lat="45.0388067" lon="7.7578133"><ele>552.0</ele><time>2026-04-29T08:17:51.124Z</time></trkpt><trkpt lat="45.03875" lon="7.7579167"><ele>551.0</ele><time>2026-04-29T08:17:54.124Z</time></trkpt><trkpt lat="45.0387117" lon="7.7579967"><ele>554.3333333333333</ele><time>2026-04-29T08:17:56.124Z</time></trkpt><trkpt lat="45.0386933" lon="7.7580967"><ele>557.6666666666666</ele><time>2026-04-29T08:17:58.124Z</time></trkpt><trkpt lat="45.038675" lon="7.758225"><ele>561.0</ele><time>2026-04-29T08:18:01.124Z</time></trkpt><trkpt lat="45.0386733" lon="7.7583483"><ele>564.3333333333334</ele><time>2026-04-29T08:18:04.124Z</time></trkpt><trkpt lat="45.0386567" lon="7.7584683"><ele>567.6666666666667</ele><time>2026-04-29T08:18:07.124Z</time></trkpt><trkpt lat="45.0386433" lon="7.7585617"><ele>571.0</ele><time>2026-04-29T08:18:10.124Z</time></trkpt><trkpt lat="45.0386167" lon="7.7586433"><ele>573.3333333333334</ele><time>2026-04-29T08:18:13.124Z</time></trkpt><trkpt lat="45.0385867" lon="7.7587683"><ele>575.6666666666667</ele><time>2026-04-29T08:18:18.124Z</time></trkpt><trkpt lat="45.038585" lon="7.7589033"><ele>578.0</ele><time>2026-04-29T08:18:21.124Z</time></trkpt><trkpt lat="45.0385917" lon="7.758995"><ele>580.3333333333334</ele><time>2026-04-29T08:18:23.124Z</time></trkpt><trkpt lat="45.0386233" lon="7.759085"><ele>582.6666666666666</ele><time>2026-04-29T08:18:25.124Z</time></trkpt><trkpt lat="45.0386583" lon="7.7591717"><ele>585.0</ele><time>2026-04-29T08:18:27.124Z</time></trkpt><trkpt lat="45.0387083" lon="7.7592683"><ele>585.0</ele><time>2026-04-29T08:18:29.124Z</time></trkpt><trkpt lat="45.03876" lon="7.759335"><ele>585.0</ele><time>2026-04-29T08:18:31.125Z</time></trkpt><trkpt lat="45.0388217" lon="7.7594"><ele>585.0</ele><time>2026-04-29T08:18:33.125Z</time></trkpt><trkpt lat="45.0388767" lon="7.7594767"><ele>585.0</ele><time>2026-04-29T08:18:35.125Z</time></trkpt><trkpt lat="45.0389333" lon="7.75957"><ele>585.0</ele><time>2026-04-29T08:18:37.124Z</time></trkpt><trkpt lat="45.0389767" lon="7.7596483"><ele>585.0</ele><time>2026-04-29T08:18:39.124Z</time></trkpt><trkpt lat="45.03902" lon="7.7597517"><ele>585.0</ele><time>2026-04-29T08:18:41.124Z</time></trkpt><trkpt lat="45.0390567" lon="7.75985"><ele>585.0</ele><time>2026-04-29T08:18:43.124Z</time></trkpt><trkpt lat="45.0391133" lon="7.7599417"><ele>585.0</ele><time>2026-04-29T08:18:46.125Z</time></trkpt><trkpt lat="45.03917" lon="7.76005"><ele>585.0</ele><time>2026-04-29T08:18:49.125Z</time></trkpt><trkpt lat="45.0392167" lon="7.7601133"><ele>585.0</ele><time>2026-04-29T08:18:51.125Z</time></trkpt><trkpt lat="45.0392883" lon="7.7601967"><ele>585.0</ele><time>2026-04-29T08:18:54.124Z</time></trkpt><trkpt lat="45.0393533" lon="7.7602867"><ele>585.0</ele><time>2026-04-29T08:18:57.124Z</time></trkpt><trkpt lat="45.0394067" lon="7.7603517"><ele>585.0</ele><time>2026-04-29T08:18:59.124Z</time></trkpt><trkpt lat="45.0394833" lon="7.760405"><ele>585.0</ele><time>2026-04-29T08:19:02.124Z</time></trkpt><trkpt lat="45.03956" lon="7.7604517"><ele>585.0</ele><time>2026-04-29T08:19:05.125Z</time></trkpt><trkpt lat="45.0396267" lon="7.7605167"><ele>585.0</ele><time>2026-04-29T08:19:08.124Z</time></trkpt><trkpt lat="45.0396817" lon="7.760585"><ele>585.0</ele><time>2026-04-29T08:19:10.124Z</time></trkpt><trkpt lat="45.039755" lon="7.76063"><ele>585.0</ele><time>2026-04-29T08:19:12.125Z</time></trkpt><trkpt lat="45.0398217" lon="7.76066"><ele>585.0</ele><time>2026-04-29T08:19:14.125Z</time></trkpt><trkpt lat="45.0398883" lon="7.7606933"><ele>585.0</ele><time>2026-04-29T08:19:16.125Z</time></trkpt><trkpt lat="45.0399633" lon="7.7607333"><ele>585.0</ele><time>2026-04-29T08:19:18.124Z</time></trkpt><trkpt lat="45.0400267" lon="7.7607633"><ele>585.0</ele><time>2026-04-29T08:19:20.124Z</time></trkpt><trkpt lat="45.0400983" lon="7.7608"><ele>585.0</ele><time>2026-04-29T08:19:23.124Z</time></trkpt><trkpt lat="45.0401717" lon="7.76081"><ele>585.0</ele><time>2026-04-29T08:19:26.124Z</time></trkpt><trkpt lat="45.0402433" lon="7.7608033"><ele>584.2857142857143</ele><time>2026-04-29T08:19:28.124Z</time></trkpt><trkpt lat="45.0403083" lon="7.7608"><ele>583.5714285714286</ele><time>2026-04-29T08:19:30.124Z</time></trkpt><trkpt lat="45.0403733" lon="7.76081"><ele>582.8571428571429</ele><time>2026-04-29T08:19:32.124Z</time></trkpt><trkpt lat="45.0404533" lon="7.7608083"><ele>582.1428571428571</ele><time>2026-04-29T08:19:34.124Z</time></trkpt><trkpt lat="45.0405317" lon="7.76082"><ele>581.4285714285714</ele><time>2026-04-29T08:19:36.125Z</time></trkpt><trkpt lat="45.0406067" lon="7.7608167"><ele>580.7142857142858</ele><time>2026-04-29T08:19:38.124Z</time></trkpt><trkpt lat="45.0406883" lon="7.7608183"><ele>580.0</ele><time>2026-04-29T08:19:40.124Z</time></trkpt><trkpt lat="45.04076" lon="7.760835"><ele>579.0</ele><time>2026-04-29T08:19:42.124Z</time></trkpt><trkpt lat="45.0408267" lon="7.7608517"><ele>578.0</ele><time>2026-04-29T08:19:44.125Z</time></trkpt><trkpt lat="45.0409083" lon="7.7608767"><ele>577.0</ele><time>2026-04-29T08:19:47.125Z</time></trkpt><trkpt lat="45.0409783" lon="7.76092"><ele>576.0</ele><time>2026-04-29T08:19:49.124Z</time></trkpt><trkpt lat="45.0410433" lon="7.7610167"><ele>575.0</ele><time>2026-04-29T08:19:52.124Z</time></trkpt><trkpt lat="45.041075" lon="7.761095"><ele>574.0</ele><time>2026-04-29T08:19:54.124Z</time></trkpt><trkpt lat="45.0411" lon="7.761215"><ele>576.0</ele><time>2026-04-29T08:20:01.124Z</time></trkpt><trkpt lat="45.0411283" lon="7.7612967"><ele>578.0</ele><time>2026-04-29T08:20:04.125Z</time></trkpt><trkpt lat="45.04115" lon="7.7613983"><ele>580.0</ele><time>2026-04-29T08:20:07.124Z</time></trkpt><trkpt lat="45.0411583" lon="7.7614933"><ele>582.0</ele><time>2026-04-29T08:20:10.124Z</time></trkpt><trkpt lat="45.04115" lon="7.7615833"><ele>584.0</ele><time>2026-04-29T08:20:14.124Z</time></trkpt><trkpt lat="45.0411267" lon="7.7616767"><ele>586.0</ele><time>2026-04-29T08:20:17.125Z</time></trkpt><trkpt lat="45.0411217" lon="7.7617833"><ele>588.0</ele><time>2026-04-29T08:20:20.124Z</time></trkpt><trkpt lat="45.0411533" lon="7.7618983"><ele>590.1666666666666</ele><time>2026-04-29T08:20:23.125Z</time></trkpt><trkpt lat="45.0411933" lon="7.7620033"><ele>592.3333333333334</ele><time>2026-04-29T08:20:27.124Z</time></trkpt><trkpt lat="45.04124" lon="7.7621017"><ele>594.5</ele><time>2026-04-29T08:20:30.124Z</time></trkpt><trkpt lat="45.0412883" lon="7.7621783"><ele>596.6666666666667</ele><time>2026-04-29T08:20:33.125Z</time></trkpt><trkpt lat="45.0413483" lon="7.7622267"><ele>598.8333333333334</ele><time>2026-04-29T08:20:36.124Z</time></trkpt><trkpt lat="45.0414217" lon="7.7622933"><ele>601.0</ele><time>2026-04-29T08:20:39.124Z</time></trkpt><trkpt lat="45.0415117" lon="7.7623617"><ele>601.0</ele><time>2026-04-29T08:27:11.124Z</time></trkpt><trkpt lat="45.041455" lon="7.7622933"><ele>601.0</ele><time>2026-04-29T08:27:16.124Z</time></trkpt><trkpt lat="45.0413983" lon="7.76222"><ele>601.0</ele><time>2026-04-29T08:27:19.124Z</time></trkpt><trkpt lat="45.0413417" lon="7.7621633"><ele>601.0</ele><time>2026-04-29T08:27:21.124Z</time></trkpt><trkpt lat="45.0412533" lon="7.7620967"><ele>601.0</ele><time>2026-04-29T08:27:23.124Z</time></trkpt><trkpt lat="45.041185" lon="7.762035"><ele>601.0</ele><time>2026-04-29T08:27:26.124Z</time></trkpt><trkpt lat="45.0411567" lon="7.76193"><ele>598.8333333333334</ele><time>2026-04-29T08:27:30.124Z</time></trkpt><trkpt lat="45.0411667" lon="7.7617983"><ele>596.6666666666667</ele><time>2026-04-29T08:27:34.124Z</time></trkpt><trkpt lat="45.0411883" lon="7.7616883"><ele>594.5</ele><time>2026-04-29T08:27:37.124Z</time></trkpt><trkpt lat="45.0411833" lon="7.76156"><ele>592.3333333333334</ele><time>2026-04-29T08:27:40.124Z</time></trkpt><trkpt lat="45.0411633" lon="7.761465"><ele>590.1666666666666</ele><time>2026-04-29T08:27:42.124Z</time></trkpt><trkpt lat="45.0411367" lon="7.7613667"><ele>588.0</ele><time>2026-04-29T08:27:44.124Z</time></trkpt><trkpt lat="45.041115" lon="7.76126"><ele>588.0</ele><time>2026-04-29T08:27:47.125Z</time></trkpt><trkpt lat="45.0410867" lon="7.7611467"><ele>588.0</ele><time>2026-04-29T08:30:21.124Z</time></trkpt><trkpt lat="45.0410733" lon="7.7610433"><ele>588.0</ele><time>2026-04-29T08:30:24.124Z</time></trkpt><trkpt lat="45.0410383" lon="7.7609633"><ele>588.0</ele><time>2026-04-29T08:30:27.124Z</time></trkpt><trkpt lat="45.04099" lon="7.7608933"><ele>588.0</ele><time>2026-04-29T08:30:30.124Z</time></trkpt><trkpt lat="45.04093" lon="7.7608617"><ele>588.0</ele><time>2026-04-29T08:30:34.124Z</time></trkpt><trkpt lat="45.0408567" lon="7.7608167"><ele>588.0</ele><time>2026-04-29T08:30:41.124Z</time></trkpt><trkpt lat="45.040775" lon="7.7608267"><ele>586.6666666666666</ele><time>2026-04-29T08:30:45.124Z</time></trkpt><trkpt lat="45.0407" lon="7.7608217"><ele>585.3333333333334</ele><time>2026-04-29T08:30:48.124Z</time></trkpt><trkpt lat="45.0406367" lon="7.7608133"><ele>584.0</ele><time>2026-04-29T08:30:50.124Z</time></trkpt><trkpt lat="45.040545" lon="7.76079"><ele>582.6666666666667</ele><time>2026-04-29T08:30:53.124Z</time></trkpt><trkpt lat="45.040455" lon="7.7608033"><ele>581.3333333333334</ele><time>2026-04-29T08:30:56.124Z</time></trkpt><trkpt lat="45.0403767" lon="7.760795"><ele>580.0</ele><time>2026-04-29T08:30:58.125Z</time></trkpt><trkpt lat="45.0403117" lon="7.7607883"><ele>580.0</ele><time>2026-04-29T08:31:00.124Z</time></trkpt><trkpt lat="45.0402433" lon="7.76078"><ele>580.0</ele><time>2026-04-29T08:31:02.124Z</time></trkpt><trkpt lat="45.0401783" lon="7.76078"><ele>580.0</ele><time>2026-04-29T08:31:04.124Z</time></trkpt><trkpt lat="45.0401133" lon="7.76077"><ele>580.0</ele><time>2026-04-29T08:31:06.124Z</time></trkpt><trkpt lat="45.0400433" lon="7.7607567"><ele>580.0</ele><time>2026-04-29T08:31:08.124Z</time></trkpt><trkpt lat="45.0399583" lon="7.7607333"><ele>580.0</ele><time>2026-04-29T08:31:10.125Z</time></trkpt><trkpt lat="45.0398717" lon="7.7607167"><ele>580.0</ele><time>2026-04-29T08:31:12.124Z</time></trkpt><trkpt lat="45.0397983" lon="7.76069"><ele>580.8333333333334</ele><time>2026-04-29T08:31:14.124Z</time></trkpt><trkpt lat="45.03973" lon="7.76065"><ele>581.6666666666667</ele><time>2026-04-29T08:31:16.124Z</time></trkpt><trkpt lat="45.0396667" lon="7.760625"><ele>582.5</ele><time>2026-04-29T08:31:18.124Z</time></trkpt><trkpt lat="45.0395883" lon="7.7605683"><ele>583.3333333333334</ele><time>2026-04-29T08:31:21.124Z</time></trkpt><trkpt lat="45.0395267" lon="7.7604883"><ele>584.1666666666666</ele><time>2026-04-29T08:31:24.124Z</time></trkpt><trkpt lat="45.039465" lon="7.7603917"><ele>585.0</ele><time>2026-04-29T08:31:27.125Z</time></trkpt><trkpt lat="45.0393917" lon="7.7602867"><ele>586.2</ele><time>2026-04-29T08:31:30.125Z</time></trkpt><trkpt lat="45.0393217" lon="7.7601633"><ele>587.4</ele><time>2026-04-29T08:31:32.124Z</time></trkpt><trkpt lat="45.039255" lon="7.76008"><ele>588.6</ele><time>2026-04-29T08:31:33.124Z</time></trkpt><trkpt lat="45.03918" lon="7.7599933"><ele>589.8</ele><time>2026-04-29T08:31:35.125Z</time></trkpt><trkpt lat="45.03911" lon="7.7598917"><ele>591.0</ele><time>2026-04-29T08:31:37.124Z</time></trkpt><trkpt lat="45.039075" lon="7.7598"><ele>591.0</ele><time>2026-04-29T08:31:39.124Z</time></trkpt><trkpt lat="45.03902" lon="7.7597033"><ele>591.0</ele><time>2026-04-29T08:31:41.124Z</time></trkpt><trkpt lat="45.03897" lon="7.75961"><ele>591.0</ele><time>2026-04-29T08:31:43.124Z</time></trkpt><trkpt lat="45.0388983" lon="7.75952"><ele>591.0</ele><time>2026-04-29T08:31:45.124Z</time></trkpt><trkpt lat="45.0388183" lon="7.7594217"><ele>591.0</ele><time>2026-04-29T08:31:47.124Z</time></trkpt><trkpt lat="45.038735" lon="7.759335"><ele>590.0</ele><time>2026-04-29T08:31:49.124Z</time></trkpt><trkpt lat="45.0386683" lon="7.7592633"><ele>589.0</ele><time>2026-04-29T08:31:51.124Z</time></trkpt><trkpt lat="45.0386333" lon="7.759185"><ele>588.0</ele><time>2026-04-29T08:31:53.124Z</time></trkpt><trkpt lat="45.038615" lon="7.75907"><ele>587.0</ele><time>2026-04-29T08:31:56.124Z</time></trkpt><trkpt lat="45.0386033" lon="7.7589717"><ele>586.0</ele><time>2026-04-29T08:31:59.124Z</time></trkpt><trkpt lat="45.0386083" lon="7.7587983"><ele>585.0</ele><time>2026-04-29T08:32:07.124Z</time></trkpt><trkpt lat="45.0386167" lon="7.758675"><ele>585.0</ele><time>2026-04-29T08:32:10.125Z</time></trkpt><trkpt lat="45.03863" lon="7.7585833"><ele>585.0</ele><time>2026-04-29T08:32:12.124Z</time></trkpt><trkpt lat="45.0386383" lon="7.7584733"><ele>585.0</ele><time>2026-04-29T08:32:14.124Z</time></trkpt><trkpt lat="45.0386433" lon="7.758365"><ele>585.0</ele><time>2026-04-29T08:32:16.124Z</time></trkpt><trkpt lat="45.0386533" lon="7.7582767"><ele>585.0</ele><time>2026-04-29T08:32:18.125Z</time></trkpt><trkpt lat="45.03866" lon="7.758175"><ele>585.0</ele><time>2026-04-29T08:32:21.124Z</time></trkpt><trkpt lat="45.038695" lon="7.75807"><ele>585.0</ele><time>2026-04-29T08:32:24.124Z</time></trkpt><trkpt lat="45.0387383" lon="7.7579917"><ele>582.6666666666666</ele><time>2026-04-29T08:32:26.124Z</time></trkpt><trkpt lat="45.038795" lon="7.7579067"><ele>580.3333333333334</ele><time>2026-04-29T08:32:28.124Z</time></trkpt><trkpt lat="45.038855" lon="7.7578067"><ele>578.0</ele><time>2026-04-29T08:32:30.124Z</time></trkpt><trkpt lat="45.03891" lon="7.7577067"><ele>575.6666666666667</ele><time>2026-04-29T08:32:32.124Z</time></trkpt><trkpt lat="45.0389517" lon="7.75763"><ele>573.3333333333334</ele><time>2026-04-29T08:32:34.124Z</time></trkpt><trkpt lat="45.0390183" lon="7.757525"><ele>571.0</ele><time>2026-04-29T08:32:36.124Z</time></trkpt><trkpt lat="45.0390717" lon="7.75745"><ele>568.6666666666667</ele><time>2026-04-29T08:32:38.124Z</time></trkpt><trkpt lat="45.039115" lon="7.757355"><ele>566.3333333333334</ele><time>2026-04-29T08:32:41.124Z</time></trkpt><trkpt lat="45.03914" lon="7.7572567"><ele>564.0</ele><time>2026-04-29T08:32:43.124Z</time></trkpt><trkpt lat="45.0391717" lon="7.7571633"><ele>561.6666666666666</ele><time>2026-04-29T08:32:45.125Z</time></trkpt><trkpt lat="45.0392333" lon="7.7570767"><ele>559.3333333333333</ele><time>2026-04-29T08:32:47.124Z</time></trkpt><trkpt lat="45.03928" lon="7.7569983"><ele>557.0</ele><time>2026-04-29T08:32:49.124Z</time></trkpt><trkpt lat="45.039305" lon="7.7568933"><ele>556.8571428571429</ele><time>2026-04-29T08:32:52.124Z</time></trkpt><trkpt lat="45.0392867" lon="7.75679"><ele>556.7142857142857</ele><time>2026-04-29T08:32:55.125Z</time></trkpt><trkpt lat="45.0392517" lon="7.7566883"><ele>556.5714285714286</ele><time>2026-04-29T08:32:58.124Z</time></trkpt><trkpt lat="45.0392233" lon="7.756605"><ele>556.4285714285714</ele><time>2026-04-29T08:33:01.125Z</time></trkpt><trkpt lat="45.0391783" lon="7.7565333"><ele>556.2857142857143</ele><time>2026-04-29T08:33:05.124Z</time></trkpt><trkpt lat="45.0391317" lon="7.7564367"><ele>556.1428571428571</ele><time>2026-04-29T08:33:09.124Z</time></trkpt><trkpt lat="45.03909" lon="7.756345"><ele>556.0</ele><time>2026-04-29T08:33:13.124Z</time></trkpt><trkpt lat="45.0390183" lon="7.7562267"><ele>552.8</ele><time>2026-04-29T08:33:17.124Z</time></trkpt><trkpt lat="45.0389583" lon="7.7561717"><ele>549.6</ele><time>2026-04-29T08:33:19.125Z</time></trkpt><trkpt lat="45.038885" lon="7.7561033"><ele>546.4</ele><time>2026-04-29T08:33:23.124Z</time></trkpt><trkpt lat="45.0388083" lon="7.756025"><ele>543.2</ele><time>2026-04-29T08:33:27.124Z</time></trkpt><trkpt lat="45.0387167" lon="7.755945"><ele>540.0</ele><time>2026-04-29T08:33:31.124Z</time></trkpt><trkpt lat="45.0386483" lon="7.7558317"><ele>539.6666666666666</ele><time>2026-04-29T08:33:35.124Z</time></trkpt><trkpt lat="45.0385533" lon="7.7557533"><ele>539.3333333333334</ele><time>2026-04-29T08:33:39.124Z</time></trkpt><trkpt lat="45.0384767" lon="7.7557067"><ele>539.0</ele><time>2026-04-29T08:33:42.124Z</time></trkpt><trkpt lat="45.0384267" lon="7.75563"><ele>538.6666666666667</ele><time>2026-04-29T08:33:46.124Z</time></trkpt><trkpt lat="45.0383833" lon="7.7555517"><ele>538.3333333333334</ele><time>2026-04-29T08:33:50.124Z</time></trkpt><trkpt lat="45.0383233" lon="7.75544"><ele>538.0</ele><time>2026-04-29T08:33:54.124Z</time></trkpt><trkpt lat="45.038285" lon="7.7553317"><ele>535.8333333333334</ele><time>2026-04-29T08:33:58.124Z</time></trkpt><trkpt lat="45.038265" lon="7.7552133"><ele>533.6666666666667</ele><time>2026-04-29T08:34:02.124Z</time></trkpt><trkpt lat="45.0382483" lon="7.7551267"><ele>531.5</ele><time>2026-04-29T08:34:04.124Z</time></trkpt><trkpt lat="45.0381983" lon="7.7550083"><ele>529.3333333333334</ele><time>2026-04-29T08:34:08.124Z</time></trkpt><trkpt lat="45.0381333" lon="7.7548583"><ele>527.1666666666666</ele><time>2026-04-29T08:34:12.124Z</time></trkpt><trkpt lat="45.03812" lon="7.75475"><ele>525.0</ele><time>2026-04-29T08:34:15.124Z</time></trkpt><trkpt lat="45.0382733" lon="7.7547767"><ele>527.25</ele><time>2026-04-29T08:34:19.124Z</time></trkpt><trkpt lat="45.038345" lon="7.7548217"><ele>529.5</ele><time>2026-04-29T08:34:20.124Z</time></trkpt><trkpt lat="45.0385017" lon="7.754895"><ele>531.75</ele><time>2026-04-29T08:34:22.124Z</time></trkpt><trkpt lat="45.0385967" lon="7.7549333"><ele>534.0</ele><time>2026-04-29T08:34:23.124Z</time></trkpt><trkpt lat="45.0387867" lon="7.7550133"><ele>534.0</ele><time>2026-04-29T08:34:25.124Z</time></trkpt><trkpt lat="45.0388783" lon="7.7550583"><ele>534.0</ele><time>2026-04-29T08:34:26.124Z</time></trkpt><trkpt lat="45.0389733" lon="7.755095"><ele>534.0</ele><time>2026-04-29T08:34:27.124Z</time></trkpt><trkpt lat="45.0390767" lon="7.7551317"><ele>534.0</ele><time>2026-04-29T08:34:28.124Z</time></trkpt><trkpt lat="45.0391833" lon="7.755175"><ele>534.0</ele><time>2026-04-29T08:34:29.124Z</time></trkpt><trkpt lat="45.0392867" lon="7.7552183"><ele>536.4</ele><time>2026-04-29T08:34:30.124Z</time></trkpt><trkpt lat="45.0393883" lon="7.7552617"><ele>538.8</ele><time>2026-04-29T08:34:31.124Z</time></trkpt><trkpt lat="45.0394917" lon="7.7553067"><ele>541.2</ele><time>2026-04-29T08:34:32.124Z</time></trkpt><trkpt lat="45.0395917" lon="7.7553483"><ele>543.6</ele><time>2026-04-29T08:34:33.124Z</time></trkpt><trkpt lat="45.0396917" lon="7.7554"><ele>546.0</ele><time>2026-04-29T08:34:34.124Z</time></trkpt><trkpt lat="45.0397817" lon="7.7554517"><ele>546.0</ele><time>2026-04-29T08:34:35.125Z</time></trkpt><trkpt lat="45.039865" lon="7.75551"><ele>546.0</ele><time>2026-04-29T08:34:36.124Z</time></trkpt><trkpt lat="45.0399367" lon="7.7555967"><ele>546.0</ele><time>2026-04-29T08:34:37.124Z</time></trkpt><trkpt lat="45.0399933" lon="7.75571"><ele>546.0</ele><time>2026-04-29T08:34:38.124Z</time></trkpt><trkpt lat="45.0400167" lon="7.7558433"><ele>546.0</ele><time>2026-04-29T08:34:39.125Z</time></trkpt><trkpt lat="45.0400233" lon="7.7559817"><ele>548.5</ele><time>2026-04-29T08:34:40.124Z</time></trkpt><trkpt lat="45.040015" lon="7.75613"><ele>551.0</ele><time>2026-04-29T08:34:41.124Z</time></trkpt><trkpt lat="45.0399983" lon="7.7562833"><ele>553.5</ele><time>2026-04-29T08:34:42.124Z</time></trkpt><trkpt lat="45.0399817" lon="7.7564483"><ele>556.0</ele><time>2026-04-29T08:34:43.124Z</time></trkpt><trkpt lat="45.0399567" lon="7.7566133"><ele>556.0</ele><time>2026-04-29T08:34:44.125Z</time></trkpt><trkpt lat="45.0399183" lon="7.7567933"><ele>556.0</ele><time>2026-04-29T08:34:45.124Z</time></trkpt><trkpt lat="45.03988" lon="7.7569617"><ele>556.0</ele><time>2026-04-29T08:34:46.125Z</time></trkpt><trkpt lat="45.039815" lon="7.757125"><ele>556.0</ele><time>2026-04-29T08:34:47.124Z</time></trkpt><trkpt lat="45.0397667" lon="7.757295"><ele>556.2</ele><time>2026-04-29T08:34:48.125Z</time></trkpt><trkpt lat="45.0397167" lon="7.7574617"><ele>556.4000000000001</ele><time>2026-04-29T08:34:49.124Z</time></trkpt><trkpt lat="45.0396733" lon="7.7576167"><ele>556.6</ele><time>2026-04-29T08:34:50.124Z</time></trkpt><trkpt lat="45.0396283" lon="7.7577483"><ele>556.8000000000001</ele><time>2026-04-29T08:34:51.124Z</time></trkpt><trkpt lat="45.03959" lon="7.75787"><ele>557.0</ele><time>2026-04-29T08:34:52.124Z</time></trkpt><trkpt lat="45.0395667" lon="7.7579917"><ele>556.0</ele><time>2026-04-29T08:34:53.125Z</time></trkpt><trkpt lat="45.0395533" lon="7.7581083"><ele>555.0</ele><time>2026-04-29T08:34:54.125Z</time></trkpt><trkpt lat="45.0395567" lon="7.75824"><ele>554.0</ele><time>2026-04-29T08:34:55.124Z</time></trkpt><trkpt lat="45.0395733" lon="7.75836"><ele>553.0</ele><time>2026-04-29T08:34:56.124Z</time></trkpt><trkpt lat="45.0396133" lon="7.7584917"><ele>552.0</ele><time>2026-04-29T08:34:57.125Z</time></trkpt><trkpt lat="45.0396683" lon="7.7586133"><ele>554.2</ele><time>2026-04-29T08:34:58.124Z</time></trkpt><trkpt lat="45.0397433" lon="7.7587183"><ele>556.4000000000001</ele><time>2026-04-29T08:34:59.124Z</time></trkpt><trkpt lat="45.0398233" lon="7.7588067"><ele>558.5999999999999</ele><time>2026-04-29T08:35:00.124Z</time></trkpt><trkpt lat="45.0399183" lon="7.7588817"><ele>560.8</ele><time>2026-04-29T08:35:01.124Z</time></trkpt><trkpt lat="45.040025" lon="7.7589367"><ele>563.0</ele><time>2026-04-29T08:35:02.124Z</time></trkpt><trkpt lat="45.0401433" lon="7.75897"><ele>557.25</ele><time>2026-04-29T08:35:03.124Z</time></trkpt><trkpt lat="45.0402717" lon="7.7589967"><ele>551.5</ele><time>2026-04-29T08:35:04.124Z</time></trkpt><trkpt lat="45.0403967" lon="7.759025"><ele>545.75</ele><time>2026-04-29T08:35:05.124Z</time></trkpt><trkpt lat="45.0405133" lon="7.7590783"><ele>540.0</ele><time>2026-04-29T08:35:06.124Z</time></trkpt><trkpt lat="45.0406467" lon="7.7591267"><ele>538.0</ele><time>2026-04-29T08:35:07.125Z</time></trkpt><trkpt lat="45.0408017" lon="7.7591717"><ele>536.0</ele><time>2026-04-29T08:35:08.124Z</time></trkpt><trkpt lat="45.0409483" lon="7.759215"><ele>534.0</ele><time>2026-04-29T08:35:09.124Z</time></trkpt><trkpt lat="45.0410867" lon="7.7592633"><ele>534.0</ele><time>2026-04-29T08:35:10.124Z</time></trkpt><trkpt lat="45.0412233" lon="7.7593"><ele>534.0</ele><time>2026-04-29T08:35:11.125Z</time></trkpt><trkpt lat="45.0413517" lon="7.759315"><ele>534.0</ele><time>2026-04-29T08:35:12.124Z</time></trkpt><trkpt lat="45.0414833" lon="7.7593067"><ele>534.0</ele><time>2026-04-29T08:35:13.125Z</time></trkpt><trkpt lat="45.0416" lon="7.7593067"><ele>535.8</ele><time>2026-04-29T08:35:14.124Z</time></trkpt><trkpt lat="45.04173" lon="7.7593117"><ele>537.5999999999999</ele><time>2026-04-29T08:35:15.124Z</time></trkpt><trkpt lat="45.0418383" lon="7.7593267"><ele>539.4</ele><time>2026-04-29T08:35:16.124Z</time></trkpt><trkpt lat="45.04193" lon="7.7593617"><ele>541.1999999999999</ele><time>2026-04-29T08:35:17.124Z</time></trkpt><trkpt lat="45.0420167" lon="7.759415"><ele>543.0</ele><time>2026-04-29T08:35:18.124Z</time></trkpt><trkpt lat="45.0420817" lon="7.7595033"><ele>543.0</ele><time>2026-04-29T08:35:19.124Z</time></trkpt><trkpt lat="45.0421283" lon="7.759615"><ele>543.0</ele><time>2026-04-29T08:35:20.124Z</time></trkpt><trkpt lat="45.0421567" lon="7.759735"><ele>543.0</ele><time>2026-04-29T08:35:21.124Z</time></trkpt><trkpt lat="45.042185" lon="7.75984"><ele>543.0</ele><time>2026-04-29T08:35:22.124Z</time></trkpt><trkpt lat="45.04222" lon="7.7599333"><ele>543.0</ele><time>2026-04-29T08:35:23.124Z</time></trkpt><trkpt lat="45.0422667" lon="7.760015"><ele>543.0</ele><time>2026-04-29T08:35:24.124Z</time></trkpt><trkpt lat="45.0423333" lon="7.7600917"><ele>543.0</ele><time>2026-04-29T08:35:25.125Z</time></trkpt><trkpt lat="45.04241" lon="7.760175"><ele>543.0</ele><time>2026-04-29T08:35:26.124Z</time></trkpt><trkpt lat="45.04248" lon="7.7602817"><ele>543.0</ele><time>2026-04-29T08:35:27.124Z</time></trkpt><trkpt lat="45.0425283" lon="7.7604067"><ele>543.0</ele><time>2026-04-29T08:35:28.124Z</time></trkpt><trkpt lat="45.0425533" lon="7.7605467"><ele>543.0</ele><time>2026-04-29T08:35:29.124Z</time></trkpt><trkpt lat="45.0425617" lon="7.7606917"><ele>541.6</ele><time>2026-04-29T08:35:30.124Z</time></trkpt><trkpt lat="45.0425817" lon="7.7608283"><ele>540.1999999999999</ele><time>2026-04-29T08:35:31.124Z</time></trkpt><trkpt lat="45.042605" lon="7.7609567"><ele>538.8</ele><time>2026-04-29T08:35:32.124Z</time></trkpt><trkpt lat="45.0426417" lon="7.761075"><ele>537.4</ele><time>2026-04-29T08:35:33.124Z</time></trkpt><trkpt lat="45.04269" lon="7.7611917"><ele>536.0</ele><time>2026-04-29T08:35:34.124Z</time></trkpt><trkpt lat="45.042745" lon="7.7612817"><ele>536.0</ele><time>2026-04-29T08:35:35.124Z</time></trkpt><trkpt lat="45.0428117" lon="7.7613483"><ele>536.0</ele><time>2026-04-29T08:35:36.124Z</time></trkpt><trkpt lat="45.0428917" lon="7.7614033"><ele>536.0</ele><time>2026-04-29T08:35:37.125Z</time></trkpt><trkpt lat="45.0429817" lon="7.7614417"><ele>536.0</ele><time>2026-04-29T08:35:38.124Z</time></trkpt><trkpt lat="45.0430783" lon="7.7614617"><ele>536.0</ele><time>2026-04-29T08:35:39.124Z</time></trkpt><trkpt lat="45.043175" lon="7.7614733"><ele>536.0</ele><time>2026-04-29T08:35:40.124Z</time></trkpt><trkpt lat="45.0432733" lon="7.761505"><ele>536.0</ele><time>2026-04-29T08:35:41.124Z</time></trkpt><trkpt lat="45.04337" lon="7.7615217"><ele>536.0</ele><time>2026-04-29T08:35:42.124Z</time></trkpt><trkpt lat="45.04346" lon="7.761535"><ele>536.0</ele><time>2026-04-29T08:35:43.125Z</time></trkpt><trkpt lat="45.0435483" lon="7.76155"><ele>536.0</ele><time>2026-04-29T08:35:44.124Z</time></trkpt><trkpt lat="45.043635" lon="7.7615633"><ele>533.8333333333333</ele><time>2026-04-29T08:35:45.124Z</time></trkpt><trkpt lat="45.0437217" lon="7.7615817"><ele>531.6666666666666</ele><time>2026-04-29T08:35:46.124Z</time></trkpt><trkpt lat="45.0437967" lon="7.761595"><ele>529.5</ele><time>2026-04-29T08:35:47.124Z</time></trkpt><trkpt lat="45.0438617" lon="7.761595"><ele>527.3333333333334</ele><time>2026-04-29T08:35:48.124Z</time></trkpt><trkpt lat="45.043925" lon="7.76159"><ele>525.1666666666667</ele><time>2026-04-29T08:35:49.124Z</time></trkpt><trkpt lat="45.044035" lon="7.76152"><ele>523.0</ele><time>2026-04-29T08:35:51.124Z</time></trkpt><trkpt lat="45.0440967" lon="7.7614683"><ele>522.6666666666667</ele><time>2026-04-29T08:35:52.124Z</time></trkpt><trkpt lat="45.0441567" lon="7.761405"><ele>522.3333333333334</ele><time>2026-04-29T08:35:53.124Z</time></trkpt><trkpt lat="45.04421" lon="7.7613167"><ele>522.0</ele><time>2026-04-29T08:35:54.124Z</time></trkpt><trkpt lat="45.044255" lon="7.7612083"><ele>521.6666666666666</ele><time>2026-04-29T08:35:55.124Z</time></trkpt><trkpt lat="45.0442967" lon="7.761095"><ele>521.3333333333333</ele><time>2026-04-29T08:35:56.124Z</time></trkpt><trkpt lat="45.0443433" lon="7.760975"><ele>521.0</ele><time>2026-04-29T08:35:57.125Z</time></trkpt><trkpt lat="45.04438" lon="7.760845"><ele>518.8</ele><time>2026-04-29T08:35:58.124Z</time></trkpt><trkpt lat="45.0444183" lon="7.7607167"><ele>516.6</ele><time>2026-04-29T08:35:59.124Z</time></trkpt><trkpt lat="45.0444533" lon="7.7605933"><ele>514.4</ele><time>2026-04-29T08:36:00.125Z</time></trkpt><trkpt lat="45.044495" lon="7.76048"><ele>512.2</ele><time>2026-04-29T08:36:01.124Z</time></trkpt><trkpt lat="45.04454" lon="7.7603733"><ele>510.0</ele><time>2026-04-29T08:36:02.124Z</time></trkpt><trkpt lat="45.0445933" lon="7.76027"><ele>507.8</ele><time>2026-04-29T08:36:03.124Z</time></trkpt><trkpt lat="45.044655" lon="7.76018"><ele>505.6</ele><time>2026-04-29T08:36:04.124Z</time></trkpt><trkpt lat="45.0447383" lon="7.76012"><ele>503.4</ele><time>2026-04-29T08:36:05.125Z</time></trkpt><trkpt lat="45.0448233" lon="7.760085"><ele>501.2</ele><time>2026-04-29T08:36:06.125Z</time></trkpt><trkpt lat="45.04492" lon="7.7600633"><ele>499.0</ele><time>2026-04-29T08:36:07.124Z</time></trkpt><trkpt lat="45.04502" lon="7.760055"><ele>499.0</ele><time>2026-04-29T08:36:08.124Z</time></trkpt><trkpt lat="45.0451367" lon="7.7600617"><ele>499.0</ele><time>2026-04-29T08:36:09.124Z</time></trkpt><trkpt lat="45.0452533" lon="7.7600767"><ele>499.0</ele><time>2026-04-29T08:36:10.124Z</time></trkpt><trkpt lat="45.0453717" lon="7.7600883"><ele>499.0</ele><time>2026-04-29T08:36:11.124Z</time></trkpt><trkpt lat="45.0454967" lon="7.7601083"><ele>499.0</ele><time>2026-04-29T08:36:12.124Z</time></trkpt><trkpt lat="45.0456233" lon="7.7601483"><ele>499.0</ele><time>2026-04-29T08:36:13.125Z</time></trkpt><trkpt lat="45.0457467" lon="7.7601967"><ele>499.0</ele><time>2026-04-29T08:36:14.124Z</time></trkpt><trkpt lat="45.0458733" lon="7.7602367"><ele>499.0</ele><time>2026-04-29T08:36:15.124Z</time></trkpt><trkpt lat="45.0459967" lon="7.7602817"><ele>502.0</ele><time>2026-04-29T08:36:16.125Z</time></trkpt><trkpt lat="45.04611" lon="7.7603317"><ele>505.0</ele><time>2026-04-29T08:36:17.124Z</time></trkpt><trkpt lat="45.04622" lon="7.7604017"><ele>508.0</ele><time>2026-04-29T08:36:18.124Z</time></trkpt><trkpt lat="45.0463333" lon="7.760455"><ele>511.0</ele><time>2026-04-29T08:36:19.124Z</time></trkpt><trkpt lat="45.0464367" lon="7.7605217"><ele>511.0</ele><time>2026-04-29T08:36:20.124Z</time></trkpt><trkpt lat="45.0465383" lon="7.7606067"><ele>511.0</ele><time>2026-04-29T08:36:21.124Z</time></trkpt><trkpt lat="45.046615" lon="7.760715"><ele>511.0</ele><time>2026-04-29T08:36:22.124Z</time></trkpt><trkpt lat="45.0466717" lon="7.760845"><ele>511.0</ele><time>2026-04-29T08:36:23.125Z</time></trkpt><trkpt lat="45.046715" lon="7.7609783"><ele>511.0</ele><time>2026-04-29T08:36:24.124Z</time></trkpt><trkpt lat="45.0467267" lon="7.76111"><ele>508.1666666666667</ele><time>2026-04-29T08:36:25.124Z</time></trkpt><trkpt lat="45.0467267" lon="7.7612317"><ele>505.33333333333337</ele><time>2026-04-29T08:36:26.124Z</time></trkpt><trkpt lat="45.046715" lon="7.76134"><ele>502.5</ele><time>2026-04-29T08:36:27.124Z</time></trkpt><trkpt lat="45.0466967" lon="7.7614283"><ele>499.66666666666663</ele><time>2026-04-29T08:36:28.124Z</time></trkpt><trkpt lat="45.04666" lon="7.7615667"><ele>496.8333333333333</ele><time>2026-04-29T08:36:30.124Z</time></trkpt><trkpt lat="45.0466933" lon="7.7616633"><ele>494.0</ele><time>2026-04-29T08:36:32.124Z</time></trkpt><trkpt lat="45.0467867" lon="7.761625"><ele>494.0</ele><time>2026-04-29T08:36:34.125Z</time></trkpt><trkpt lat="45.0468383" lon="7.7615717"><ele>494.0</ele><time>2026-04-29T08:36:35.124Z</time></trkpt><trkpt lat="45.04689" lon="7.7615083"><ele>494.0</ele><time>2026-04-29T08:36:36.124Z</time></trkpt><trkpt lat="45.04694" lon="7.7614433"><ele>494.0</ele><time>2026-04-29T08:36:37.124Z</time></trkpt><trkpt lat="45.04699" lon="7.7613867"><ele>494.0</ele><time>2026-04-29T08:36:38.124Z</time></trkpt><trkpt lat="45.0470617" lon="7.7613017"><ele>494.0</ele><time>2026-04-29T08:36:40.124Z</time></trkpt><trkpt lat="45.0469767" lon="7.7613117"><ele>494.0</ele><time>2026-04-29T08:37:49.124Z</time></trkpt><trkpt lat="45.0469217" lon="7.7613983"><ele>494.0</ele><time>2026-04-29T08:37:50.124Z</time></trkpt><trkpt lat="45.0468633" lon="7.7614733"><ele>494.0</ele><time>2026-04-29T08:37:51.124Z</time></trkpt><trkpt lat="45.0468017" lon="7.7615183"><ele>494.0</ele><time>2026-04-29T08:37:52.124Z</time></trkpt><trkpt lat="45.0467367" lon="7.7615317"><ele>494.0</ele><time>2026-04-29T08:37:53.124Z</time></trkpt><trkpt lat="45.04667" lon="7.76155"><ele>494.0</ele><time>2026-04-29T08:37:54.125Z</time></trkpt><trkpt lat="45.0466067" lon="7.7616067"><ele>494.0</ele><time>2026-04-29T08:37:55.124Z</time></trkpt><trkpt lat="45.0465483" lon="7.7616967"><ele>494.0</ele><time>2026-04-29T08:37:56.124Z</time></trkpt><trkpt lat="45.0464767" lon="7.76178"><ele>494.79999999999995</ele><time>2026-04-29T08:37:57.125Z</time></trkpt><trkpt lat="45.0463883" lon="7.761855"><ele>495.59999999999997</ele><time>2026-04-29T08:37:58.124Z</time></trkpt><trkpt lat="45.0462933" lon="7.7619217"><ele>496.4</ele><time>2026-04-29T08:37:59.124Z</time></trkpt><trkpt lat="45.0461983" lon="7.7619867"><ele>497.2</ele><time>2026-04-29T08:38:00.125Z</time></trkpt><trkpt lat="45.046105" lon="7.7620583"><ele>498.0</ele><time>2026-04-29T08:38:01.125Z</time></trkpt><trkpt lat="45.046005" lon="7.7621233"><ele>498.0</ele><time>2026-04-29T08:38:02.124Z</time></trkpt><trkpt lat="45.0458967" lon="7.76218"><ele>498.0</ele><time>2026-04-29T08:38:03.125Z</time></trkpt><trkpt lat="45.0457867" lon="7.7622383"><ele>498.0</ele><time>2026-04-29T08:38:04.124Z</time></trkpt><trkpt lat="45.0456767" lon="7.7623033"><ele>498.0</ele><time>2026-04-29T08:38:05.124Z</time></trkpt><trkpt lat="45.0455683" lon="7.7623717"><ele>502.0</ele><time>2026-04-29T08:38:06.124Z</time></trkpt><trkpt lat="45.0454583" lon="7.7624367"><ele>506.0</ele><time>2026-04-29T08:38:07.124Z</time></trkpt><trkpt lat="45.045345" lon="7.7625033"><ele>510.0</ele><time>2026-04-29T08:38:08.125Z</time></trkpt><trkpt lat="45.045235" lon="7.7625717"><ele>514.0</ele><time>2026-04-29T08:38:09.124Z</time></trkpt><trkpt lat="45.04513" lon="7.762665"><ele>517.75</ele><time>2026-04-29T08:38:10.124Z</time></trkpt><trkpt lat="45.0450333" lon="7.7627683"><ele>521.5</ele><time>2026-04-29T08:38:11.124Z</time></trkpt><trkpt lat="45.0449433" lon="7.762885"><ele>525.25</ele><time>2026-04-29T08:38:12.125Z</time></trkpt><trkpt lat="45.0448533" lon="7.7630083"><ele>529.0</ele><time>2026-04-29T08:38:13.124Z</time></trkpt><trkpt lat="45.0447667" lon="7.7631417"><ele>529.0</ele><time>2026-04-29T08:38:14.124Z</time></trkpt><trkpt lat="45.04468" lon="7.7632717"><ele>529.0</ele><time>2026-04-29T08:38:15.124Z</time></trkpt><trkpt lat="45.04459" lon="7.7634117"><ele>529.0</ele><time>2026-04-29T08:38:16.124Z</time></trkpt><trkpt lat="45.0445083" lon="7.763555"><ele>529.0</ele><time>2026-04-29T08:38:17.125Z</time></trkpt><trkpt lat="45.0444383" lon="7.7637033"><ele>526.0</ele><time>2026-04-29T08:38:18.124Z</time></trkpt><trkpt lat="45.04438" lon="7.7638633"><ele>523.0</ele><time>2026-04-29T08:38:19.125Z</time></trkpt><trkpt lat="45.044335" lon="7.764025"><ele>520.0</ele><time>2026-04-29T08:38:20.124Z</time></trkpt><trkpt lat="45.0442967" lon="7.7641967"><ele>517.0</ele><time>2026-04-29T08:38:21.124Z</time></trkpt><trkpt lat="45.044265" lon="7.7643717"><ele>515.25</ele><time>2026-04-29T08:38:22.124Z</time></trkpt><trkpt lat="45.0442217" lon="7.76455"><ele>513.5</ele><time>2026-04-29T08:38:23.124Z</time></trkpt><trkpt lat="45.0441833" lon="7.764725"><ele>511.75</ele><time>2026-04-29T08:38:24.124Z</time></trkpt><trkpt lat="45.0441333" lon="7.76489"><ele>510.0</ele><time>2026-04-29T08:38:25.124Z</time></trkpt><trkpt lat="45.044095" lon="7.7650583"><ele>514.0</ele><time>2026-04-29T08:38:26.124Z</time></trkpt><trkpt lat="45.04405" lon="7.7652083"><ele>518.0</ele><time>2026-04-29T08:38:27.124Z</time></trkpt><trkpt lat="45.0440183" lon="7.76535"><ele>522.0</ele><time>2026-04-29T08:38:28.124Z</time></trkpt><trkpt lat="45.0439883" lon="7.76548"><ele>526.0</ele><time>2026-04-29T08:38:29.124Z</time></trkpt><trkpt lat="45.0439517" lon="7.76562"><ele>530.0</ele><time>2026-04-29T08:38:30.124Z</time></trkpt><trkpt lat="45.043915" lon="7.7657583"><ele>530.0</ele><time>2026-04-29T08:38:31.124Z</time></trkpt><trkpt lat="45.0438717" lon="7.765895"><ele>530.0</ele><time>2026-04-29T08:38:32.124Z</time></trkpt><trkpt lat="45.0438267" lon="7.7660333"><ele>530.0</ele><time>2026-04-29T08:38:33.124Z</time></trkpt><trkpt lat="45.04379" lon="7.7661833"><ele>530.0</ele><time>2026-04-29T08:38:34.124Z</time></trkpt><trkpt lat="45.043755" lon="7.7663233"><ele>530.0</ele><time>2026-04-29T08:38:35.124Z</time></trkpt><trkpt lat="45.0437133" lon="7.7664517"><ele>529.2</ele><time>2026-04-29T08:38:36.124Z</time></trkpt><trkpt lat="45.0436733" lon="7.766585"><ele>528.4</ele><time>2026-04-29T08:38:37.124Z</time></trkpt><trkpt lat="45.04363" lon="7.7667283"><ele>527.6</ele><time>2026-04-29T08:38:38.124Z</time></trkpt><trkpt lat="45.0435833" lon="7.7668667"><ele>526.8</ele><time>2026-04-29T08:38:39.124Z</time></trkpt><trkpt lat="45.0435317" lon="7.7669967"><ele>526.0</ele><time>2026-04-29T08:38:40.125Z</time></trkpt><trkpt lat="45.043495" lon="7.7671417"><ele>525.8</ele><time>2026-04-29T08:38:41.124Z</time></trkpt><trkpt lat="45.0434583" lon="7.76728"><ele>525.6</ele><time>2026-04-29T08:38:42.124Z</time></trkpt><trkpt lat="45.0434117" lon="7.7674217"><ele>525.4</ele><time>2026-04-29T08:38:43.124Z</time></trkpt><trkpt lat="45.0433783" lon="7.7675717"><ele>525.2</ele><time>2026-04-29T08:38:44.124Z</time></trkpt><trkpt lat="45.04334" lon="7.76772"><ele>525.0</ele><time>2026-04-29T08:38:45.124Z</time></trkpt><trkpt lat="45.0433083" lon="7.7678567"><ele>525.5</ele><time>2026-04-29T08:38:46.125Z</time></trkpt><trkpt lat="45.0432817" lon="7.7679967"><ele>526.0</ele><time>2026-04-29T08:38:47.124Z</time></trkpt><trkpt lat="45.043265" lon="7.7681233"><ele>526.5</ele><time>2026-04-29T08:38:48.124Z</time></trkpt><trkpt lat="45.0432483" lon="7.7682433"><ele>527.0</ele><time>2026-04-29T08:38:49.124Z</time></trkpt><trkpt lat="45.04324" lon="7.7683567"><ele>527.5</ele><time>2026-04-29T08:38:50.124Z</time></trkpt><trkpt lat="45.043245" lon="7.7684667"><ele>528.0</ele><time>2026-04-29T08:38:51.124Z</time></trkpt><trkpt lat="45.04326" lon="7.7685733"><ele>528.0</ele><time>2026-04-29T08:38:52.124Z</time></trkpt><trkpt lat="45.0432967" lon="7.7686833"><ele>528.0</ele><time>2026-04-29T08:38:53.124Z</time></trkpt><trkpt lat="45.0433483" lon="7.768785"><ele>528.0</ele><time>2026-04-29T08:38:54.124Z</time></trkpt><trkpt lat="45.0434017" lon="7.768895"><ele>528.0</ele><time>2026-04-29T08:38:55.124Z</time></trkpt><trkpt lat="45.0434583" lon="7.769005"><ele>528.0</ele><time>2026-04-29T08:38:56.124Z</time></trkpt><trkpt lat="45.0435233" lon="7.769115"><ele>524.6</ele><time>2026-04-29T08:38:57.124Z</time></trkpt><trkpt lat="45.04359" lon="7.7692283"><ele>521.1999999999999</ele><time>2026-04-29T08:38:58.125Z</time></trkpt><trkpt lat="45.0436533" lon="7.76934"><ele>517.8</ele><time>2026-04-29T08:38:59.124Z</time></trkpt><trkpt lat="45.0437283" lon="7.7694483"><ele>514.4</ele><time>2026-04-29T08:39:00.124Z</time></trkpt><trkpt lat="45.0438033" lon="7.7695567"><ele>511.0</ele><time>2026-04-29T08:39:01.124Z</time></trkpt><trkpt lat="45.0438683" lon="7.76968"><ele>510.6</ele><time>2026-04-29T08:39:02.124Z</time></trkpt><trkpt lat="45.0439333" lon="7.7698033"><ele>510.20000000000005</ele><time>2026-04-29T08:39:03.124Z</time></trkpt><trkpt lat="45.0440017" lon="7.7699217"><ele>509.79999999999995</ele><time>2026-04-29T08:39:04.124Z</time></trkpt><trkpt lat="45.04407" lon="7.77003"><ele>509.4</ele><time>2026-04-29T08:39:05.124Z</time></trkpt><trkpt lat="45.0441367" lon="7.7701367"><ele>509.0</ele><time>2026-04-29T08:39:06.125Z</time></trkpt><trkpt lat="45.0442067" lon="7.77025"><ele>507.2</ele><time>2026-04-29T08:39:07.124Z</time></trkpt><trkpt lat="45.0442717" lon="7.7703617"><ele>505.4</ele><time>2026-04-29T08:39:08.124Z</time></trkpt><trkpt lat="45.0443333" lon="7.77047"><ele>503.6</ele><time>2026-04-29T08:39:09.124Z</time></trkpt><trkpt lat="45.04439" lon="7.77058"><ele>501.8</ele><time>2026-04-29T08:39:10.124Z</time></trkpt><trkpt lat="45.044445" lon="7.7707"><ele>500.0</ele><time>2026-04-29T08:39:11.124Z</time></trkpt><trkpt lat="45.0444733" lon="7.77084"><ele>500.0</ele><time>2026-04-29T08:39:12.124Z</time></trkpt><trkpt lat="45.044495" lon="7.7709883"><ele>500.0</ele><time>2026-04-29T08:39:13.125Z</time></trkpt><trkpt lat="45.0445033" lon="7.77113"><ele>500.0</ele><time>2026-04-29T08:39:14.124Z</time></trkpt><trkpt lat="45.044515" lon="7.7712533"><ele>500.0</ele><time>2026-04-29T08:39:15.124Z</time></trkpt><trkpt lat="45.0445017" lon="7.7713817"><ele>500.0</ele><time>2026-04-29T08:39:16.124Z</time></trkpt><trkpt lat="45.0444783" lon="7.7715267"><ele>498.6</ele><time>2026-04-29T08:39:17.124Z</time></trkpt><trkpt lat="45.0444433" lon="7.7716817"><ele>497.2</ele><time>2026-04-29T08:39:18.124Z</time></trkpt><trkpt lat="45.0444083" lon="7.7718333"><ele>495.79999999999995</ele><time>2026-04-29T08:39:19.124Z</time></trkpt><trkpt lat="45.04438" lon="7.7719833"><ele>494.4</ele><time>2026-04-29T08:39:20.124Z</time></trkpt><trkpt lat="45.0443467" lon="7.7721267"><ele>493.0</ele><time>2026-04-29T08:39:21.124Z</time></trkpt><trkpt lat="45.04431" lon="7.7722583"><ele>493.00000000000006</ele><time>2026-04-29T08:39:22.124Z</time></trkpt><trkpt lat="45.044275" lon="7.7723767"><ele>493.0</ele><time>2026-04-29T08:39:23.124Z</time></trkpt><trkpt lat="45.04425" lon="7.77248"><ele>493.0</ele><time>2026-04-29T08:39:24.124Z</time></trkpt><trkpt lat="45.044215" lon="7.7725733"><ele>493.0</ele><time>2026-04-29T08:39:25.124Z</time></trkpt><trkpt lat="45.04417" lon="7.772665"><ele>493.00000000000006</ele><time>2026-04-29T08:39:26.124Z</time></trkpt><trkpt lat="45.0441267" lon="7.7727467"><ele>493.0</ele><time>2026-04-29T08:39:27.124Z</time></trkpt><trkpt lat="45.0440783" lon="7.7728167"><ele>491.6666666666667</ele><time>2026-04-29T08:39:28.124Z</time></trkpt><trkpt lat="45.0440267" lon="7.7728783"><ele>490.33333333333337</ele><time>2026-04-29T08:39:29.124Z</time></trkpt><trkpt lat="45.0439833" lon="7.7729517"><ele>489.0</ele><time>2026-04-29T08:39:30.124Z</time></trkpt><trkpt lat="45.0439383" lon="7.7730217"><ele>487.66666666666663</ele><time>2026-04-29T08:39:31.125Z</time></trkpt><trkpt lat="45.0438967" lon="7.7730917"><ele>486.3333333333333</ele><time>2026-04-29T08:39:32.124Z</time></trkpt><trkpt lat="45.0438217" lon="7.7731983"><ele>485.0</ele><time>2026-04-29T08:39:34.124Z</time></trkpt><trkpt lat="45.04375" lon="7.7732867"><ele>484.99999999999994</ele><time>2026-04-29T08:39:36.124Z</time></trkpt><trkpt lat="45.0436683" lon="7.77338"><ele>485.0</ele><time>2026-04-29T08:39:38.124Z</time></trkpt><trkpt lat="45.0435917" lon="7.7734517"><ele>485.0</ele><time>2026-04-29T08:39:40.124Z</time></trkpt><trkpt lat="45.043525" lon="7.7734783"><ele>485.0</ele><time>2026-04-29T08:39:42.124Z</time></trkpt><trkpt lat="45.0434567" lon="7.77353"><ele>484.99999999999994</ele><time>2026-04-29T08:39:45.124Z</time></trkpt><trkpt lat="45.0433633" lon="7.7735417"><ele>485.0</ele><time>2026-04-29T08:40:26.124Z</time></trkpt><trkpt lat="45.043305" lon="7.7736"><ele>483.28571428571433</ele><time>2026-04-29T08:40:28.124Z</time></trkpt><trkpt lat="45.043245" lon="7.7736617"><ele>481.57142857142856</ele><time>2026-04-29T08:40:30.125Z</time></trkpt><trkpt lat="45.0431867" lon="7.7737167"><ele>479.8571428571429</ele><time>2026-04-29T08:40:32.124Z</time></trkpt><trkpt lat="45.0431433" lon="7.773785"><ele>478.14285714285717</ele><time>2026-04-29T08:40:34.125Z</time></trkpt><trkpt lat="45.0430983" lon="7.7738917"><ele>476.42857142857144</ele><time>2026-04-29T08:40:37.124Z</time></trkpt><trkpt lat="45.0430667" lon="7.7739783"><ele>474.7142857142857</ele><time>2026-04-29T08:40:40.124Z</time></trkpt><trkpt lat="45.043045" lon="7.7740733"><ele>473.0</ele><time>2026-04-29T08:40:44.124Z</time></trkpt><trkpt lat="45.0430167" lon="7.7741533"><ele>472.99999999999994</ele><time>2026-04-29T08:40:47.124Z</time></trkpt><trkpt lat="45.0429967" lon="7.7742617"><ele>473.0</ele><time>2026-04-29T08:40:50.124Z</time></trkpt><trkpt lat="45.0429633" lon="7.7743633"><ele>473.0</ele><time>2026-04-29T08:40:52.124Z</time></trkpt><trkpt lat="45.0429183" lon="7.7744883"><ele>473.0</ele><time>2026-04-29T08:40:54.124Z</time></trkpt><trkpt lat="45.042885" lon="7.77461"><ele>472.99999999999994</ele><time>2026-04-29T08:40:56.124Z</time></trkpt><trkpt lat="45.0428567" lon="7.77474"><ele>473.0</ele><time>2026-04-29T08:40:58.124Z</time></trkpt><trkpt lat="45.042805" lon="7.774885"><ele>473.3333333333333</ele><time>2026-04-29T08:41:00.125Z</time></trkpt><trkpt lat="45.0427783" lon="7.7749683"><ele>473.66666666666663</ele><time>2026-04-29T08:41:01.124Z</time></trkpt><trkpt lat="45.04275" lon="7.7750533"><ele>474.0</ele><time>2026-04-29T08:41:02.125Z</time></trkpt><trkpt lat="45.042725" lon="7.7751617"><ele>474.33333333333337</ele><time>2026-04-29T08:41:03.124Z</time></trkpt><trkpt lat="45.0426983" lon="7.7752667"><ele>474.6666666666667</ele><time>2026-04-29T08:41:04.124Z</time></trkpt><trkpt lat="45.04268" lon="7.775385"><ele>475.0</ele><time>2026-04-29T08:41:05.124Z</time></trkpt><trkpt lat="45.0426617" lon="7.7755"><ele>474.33333333333337</ele><time>2026-04-29T08:41:06.124Z</time></trkpt><trkpt lat="45.0426633" lon="7.7756117"><ele>473.6666666666667</ele><time>2026-04-29T08:41:07.124Z</time></trkpt><trkpt lat="45.04268" lon="7.77572"><ele>473.0</ele><time>2026-04-29T08:41:08.124Z</time></trkpt><trkpt lat="45.0426933" lon="7.77584"><ele>472.33333333333337</ele><time>2026-04-29T08:41:09.124Z</time></trkpt><trkpt lat="45.0427083" lon="7.775965"><ele>471.6666666666667</ele><time>2026-04-29T08:41:10.124Z</time></trkpt><trkpt lat="45.0427217" lon="7.776085"><ele>471.0</ele><time>2026-04-29T08:41:11.124Z</time></trkpt><trkpt lat="45.042745" lon="7.7761933"><ele>469.6</ele><time>2026-04-29T08:41:12.125Z</time></trkpt><trkpt lat="45.04278" lon="7.776305"><ele>468.20000000000005</ele><time>2026-04-29T08:41:13.124Z</time></trkpt><trkpt lat="45.042815" lon="7.776425"><ele>466.79999999999995</ele><time>2026-04-29T08:41:14.124Z</time></trkpt><trkpt lat="45.042865" lon="7.77654"><ele>465.4</ele><time>2026-04-29T08:41:15.124Z</time></trkpt><trkpt lat="45.0429167" lon="7.7766583"><ele>464.0</ele><time>2026-04-29T08:41:16.124Z</time></trkpt><trkpt lat="45.0429683" lon="7.7767733"><ele>462.66666666666663</ele><time>2026-04-29T08:41:17.125Z</time></trkpt><trkpt lat="45.0430183" lon="7.7768917"><ele>461.3333333333333</ele><time>2026-04-29T08:41:18.124Z</time></trkpt><trkpt lat="45.04306" lon="7.7770017"><ele>460.0</ele><time>2026-04-29T08:41:19.124Z</time></trkpt><trkpt lat="45.0431067" lon="7.7771133"><ele>458.66666666666663</ele><time>2026-04-29T08:41:20.124Z</time></trkpt><trkpt lat="45.0431467" lon="7.7772117"><ele>457.3333333333333</ele><time>2026-04-29T08:41:21.124Z</time></trkpt><trkpt lat="45.0431617" lon="7.7773133"><ele>456.0</ele><time>2026-04-29T08:41:22.124Z</time></trkpt><trkpt lat="45.0431583" lon="7.7774217"><ele>456.0</ele><time>2026-04-29T08:41:23.124Z</time></trkpt><trkpt lat="45.043145" lon="7.7775267"><ele>456.0</ele><time>2026-04-29T08:41:24.125Z</time></trkpt><trkpt lat="45.0431117" lon="7.7776183"><ele>456.0</ele><time>2026-04-29T08:41:25.124Z</time></trkpt><trkpt lat="45.0430517" lon="7.7777"><ele>456.0</ele><time>2026-04-29T08:41:26.124Z</time></trkpt><trkpt lat="45.0429817" lon="7.77778"><ele>456.0</ele><time>2026-04-29T08:41:27.124Z</time></trkpt><trkpt lat="45.0429033" lon="7.7778533"><ele>456.0</ele><time>2026-04-29T08:41:28.124Z</time></trkpt><trkpt lat="45.04282" lon="7.777925"><ele>456.6</ele><time>2026-04-29T08:41:29.124Z</time></trkpt><trkpt lat="45.042735" lon="7.778"><ele>457.20000000000005</ele><time>2026-04-29T08:41:30.125Z</time></trkpt><trkpt lat="45.04264" lon="7.77806"><ele>457.79999999999995</ele><time>2026-04-29T08:41:31.124Z</time></trkpt><trkpt lat="45.042555" lon="7.77814"><ele>458.4</ele><time>2026-04-29T08:41:32.124Z</time></trkpt><trkpt lat="45.0424817" lon="7.7782283"><ele>459.0</ele><time>2026-04-29T08:41:33.124Z</time></trkpt><trkpt lat="45.042415" lon="7.778315"><ele>457.8333333333333</ele><time>2026-04-29T08:41:34.125Z</time></trkpt><trkpt lat="45.042345" lon="7.7783933"><ele>456.66666666666663</ele><time>2026-04-29T08:41:35.124Z</time></trkpt><trkpt lat="45.0422733" lon="7.7784533"><ele>455.5</ele><time>2026-04-29T08:41:36.124Z</time></trkpt><trkpt lat="45.0422033" lon="7.7785117"><ele>454.3333333333333</ele><time>2026-04-29T08:41:37.124Z</time></trkpt><trkpt lat="45.0421433" lon="7.778565"><ele>453.16666666666663</ele><time>2026-04-29T08:41:38.124Z</time></trkpt><trkpt lat="45.04209" lon="7.7786217"><ele>452.0</ele><time>2026-04-29T08:41:39.125Z</time></trkpt><trkpt lat="45.0420083" lon="7.7787133"><ele>451.99999999999994</ele><time>2026-04-29T08:41:41.124Z</time></trkpt><trkpt lat="45.0419417" lon="7.7787633"><ele>452.0</ele><time>2026-04-29T08:41:44.124Z</time></trkpt><trkpt lat="45.0420417" lon="7.778735"><ele>452.0</ele><time>2026-04-29T08:42:03.124Z</time></trkpt><trkpt lat="45.04214" lon="7.7786333"><ele>452.0</ele><time>2026-04-29T08:42:05.124Z</time></trkpt><trkpt lat="45.0421933" lon="7.7785733"><ele>451.99999999999994</ele><time>2026-04-29T08:42:06.124Z</time></trkpt><trkpt lat="45.042255" lon="7.77851"><ele>452.0</ele><time>2026-04-29T08:42:07.125Z</time></trkpt><trkpt lat="45.0423117" lon="7.7784517"><ele>451.3333333333333</ele><time>2026-04-29T08:42:08.125Z</time></trkpt><trkpt lat="45.0423517" lon="7.7783783"><ele>450.66666666666663</ele><time>2026-04-29T08:42:09.124Z</time></trkpt><trkpt lat="45.0424367" lon="7.77835"><ele>450.0</ele><time>2026-04-29T08:42:11.124Z</time></trkpt><trkpt lat="45.04248" lon="7.7784433"><ele>449.33333333333337</ele><time>2026-04-29T08:42:13.124Z</time></trkpt><trkpt lat="45.0425467" lon="7.7786"><ele>448.6666666666667</ele><time>2026-04-29T08:42:15.124Z</time></trkpt><trkpt lat="45.0426017" lon="7.7786783"><ele>448.0</ele><time>2026-04-29T08:42:16.125Z</time></trkpt><trkpt lat="45.0426683" lon="7.7787383"><ele>450.1666666666667</ele><time>2026-04-29T08:42:17.124Z</time></trkpt><trkpt lat="45.0427367" lon="7.778785"><ele>452.33333333333337</ele><time>2026-04-29T08:42:18.124Z</time></trkpt><trkpt lat="45.0428083" lon="7.7788233"><ele>454.5</ele><time>2026-04-29T08:42:19.124Z</time></trkpt><trkpt lat="45.042885" lon="7.778865"><ele>456.66666666666663</ele><time>2026-04-29T08:42:20.124Z</time></trkpt><trkpt lat="45.0429717" lon="7.7789117"><ele>458.8333333333333</ele><time>2026-04-29T08:42:21.124Z</time></trkpt><trkpt lat="45.043055" lon="7.7789683"><ele>461.0</ele><time>2026-04-29T08:42:22.124Z</time></trkpt><trkpt lat="45.0431433" lon="7.7790233"><ele>461.0</ele><time>2026-04-29T08:42:23.124Z</time></trkpt><trkpt lat="45.04323" lon="7.7790733"><ele>461.0</ele><time>2026-04-29T08:42:24.124Z</time></trkpt><trkpt lat="45.0433233" lon="7.7791233"><ele>461.0</ele><time>2026-04-29T08:42:25.125Z</time></trkpt><trkpt lat="45.0434267" lon="7.779175"><ele>461.0</ele><time>2026-04-29T08:42:26.124Z</time></trkpt><trkpt lat="45.04353" lon="7.77923"><ele>461.0</ele><time>2026-04-29T08:42:27.124Z</time></trkpt><trkpt lat="45.04363" lon="7.7792883"><ele>460.20000000000005</ele><time>2026-04-29T08:42:28.124Z</time></trkpt><trkpt lat="45.0437233" lon="7.7793417"><ele>459.40000000000003</ele><time>2026-04-29T08:42:29.125Z</time></trkpt><trkpt lat="45.0438167" lon="7.77938"><ele>458.6</ele><time>2026-04-29T08:42:30.124Z</time></trkpt><trkpt lat="45.0439117" lon="7.7794017"><ele>457.8</ele><time>2026-04-29T08:42:31.124Z</time></trkpt><trkpt lat="45.0440083" lon="7.7794067"><ele>457.0</ele><time>2026-04-29T08:42:32.124Z</time></trkpt><trkpt lat="45.04411" lon="7.77937"><ele>459.8</ele><time>2026-04-29T08:42:33.124Z</time></trkpt><trkpt lat="45.04419" lon="7.7793233"><ele>462.6</ele><time>2026-04-29T08:42:34.124Z</time></trkpt><trkpt lat="45.04426" lon="7.7792383"><ele>465.40000000000003</ele><time>2026-04-29T08:42:35.124Z</time></trkpt><trkpt lat="45.0443317" lon="7.779155"><ele>468.20000000000005</ele><time>2026-04-29T08:42:36.125Z</time></trkpt><trkpt lat="45.044415" lon="7.7790867"><ele>471.0</ele><time>2026-04-29T08:42:37.125Z</time></trkpt><trkpt lat="45.044505" lon="7.779025"><ele>471.0</ele><time>2026-04-29T08:42:38.124Z</time></trkpt><trkpt lat="45.0445817" lon="7.77897"><ele>471.0</ele><time>2026-04-29T08:42:39.124Z</time></trkpt><trkpt lat="45.044635" lon="7.7789217"><ele>471.0</ele><time>2026-04-29T08:42:41.124Z</time></trkpt><trkpt lat="45.04464" lon="7.7790167"><ele>471.0</ele><time>2026-04-29T08:42:49.124Z</time></trkpt><trkpt lat="45.0446217" lon="7.7791617"><ele>471.0</ele><time>2026-04-29T08:42:51.124Z</time></trkpt><trkpt lat="45.0446" lon="7.7793317"><ele>471.0</ele><time>2026-04-29T08:42:53.124Z</time></trkpt><trkpt lat="45.0445967" lon="7.7794217"><ele>469.5</ele><time>2026-04-29T08:42:54.124Z</time></trkpt><trkpt lat="45.044585" lon="7.7795183"><ele>468.0</ele><time>2026-04-29T08:42:55.124Z</time></trkpt><trkpt lat="45.0445583" lon="7.7797"><ele>466.5</ele><time>2026-04-29T08:42:57.124Z</time></trkpt><trkpt lat="45.04453" lon="7.7797933"><ele>465.0</ele><time>2026-04-29T08:42:58.125Z</time></trkpt><trkpt lat="45.0445033" lon="7.77989"><ele>463.5</ele><time>2026-04-29T08:42:59.124Z</time></trkpt><trkpt lat="45.0444667" lon="7.7799767"><ele>462.0</ele><time>2026-04-29T08:43:00.124Z</time></trkpt><trkpt lat="45.044435" lon="7.7800717"><ele>462.0</ele><time>2026-04-29T08:43:01.124Z</time></trkpt><trkpt lat="45.0444133" lon="7.780165"><ele>462.0</ele><time>2026-04-29T08:43:02.124Z</time></trkpt><trkpt lat="45.044385" lon="7.7802667"><ele>462.0</ele><time>2026-04-29T08:43:03.124Z</time></trkpt><trkpt lat="45.0443567" lon="7.7803633"><ele>462.0</ele><time>2026-04-29T08:43:04.124Z</time></trkpt><trkpt lat="45.0443317" lon="7.7804583"><ele>462.0</ele><time>2026-04-29T08:43:05.124Z</time></trkpt><trkpt lat="45.0443033" lon="7.7805533"><ele>462.0</ele><time>2026-04-29T08:43:06.124Z</time></trkpt><trkpt lat="45.044275" lon="7.780645"><ele>462.0</ele><time>2026-04-29T08:43:07.124Z</time></trkpt><trkpt lat="45.0442467" lon="7.780755"><ele>460.57142857142856</ele><time>2026-04-29T08:43:08.124Z</time></trkpt><trkpt lat="45.0442133" lon="7.78085"><ele>459.1428571428571</ele><time>2026-04-29T08:43:09.124Z</time></trkpt><trkpt lat="45.04419" lon="7.7809517"><ele>457.7142857142857</ele><time>2026-04-29T08:43:10.124Z</time></trkpt><trkpt lat="45.0441617" lon="7.7810383"><ele>456.2857142857143</ele><time>2026-04-29T08:43:11.124Z</time></trkpt><trkpt lat="45.0441383" lon="7.78114"><ele>454.85714285714283</ele><time>2026-04-29T08:43:12.124Z</time></trkpt><trkpt lat="45.0441183" lon="7.7812283"><ele>453.42857142857144</ele><time>2026-04-29T08:43:13.124Z</time></trkpt><trkpt lat="45.044105" lon="7.7813233"><ele>452.0</ele><time>2026-04-29T08:43:14.124Z</time></trkpt><trkpt lat="45.0440867" lon="7.781415"><ele>450.99999999999994</ele><time>2026-04-29T08:43:15.124Z</time></trkpt><trkpt lat="45.0440567" lon="7.7815433"><ele>450.0</ele><time>2026-04-29T08:43:17.124Z</time></trkpt><trkpt lat="45.0440933" lon="7.7816167"><ele>449.0</ele><time>2026-04-29T08:43:20.124Z</time></trkpt><trkpt lat="45.0441617" lon="7.7816733"><ele>448.0</ele><time>2026-04-29T08:43:22.124Z</time></trkpt><trkpt lat="45.0442767" lon="7.781715"><ele>446.99999999999994</ele><time>2026-04-29T08:43:24.124Z</time></trkpt><trkpt lat="45.04435" lon="7.7817417"><ele>446.0</ele><time>2026-04-29T08:43:25.124Z</time></trkpt><trkpt lat="45.0444267" lon="7.7817917"><ele>443.8</ele><time>2026-04-29T08:43:26.124Z</time></trkpt><trkpt lat="45.04449" lon="7.7818733"><ele>441.6</ele><time>2026-04-29T08:43:27.124Z</time></trkpt><trkpt lat="45.0445367" lon="7.7819883"><ele>439.4</ele><time>2026-04-29T08:43:28.124Z</time></trkpt><trkpt lat="45.0445767" lon="7.782135"><ele>437.2</ele><time>2026-04-29T08:43:29.124Z</time></trkpt><trkpt lat="45.04458" lon="7.78229"><ele>435.0</ele><time>2026-04-29T08:43:30.124Z</time></trkpt><trkpt lat="45.0445767" lon="7.78244"><ele>435.0</ele><time>2026-04-29T08:43:31.124Z</time></trkpt><trkpt lat="45.04457" lon="7.78259"><ele>435.0</ele><time>2026-04-29T08:43:32.124Z</time></trkpt><trkpt lat="45.0445633" lon="7.7827367"><ele>435.0</ele><time>2026-04-29T08:43:33.124Z</time></trkpt><trkpt lat="45.0445583" lon="7.7828733"><ele>435.0</ele><time>2026-04-29T08:43:34.124Z</time></trkpt><trkpt lat="45.04455" lon="7.7830183"><ele>435.0</ele><time>2026-04-29T08:43:35.124Z</time></trkpt><trkpt lat="45.0445333" lon="7.7831567"><ele>433.8</ele><time>2026-04-29T08:43:36.124Z</time></trkpt><trkpt lat="45.0445267" lon="7.7832917"><ele>432.6</ele><time>2026-04-29T08:43:37.124Z</time></trkpt><trkpt lat="45.04453" lon="7.7834433"><ele>431.4</ele><time>2026-04-29T08:43:38.124Z</time></trkpt><trkpt lat="45.0445367" lon="7.7835883"><ele>430.2</ele><time>2026-04-29T08:43:39.124Z</time></trkpt><trkpt lat="45.04454" lon="7.783725"><ele>429.0</ele><time>2026-04-29T08:43:40.124Z</time></trkpt><trkpt lat="45.04454" lon="7.7838767"><ele>427.79999999999995</ele><time>2026-04-29T08:43:41.125Z</time></trkpt><trkpt lat="45.0445517" lon="7.7840083"><ele>426.59999999999997</ele><time>2026-04-29T08:43:42.124Z</time></trkpt><trkpt lat="45.0445583" lon="7.7841483"><ele>425.4</ele><time>2026-04-29T08:43:43.125Z</time></trkpt><trkpt lat="45.0445617" lon="7.7842883"><ele>424.2</ele><time>2026-04-29T08:43:44.124Z</time></trkpt><trkpt lat="45.0445633" lon="7.784425"><ele>423.0</ele><time>2026-04-29T08:43:45.124Z</time></trkpt><trkpt lat="45.0445583" lon="7.784565"><ele>421.0</ele><time>2026-04-29T08:43:46.124Z</time></trkpt><trkpt lat="45.0445467" lon="7.7847133"><ele>419.0</ele><time>2026-04-29T08:43:47.124Z</time></trkpt><trkpt lat="45.04455" lon="7.7848783"><ele>417.0</ele><time>2026-04-29T08:43:48.124Z</time></trkpt><trkpt lat="45.04456" lon="7.7850517"><ele>415.0</ele><time>2026-04-29T08:43:49.124Z</time></trkpt><trkpt lat="45.0445633" lon="7.78524"><ele>413.6</ele><time>2026-04-29T08:43:50.124Z</time></trkpt><trkpt lat="45.0445683" lon="7.78542"><ele>412.2</ele><time>2026-04-29T08:43:51.124Z</time></trkpt><trkpt lat="45.0445683" lon="7.7855967"><ele>410.79999999999995</ele><time>2026-04-29T08:43:52.124Z</time></trkpt><trkpt lat="45.0445733" lon="7.785745"><ele>409.4</ele><time>2026-04-29T08:43:53.124Z</time></trkpt><trkpt lat="45.0445817" lon="7.785865"><ele>408.0</ele><time>2026-04-29T08:43:54.124Z</time></trkpt><trkpt lat="45.0445767" lon="7.7859783"><ele>405.79999999999995</ele><time>2026-04-29T08:43:55.124Z</time></trkpt><trkpt lat="45.0445533" lon="7.7860917"><ele>403.6</ele><time>2026-04-29T08:43:56.124Z</time></trkpt><trkpt lat="45.0445183" lon="7.7861867"><ele>401.4</ele><time>2026-04-29T08:43:57.124Z</time></trkpt><trkpt lat="45.04446" lon="7.7862667"><ele>399.20000000000005</ele><time>2026-04-29T08:43:58.124Z</time></trkpt><trkpt lat="45.0443717" lon="7.7863417"><ele>397.0</ele><time>2026-04-29T08:43:59.124Z</time></trkpt><trkpt lat="45.0442633" lon="7.7864017"><ele>397.0</ele><time>2026-04-29T08:44:00.124Z</time></trkpt><trkpt lat="45.0441433" lon="7.7864817"><ele>397.0</ele><time>2026-04-29T08:44:01.124Z</time></trkpt><trkpt lat="45.0440183" lon="7.78657"><ele>397.0</ele><time>2026-04-29T08:44:02.124Z</time></trkpt><trkpt lat="45.043895" lon="7.7866617"><ele>397.0</ele><time>2026-04-29T08:44:03.124Z</time></trkpt><trkpt lat="45.0437817" lon="7.78675"><ele>397.5</ele><time>2026-04-29T08:44:04.125Z</time></trkpt><trkpt lat="45.0436767" lon="7.7868367"><ele>398.0</ele><time>2026-04-29T08:44:05.124Z</time></trkpt><trkpt lat="45.043575" lon="7.7869383"><ele>398.5</ele><time>2026-04-29T08:44:06.125Z</time></trkpt><trkpt lat="45.0434767" lon="7.7870333"><ele>399.0</ele><time>2026-04-29T08:44:07.124Z</time></trkpt><trkpt lat="45.04338" lon="7.7871167"><ele>396.79999999999995</ele><time>2026-04-29T08:44:08.124Z</time></trkpt><trkpt lat="45.0432783" lon="7.7871733"><ele>394.59999999999997</ele><time>2026-04-29T08:44:09.125Z</time></trkpt><trkpt lat="45.0431817" lon="7.787205"><ele>392.4</ele><time>2026-04-29T08:44:10.124Z</time></trkpt><trkpt lat="45.0430833" lon="7.7872033"><ele>390.2</ele><time>2026-04-29T08:44:11.124Z</time></trkpt><trkpt lat="45.0429833" lon="7.7871967"><ele>388.0</ele><time>2026-04-29T08:44:12.124Z</time></trkpt><trkpt lat="45.0428917" lon="7.7871817"><ele>388.0</ele><time>2026-04-29T08:44:13.124Z</time></trkpt><trkpt lat="45.0427933" lon="7.7871583"><ele>388.0</ele><time>2026-04-29T08:44:14.124Z</time></trkpt><trkpt lat="45.0427" lon="7.7871333"><ele>388.0</ele><time>2026-04-29T08:44:15.124Z</time></trkpt><trkpt lat="45.0426017" lon="7.7871283"><ele>388.0</ele><time>2026-04-29T08:44:16.124Z</time></trkpt><trkpt lat="45.0425067" lon="7.787135"><ele>388.0</ele><time>2026-04-29T08:44:17.124Z</time></trkpt><trkpt lat="45.0424217" lon="7.787175"><ele>388.83333333333337</ele><time>2026-04-29T08:44:18.124Z</time></trkpt><trkpt lat="45.042345" lon="7.7872333"><ele>389.6666666666667</ele><time>2026-04-29T08:44:19.124Z</time></trkpt><trkpt lat="45.0422833" lon="7.7872967"><ele>390.5</ele><time>2026-04-29T08:44:20.124Z</time></trkpt><trkpt lat="45.0422233" lon="7.7873633"><ele>391.33333333333337</ele><time>2026-04-29T08:44:21.124Z</time></trkpt><trkpt lat="45.0421417" lon="7.7874567"><ele>392.1666666666667</ele><time>2026-04-29T08:44:23.124Z</time></trkpt><trkpt lat="45.0420783" lon="7.787535"><ele>393.0</ele><time>2026-04-29T08:44:29.124Z</time></trkpt><trkpt lat="45.0420467" lon="7.787675"><ele>392.0</ele><time>2026-04-29T08:44:31.124Z</time></trkpt><trkpt lat="45.0420583" lon="7.7877833"><ele>391.0</ele><time>2026-04-29T08:44:32.124Z</time></trkpt><trkpt lat="45.0420717" lon="7.78791"><ele>390.0</ele><time>2026-04-29T08:44:33.124Z</time></trkpt><trkpt lat="45.04209" lon="7.78805"><ele>389.0</ele><time>2026-04-29T08:44:34.124Z</time></trkpt><trkpt lat="45.0421083" lon="7.7881983"><ele>388.0</ele><time>2026-04-29T08:44:35.124Z</time></trkpt><trkpt lat="45.0421217" lon="7.7883517"><ele>387.0</ele><time>2026-04-29T08:44:36.124Z</time></trkpt><trkpt lat="45.0421333" lon="7.7885117"><ele>386.0</ele><time>2026-04-29T08:44:37.125Z</time></trkpt><trkpt lat="45.04215" lon="7.7886733"><ele>385.0</ele><time>2026-04-29T08:44:38.124Z</time></trkpt><trkpt lat="45.042165" lon="7.7888217"><ele>384.0</ele><time>2026-04-29T08:44:39.124Z</time></trkpt><trkpt lat="45.0421833" lon="7.7889783"><ele>383.0</ele><time>2026-04-29T08:44:40.124Z</time></trkpt><trkpt lat="45.0422083" lon="7.78913"><ele>383.0</ele><time>2026-04-29T08:44:41.124Z</time></trkpt><trkpt lat="45.0422333" lon="7.78928"><ele>383.0</ele><time>2026-04-29T08:44:42.124Z</time></trkpt><trkpt lat="45.0422617" lon="7.7894317"><ele>383.0</ele><time>2026-04-29T08:44:43.124Z</time></trkpt><trkpt lat="45.0422933" lon="7.789575"><ele>383.0</ele><time>2026-04-29T08:44:44.124Z</time></trkpt><trkpt lat="45.0423283" lon="7.7897167"><ele>383.0</ele><time>2026-04-29T08:44:45.124Z</time></trkpt><trkpt lat="45.0423633" lon="7.7898567"><ele>381.5</ele><time>2026-04-29T08:44:46.124Z</time></trkpt><trkpt lat="45.0424083" lon="7.7900033"><ele>380.0</ele><time>2026-04-29T08:44:47.125Z</time></trkpt><trkpt lat="45.0424617" lon="7.790145"><ele>378.5</ele><time>2026-04-29T08:44:48.124Z</time></trkpt><trkpt lat="45.0425183" lon="7.7902833"><ele>377.0</ele><time>2026-04-29T08:44:49.125Z</time></trkpt><trkpt lat="45.0425733" lon="7.7904367"><ele>375.5</ele><time>2026-04-29T08:44:50.124Z</time></trkpt><trkpt lat="45.042615" lon="7.7906067"><ele>374.0</ele><time>2026-04-29T08:44:51.125Z</time></trkpt><trkpt lat="45.0426467" lon="7.7907783"><ele>372.5</ele><time>2026-04-29T08:44:52.124Z</time></trkpt><trkpt lat="45.0426783" lon="7.7909533"><ele>371.0</ele><time>2026-04-29T08:44:53.125Z</time></trkpt><trkpt lat="45.0427183" lon="7.79113"><ele>370.0</ele><time>2026-04-29T08:44:54.124Z</time></trkpt><trkpt lat="45.0427617" lon="7.7913"><ele>369.0</ele><time>2026-04-29T08:44:55.124Z</time></trkpt><trkpt lat="45.0427967" lon="7.791475"><ele>368.0</ele><time>2026-04-29T08:44:56.124Z</time></trkpt><trkpt lat="45.042825" lon="7.7916367"><ele>367.0</ele><time>2026-04-29T08:44:57.124Z</time></trkpt><trkpt lat="45.0428517" lon="7.7918083"><ele>366.20000000000005</ele><time>2026-04-29T08:44:58.124Z</time></trkpt><trkpt lat="45.0428833" lon="7.7919483"><ele>365.4</ele><time>2026-04-29T08:44:59.124Z</time></trkpt><trkpt lat="45.042915" lon="7.7920633"><ele>364.6</ele><time>2026-04-29T08:45:00.124Z</time></trkpt><trkpt lat="45.0429567" lon="7.7921567"><ele>363.79999999999995</ele><time>2026-04-29T08:45:01.124Z</time></trkpt><trkpt lat="45.0430633" lon="7.79223"><ele>363.0</ele><time>2026-04-29T08:45:03.124Z</time></trkpt><trkpt lat="45.043125" lon="7.79221"><ele>363.0</ele><time>2026-04-29T08:45:04.125Z</time></trkpt><trkpt lat="45.0431933" lon="7.7921567"><ele>363.0</ele><time>2026-04-29T08:45:05.124Z</time></trkpt><trkpt lat="45.043265" lon="7.7920933"><ele>363.0</ele><time>2026-04-29T08:45:06.125Z</time></trkpt><trkpt lat="45.0433267" lon="7.791985"><ele>363.0</ele><time>2026-04-29T08:45:07.124Z</time></trkpt><trkpt lat="45.04338" lon="7.791855"><ele>363.0</ele><time>2026-04-29T08:45:08.124Z</time></trkpt><trkpt lat="45.043435" lon="7.7917283"><ele>363.59999999999997</ele><time>2026-04-29T08:45:09.125Z</time></trkpt><trkpt lat="45.0434933" lon="7.7915917"><ele>364.2</ele><time>2026-04-29T08:45:10.124Z</time></trkpt><trkpt lat="45.0435617" lon="7.791465"><ele>364.8</ele><time>2026-04-29T08:45:11.125Z</time></trkpt><trkpt lat="45.0436467" lon="7.7913733"><ele>365.4</ele><time>2026-04-29T08:45:12.125Z</time></trkpt><trkpt lat="45.0437417" lon="7.7913067"><ele>366.0</ele><time>2026-04-29T08:45:13.124Z</time></trkpt><trkpt lat="45.0438317" lon="7.7912567"><ele>366.0</ele><time>2026-04-29T08:45:14.124Z</time></trkpt><trkpt lat="45.0439217" lon="7.7912083"><ele>366.0</ele><time>2026-04-29T08:45:15.124Z</time></trkpt><trkpt lat="45.0440183" lon="7.7911667"><ele>366.0</ele><time>2026-04-29T08:45:16.124Z</time></trkpt><trkpt lat="45.0441183" lon="7.7911283"><ele>366.0</ele><time>2026-04-29T08:45:17.124Z</time></trkpt><trkpt lat="45.0442233" lon="7.7910983"><ele>366.0</ele><time>2026-04-29T08:45:18.125Z</time></trkpt><trkpt lat="45.0443117" lon="7.7910767"><ele>366.4</ele><time>2026-04-29T08:45:19.125Z</time></trkpt><trkpt lat="45.04439" lon="7.7910783"><ele>366.8</ele><time>2026-04-29T08:45:20.124Z</time></trkpt><trkpt lat="45.0444567" lon="7.7910983"><ele>367.2</ele><time>2026-04-29T08:45:21.125Z</time></trkpt><trkpt lat="45.04451" lon="7.7912367"><ele>367.59999999999997</ele><time>2026-04-29T08:45:23.125Z</time></trkpt><trkpt lat="45.0444983" lon="7.7913567"><ele>368.0</ele><time>2026-04-29T08:45:24.125Z</time></trkpt><trkpt lat="45.044465" lon="7.7915283"><ele>368.0</ele><time>2026-04-29T08:45:25.125Z</time></trkpt><trkpt lat="45.0444417" lon="7.791715"><ele>368.0</ele><time>2026-04-29T08:45:26.124Z</time></trkpt><trkpt lat="45.04445" lon="7.7919067"><ele>368.0</ele><time>2026-04-29T08:45:27.124Z</time></trkpt><trkpt lat="45.0444833" lon="7.7921017"><ele>368.0</ele><time>2026-04-29T08:45:28.124Z</time></trkpt><trkpt lat="45.0445" lon="7.7922933"><ele>369.5</ele><time>2026-04-29T08:45:29.125Z</time></trkpt><trkpt lat="45.044515" lon="7.7924833"><ele>371.0</ele><time>2026-04-29T08:45:30.124Z</time></trkpt><trkpt lat="45.0445417" lon="7.79266"><ele>372.5</ele><time>2026-04-29T08:45:31.124Z</time></trkpt><trkpt lat="45.04458" lon="7.79283"><ele>374.0</ele><time>2026-04-29T08:45:32.124Z</time></trkpt><trkpt lat="45.044605" lon="7.7929917"><ele>377.5</ele><time>2026-04-29T08:45:33.124Z</time></trkpt><trkpt lat="45.044605" lon="7.7931533"><ele>381.0</ele><time>2026-04-29T08:45:34.124Z</time></trkpt><trkpt lat="45.0445717" lon="7.793315"><ele>384.5</ele><time>2026-04-29T08:45:35.124Z</time></trkpt><trkpt lat="45.0445383" lon="7.7934667"><ele>388.0</ele><time>2026-04-29T08:45:36.124Z</time></trkpt><trkpt lat="45.0445067" lon="7.7936217"><ele>390.0</ele><time>2026-04-29T08:45:37.124Z</time></trkpt><trkpt lat="45.044475" lon="7.793795"><ele>392.0</ele><time>2026-04-29T08:45:38.125Z</time></trkpt><trkpt lat="45.0444467" lon="7.7939683"><ele>394.0</ele><time>2026-04-29T08:45:39.124Z</time></trkpt><trkpt lat="45.0444317" lon="7.7941483"><ele>396.0</ele><time>2026-04-29T08:45:40.124Z</time></trkpt><trkpt lat="45.044425" lon="7.79433"><ele>397.25</ele><time>2026-04-29T08:45:41.124Z</time></trkpt><trkpt lat="45.044415" lon="7.7945117"><ele>398.5</ele><time>2026-04-29T08:45:42.124Z</time></trkpt><trkpt lat="45.0444083" lon="7.7947017"><ele>399.75</ele><time>2026-04-29T08:45:43.124Z</time></trkpt><trkpt lat="45.0443983" lon="7.794885"><ele>401.0</ele><time>2026-04-29T08:45:44.124Z</time></trkpt><trkpt lat="45.0443767" lon="7.79507"><ele>401.25</ele><time>2026-04-29T08:45:45.125Z</time></trkpt><trkpt lat="45.0443533" lon="7.7952483"><ele>401.5</ele><time>2026-04-29T08:45:46.124Z</time></trkpt><trkpt lat="45.0443233" lon="7.7954317"><ele>401.75</ele><time>2026-04-29T08:45:47.124Z</time></trkpt><trkpt lat="45.04431" lon="7.7956117"><ele>402.0</ele><time>2026-04-29T08:45:48.124Z</time></trkpt><trkpt lat="45.044305" lon="7.7957867"><ele>402.0</ele><time>2026-04-29T08:45:49.124Z</time></trkpt><trkpt lat="45.0443183" lon="7.7959667"><ele>402.0</ele><time>2026-04-29T08:45:50.124Z</time></trkpt><trkpt lat="45.0443367" lon="7.7961533"><ele>402.0</ele><time>2026-04-29T08:45:51.125Z</time></trkpt><trkpt lat="45.0443383" lon="7.796315"><ele>402.0</ele><time>2026-04-29T08:45:52.124Z</time></trkpt><trkpt lat="45.0443183" lon="7.796455"><ele>403.0</ele><time>2026-04-29T08:45:53.124Z</time></trkpt><trkpt lat="45.044275" lon="7.796545"><ele>404.0</ele><time>2026-04-29T08:45:54.125Z</time></trkpt><trkpt lat="45.0442067" lon="7.7965983"><ele>405.0</ele><time>2026-04-29T08:45:55.125Z</time></trkpt><trkpt lat="45.0441283" lon="7.79661"><ele>406.0</ele><time>2026-04-29T08:45:56.124Z</time></trkpt><trkpt lat="45.0440383" lon="7.79659"><ele>407.0</ele><time>2026-04-29T08:45:57.124Z</time></trkpt><trkpt lat="45.04395" lon="7.7965917"><ele>408.0</ele><time>2026-04-29T08:45:58.124Z</time></trkpt><trkpt lat="45.04387" lon="7.79662"><ele>408.2</ele><time>2026-04-29T08:45:59.125Z</time></trkpt><trkpt lat="45.0438167" lon="7.7966933"><ele>408.4</ele><time>2026-04-29T08:46:00.124Z</time></trkpt><trkpt lat="45.0437833" lon="7.7967933"><ele>408.59999999999997</ele><time>2026-04-29T08:46:01.125Z</time></trkpt><trkpt lat="45.0437683" lon="7.7969167"><ele>408.79999999999995</ele><time>2026-04-29T08:46:02.124Z</time></trkpt><trkpt lat="45.0437633" lon="7.797075"><ele>409.0</ele><time>2026-04-29T08:46:03.124Z</time></trkpt><trkpt lat="45.0437667" lon="7.797215"><ele>409.0</ele><time>2026-04-29T08:46:04.124Z</time></trkpt><trkpt lat="45.04379" lon="7.7973333"><ele>409.0</ele><time>2026-04-29T08:46:05.124Z</time></trkpt><trkpt lat="45.0438367" lon="7.7974233"><ele>409.0</ele><time>2026-04-29T08:46:06.125Z</time></trkpt><trkpt lat="45.0439083" lon="7.7975"><ele>409.0</ele><time>2026-04-29T08:46:07.124Z</time></trkpt><trkpt lat="45.0440067" lon="7.79756"><ele>409.0</ele><time>2026-04-29T08:46:08.124Z</time></trkpt><trkpt lat="45.0441167" lon="7.797615"><ele>408.75</ele><time>2026-04-29T08:46:09.125Z</time></trkpt><trkpt lat="45.0442433" lon="7.7976667"><ele>408.5</ele><time>2026-04-29T08:46:10.124Z</time></trkpt><trkpt lat="45.0443733" lon="7.797705"><ele>408.25</ele><time>2026-04-29T08:46:11.124Z</time></trkpt><trkpt lat="45.0445183" lon="7.797735"><ele>408.0</ele><time>2026-04-29T08:46:12.124Z</time></trkpt><trkpt lat="45.04466" lon="7.79777"><ele>408.0</ele><time>2026-04-29T08:46:13.124Z</time></trkpt><trkpt lat="45.0447967" lon="7.7978183"><ele>408.0</ele><time>2026-04-29T08:46:14.124Z</time></trkpt><trkpt lat="45.044915" lon="7.7978733"><ele>408.0</ele><time>2026-04-29T08:46:15.124Z</time></trkpt><trkpt lat="45.0450283" lon="7.7979233"><ele>408.0</ele><time>2026-04-29T08:46:16.125Z</time></trkpt><trkpt lat="45.045135" lon="7.7979733"><ele>409.0</ele><time>2026-04-29T08:46:17.124Z</time></trkpt><trkpt lat="45.045235" lon="7.7980567"><ele>410.0</ele><time>2026-04-29T08:46:18.124Z</time></trkpt><trkpt lat="45.045325" lon="7.798165"><ele>411.0</ele><time>2026-04-29T08:46:19.125Z</time></trkpt><trkpt lat="45.045405" lon="7.7983067"><ele>412.0</ele><time>2026-04-29T08:46:20.124Z</time></trkpt><trkpt lat="45.0454717" lon="7.79848"><ele>409.0</ele><time>2026-04-29T08:46:21.124Z</time></trkpt><trkpt lat="45.0455267" lon="7.798665"><ele>406.0</ele><time>2026-04-29T08:46:22.124Z</time></trkpt><trkpt lat="45.0455683" lon="7.7988483"><ele>403.0</ele><time>2026-04-29T08:46:23.124Z</time></trkpt><trkpt lat="45.0456083" lon="7.79903"><ele>400.0</ele><time>2026-04-29T08:46:24.124Z</time></trkpt><trkpt lat="45.0456533" lon="7.7992017"><ele>398.5</ele><time>2026-04-29T08:46:25.124Z</time></trkpt><trkpt lat="45.0457067" lon="7.7993583"><ele>397.0</ele><time>2026-04-29T08:46:26.124Z</time></trkpt><trkpt lat="45.0457867" lon="7.7994817"><ele>395.5</ele><time>2026-04-29T08:46:27.124Z</time></trkpt><trkpt lat="45.045885" lon="7.7995883"><ele>394.0</ele><time>2026-04-29T08:46:28.124Z</time></trkpt><trkpt lat="45.04601" lon="7.7996483"><ele>394.0</ele><time>2026-04-29T08:46:29.124Z</time></trkpt><trkpt lat="45.0461483" lon="7.7996733"><ele>394.0</ele><time>2026-04-29T08:46:30.124Z</time></trkpt><trkpt lat="45.0462933" lon="7.7996783"><ele>394.0</ele><time>2026-04-29T08:46:31.124Z</time></trkpt><trkpt lat="45.046435" lon="7.7996783"><ele>394.0</ele><time>2026-04-29T08:46:32.124Z</time></trkpt><trkpt lat="45.04657" lon="7.7996817"><ele>393.75</ele><time>2026-04-29T08:46:33.124Z</time></trkpt><trkpt lat="45.0466917" lon="7.7997017"><ele>393.5</ele><time>2026-04-29T08:46:34.124Z</time></trkpt><trkpt lat="45.0468117" lon="7.7997217"><ele>393.25</ele><time>2026-04-29T08:46:35.124Z</time></trkpt><trkpt lat="45.0469333" lon="7.7997383"><ele>393.0</ele><time>2026-04-29T08:46:36.124Z</time></trkpt><trkpt lat="45.04705" lon="7.7997917"><ele>393.0</ele><time>2026-04-29T08:46:37.124Z</time></trkpt><trkpt lat="45.0471517" lon="7.79988"><ele>393.0</ele><time>2026-04-29T08:46:38.124Z</time></trkpt><trkpt lat="45.047245" lon="7.7999833"><ele>393.0</ele><time>2026-04-29T08:46:39.124Z</time></trkpt><trkpt lat="45.04733" lon="7.8000767"><ele>393.0</ele><time>2026-04-29T08:46:40.124Z</time></trkpt><trkpt lat="45.0474333" lon="7.8001317"><ele>393.0</ele><time>2026-04-29T08:46:41.124Z</time></trkpt><trkpt lat="45.047555" lon="7.80015"><ele>393.0</ele><time>2026-04-29T08:46:42.125Z</time></trkpt><trkpt lat="45.0476867" lon="7.8001383"><ele>393.0</ele><time>2026-04-29T08:46:43.124Z</time></trkpt><trkpt lat="45.0478233" lon="7.8001267"><ele>393.0</ele><time>2026-04-29T08:46:44.124Z</time></trkpt><trkpt lat="45.04796" lon="7.8001117"><ele>393.0</ele><time>2026-04-29T08:46:45.124Z</time></trkpt><trkpt lat="45.0480817" lon="7.8000983"><ele>393.0</ele><time>2026-04-29T08:46:46.124Z</time></trkpt><trkpt lat="45.0482" lon="7.8001117"><ele>393.0</ele><time>2026-04-29T08:46:47.124Z</time></trkpt><trkpt lat="45.048315" lon="7.8001567"><ele>393.0</ele><time>2026-04-29T08:46:48.125Z</time></trkpt><trkpt lat="45.04841" lon="7.80026"><ele>388.25</ele><time>2026-04-29T08:46:49.124Z</time></trkpt><trkpt lat="45.048485" lon="7.8003983"><ele>383.5</ele><time>2026-04-29T08:46:50.124Z</time></trkpt><trkpt lat="45.0485417" lon="7.8005533"><ele>378.75</ele><time>2026-04-29T08:46:51.124Z</time></trkpt><trkpt lat="45.0485467" lon="7.8007367"><ele>374.0</ele><time>2026-04-29T08:46:52.124Z</time></trkpt><trkpt lat="45.04853" lon="7.800925"><ele>373.0</ele><time>2026-04-29T08:46:53.124Z</time></trkpt><trkpt lat="45.048505" lon="7.8011167"><ele>372.0</ele><time>2026-04-29T08:46:54.124Z</time></trkpt><trkpt lat="45.048485" lon="7.8013067"><ele>371.0</ele><time>2026-04-29T08:46:55.124Z</time></trkpt><trkpt lat="45.04848" lon="7.8015117"><ele>370.0</ele><time>2026-04-29T08:46:56.125Z</time></trkpt><trkpt lat="45.048495" lon="7.8017083"><ele>370.75</ele><time>2026-04-29T08:46:57.125Z</time></trkpt><trkpt lat="45.0485317" lon="7.8018883"><ele>371.5</ele><time>2026-04-29T08:46:58.124Z</time></trkpt><trkpt lat="45.04859" lon="7.8020783"><ele>372.25</ele><time>2026-04-29T08:46:59.124Z</time></trkpt><trkpt lat="45.0486683" lon="7.80226"><ele>373.0</ele><time>2026-04-29T08:47:00.125Z</time></trkpt><trkpt lat="45.0487483" lon="7.802435"><ele>373.0</ele><time>2026-04-29T08:47:01.124Z</time></trkpt><trkpt lat="45.0488383" lon="7.8026"><ele>373.0</ele><time>2026-04-29T08:47:02.124Z</time></trkpt><trkpt lat="45.0489283" lon="7.8027733"><ele>373.0</ele><time>2026-04-29T08:47:03.124Z</time></trkpt><trkpt lat="45.0490117" lon="7.8029483"><ele>373.0</ele><time>2026-04-29T08:47:04.124Z</time></trkpt><trkpt lat="45.0490883" lon="7.8031017"><ele>375.0</ele><time>2026-04-29T08:47:05.125Z</time></trkpt><trkpt lat="45.0491683" lon="7.8032283"><ele>377.0</ele><time>2026-04-29T08:47:06.124Z</time></trkpt><trkpt lat="45.04923" lon="7.8033333"><ele>379.0</ele><time>2026-04-29T08:47:07.124Z</time></trkpt><trkpt lat="45.049285" lon="7.80344"><ele>381.0</ele><time>2026-04-29T08:47:08.125Z</time></trkpt><trkpt lat="45.0493183" lon="7.8035567"><ele>383.0</ele><time>2026-04-29T08:47:09.124Z</time></trkpt><trkpt lat="45.0493267" lon="7.803665"><ele>383.59999999999997</ele><time>2026-04-29T08:47:10.124Z</time></trkpt><trkpt lat="45.049305" lon="7.8037833"><ele>384.2</ele><time>2026-04-29T08:47:11.125Z</time></trkpt><trkpt lat="45.04926" lon="7.8039217"><ele>384.8</ele><time>2026-04-29T08:47:12.124Z</time></trkpt><trkpt lat="45.04921" lon="7.80407"><ele>385.4</ele><time>2026-04-29T08:47:13.124Z</time></trkpt><trkpt lat="45.049155" lon="7.8042283"><ele>386.0</ele><time>2026-04-29T08:47:14.124Z</time></trkpt><trkpt lat="45.0490833" lon="7.8043933"><ele>386.5</ele><time>2026-04-29T08:47:15.124Z</time></trkpt><trkpt lat="45.049005" lon="7.8045467"><ele>387.0</ele><time>2026-04-29T08:47:16.124Z</time></trkpt><trkpt lat="45.04891" lon="7.80468"><ele>387.5</ele><time>2026-04-29T08:47:17.124Z</time></trkpt><trkpt lat="45.048805" lon="7.8048133"><ele>388.0</ele><time>2026-04-29T08:47:18.124Z</time></trkpt><trkpt lat="45.048695" lon="7.8049533"><ele>388.0</ele><time>2026-04-29T08:47:19.125Z</time></trkpt><trkpt lat="45.04859" lon="7.8050883"><ele>388.0</ele><time>2026-04-29T08:47:20.124Z</time></trkpt><trkpt lat="45.0484833" lon="7.8052233"><ele>388.0</ele><time>2026-04-29T08:47:21.124Z</time></trkpt><trkpt lat="45.048375" lon="7.8053433"><ele>388.0</ele><time>2026-04-29T08:47:22.125Z</time></trkpt><trkpt lat="45.0482583" lon="7.8054433"><ele>390.25</ele><time>2026-04-29T08:47:23.124Z</time></trkpt><trkpt lat="45.0481417" lon="7.8055167"><ele>392.5</ele><time>2026-04-29T08:47:24.124Z</time></trkpt><trkpt lat="45.0480167" lon="7.8055483"><ele>394.75</ele><time>2026-04-29T08:47:25.124Z</time></trkpt><trkpt lat="45.047885" lon="7.80557"><ele>397.0</ele><time>2026-04-29T08:47:26.124Z</time></trkpt><trkpt lat="45.04777" lon="7.80559"><ele>397.0</ele><time>2026-04-29T08:47:27.124Z</time></trkpt><trkpt lat="45.0476483" lon="7.8056167"><ele>397.0</ele><time>2026-04-29T08:47:28.124Z</time></trkpt><trkpt lat="45.0475333" lon="7.80567"><ele>397.0</ele><time>2026-04-29T08:47:29.125Z</time></trkpt><trkpt lat="45.0474283" lon="7.8057383"><ele>397.0</ele><time>2026-04-29T08:47:30.125Z</time></trkpt><trkpt lat="45.0473267" lon="7.8058217"><ele>396.0</ele><time>2026-04-29T08:47:31.124Z</time></trkpt><trkpt lat="45.0472283" lon="7.8059117"><ele>395.0</ele><time>2026-04-29T08:47:32.124Z</time></trkpt><trkpt lat="45.0471333" lon="7.8060083"><ele>394.0</ele><time>2026-04-29T08:47:33.124Z</time></trkpt><trkpt lat="45.0470467" lon="7.8061183"><ele>393.0</ele><time>2026-04-29T08:47:34.124Z</time></trkpt><trkpt lat="45.04697" lon="7.80624"><ele>395.0</ele><time>2026-04-29T08:47:35.124Z</time></trkpt><trkpt lat="45.0469017" lon="7.8063717"><ele>397.0</ele><time>2026-04-29T08:47:36.124Z</time></trkpt><trkpt lat="45.04685" lon="7.8065267"><ele>399.0</ele><time>2026-04-29T08:47:37.125Z</time></trkpt><trkpt lat="45.0468133" lon="7.8066933"><ele>401.0</ele><time>2026-04-29T08:47:38.125Z</time></trkpt><trkpt lat="45.0467933" lon="7.806865"><ele>401.4</ele><time>2026-04-29T08:47:39.124Z</time></trkpt><trkpt lat="45.046785" lon="7.8070333"><ele>401.8</ele><time>2026-04-29T08:47:40.124Z</time></trkpt><trkpt lat="45.0467833" lon="7.8071917"><ele>402.2</ele><time>2026-04-29T08:47:41.124Z</time></trkpt><trkpt lat="45.0467867" lon="7.8073367"><ele>402.59999999999997</ele><time>2026-04-29T08:47:42.124Z</time></trkpt><trkpt lat="45.0468017" lon="7.807455"><ele>403.0</ele><time>2026-04-29T08:47:43.124Z</time></trkpt><trkpt lat="45.046815" lon="7.807555"><ele>403.0</ele><time>2026-04-29T08:47:44.125Z</time></trkpt><trkpt lat="45.0468433" lon="7.8076483"><ele>403.0</ele><time>2026-04-29T08:47:45.124Z</time></trkpt><trkpt lat="45.04689" lon="7.80773"><ele>403.0</ele><time>2026-04-29T08:47:46.124Z</time></trkpt><trkpt lat="45.0469517" lon="7.807775"><ele>403.0</ele><time>2026-04-29T08:47:47.124Z</time></trkpt><trkpt lat="45.0470317" lon="7.8077933"><ele>403.0</ele><time>2026-04-29T08:47:48.124Z</time></trkpt><trkpt lat="45.047115" lon="7.8077967"><ele>403.0</ele><time>2026-04-29T08:47:49.124Z</time></trkpt><trkpt lat="45.0471817" lon="7.8077967"><ele>403.0</ele><time>2026-04-29T08:47:50.124Z</time></trkpt><trkpt lat="45.047275" lon="7.8078117"><ele>403.1666666666667</ele><time>2026-04-29T08:49:51.125Z</time></trkpt><trkpt lat="45.047395" lon="7.8077933"><ele>403.33333333333337</ele><time>2026-04-29T08:49:53.124Z</time></trkpt><trkpt lat="45.0474617" lon="7.8077833"><ele>403.5</ele><time>2026-04-29T08:49:54.124Z</time></trkpt><trkpt lat="45.0475367" lon="7.8077733"><ele>403.66666666666663</ele><time>2026-04-29T08:49:55.124Z</time></trkpt><trkpt lat="45.0476033" lon="7.8077617"><ele>403.8333333333333</ele><time>2026-04-29T08:49:56.124Z</time></trkpt><trkpt lat="45.0476667" lon="7.807745"><ele>404.0</ele><time>2026-04-29T08:49:57.124Z</time></trkpt><trkpt lat="45.047755" lon="7.8077633"><ele>405.79999999999995</ele><time>2026-04-29T08:49:59.124Z</time></trkpt><trkpt lat="45.0477567" lon="7.8078983"><ele>407.59999999999997</ele><time>2026-04-29T08:50:02.124Z</time></trkpt><trkpt lat="45.0477683" lon="7.808055"><ele>409.4</ele><time>2026-04-29T08:50:04.124Z</time></trkpt><trkpt lat="45.04779" lon="7.8082317"><ele>411.2</ele><time>2026-04-29T08:50:06.124Z</time></trkpt><trkpt lat="45.047805" lon="7.80832"><ele>413.0</ele><time>2026-04-29T08:50:07.124Z</time></trkpt><trkpt lat="45.0478233" lon="7.8084117"><ele>412.3333333333333</ele><time>2026-04-29T08:50:08.124Z</time></trkpt><trkpt lat="45.0478417" lon="7.8085067"><ele>411.66666666666663</ele><time>2026-04-29T08:50:09.124Z</time></trkpt><trkpt lat="45.04786" lon="7.8086033"><ele>411.0</ele><time>2026-04-29T08:50:10.124Z</time></trkpt><trkpt lat="45.0478783" lon="7.8087"><ele>410.33333333333337</ele><time>2026-04-29T08:50:11.125Z</time></trkpt><trkpt lat="45.0478967" lon="7.8087917"><ele>409.6666666666667</ele><time>2026-04-29T08:50:12.124Z</time></trkpt><trkpt lat="45.0479133" lon="7.8088783"><ele>409.0</ele><time>2026-04-29T08:50:13.124Z</time></trkpt><trkpt lat="45.0479383" lon="7.809045"><ele>409.0</ele><time>2026-04-29T08:50:15.124Z</time></trkpt><trkpt lat="45.0479583" lon="7.8091917"><ele>409.0</ele><time>2026-04-29T08:50:17.124Z</time></trkpt><trkpt lat="45.047975" lon="7.8093433"><ele>409.0</ele><time>2026-04-29T08:50:19.124Z</time></trkpt><trkpt lat="45.0479933" lon="7.8094983"><ele>409.0</ele><time>2026-04-29T08:50:21.124Z</time></trkpt><trkpt lat="45.0480117" lon="7.8096467"><ele>409.0</ele><time>2026-04-29T08:50:23.124Z</time></trkpt><trkpt lat="45.0480283" lon="7.8097833"><ele>408.00000000000006</ele><time>2026-04-29T08:50:25.124Z</time></trkpt><trkpt lat="45.0480417" lon="7.8099017"><ele>407.0</ele><time>2026-04-29T08:50:27.124Z</time></trkpt><trkpt lat="45.048055" lon="7.8100267"><ele>406.0</ele><time>2026-04-29T08:50:29.124Z</time></trkpt><trkpt lat="45.048045" lon="7.8101517"><ele>405.0</ele><time>2026-04-29T08:50:31.124Z</time></trkpt><trkpt lat="45.048015" lon="7.8102817"><ele>404.00000000000006</ele><time>2026-04-29T08:50:33.124Z</time></trkpt><trkpt lat="45.0479967" lon="7.8104033"><ele>403.0</ele><time>2026-04-29T08:50:35.125Z</time></trkpt><trkpt lat="45.0479783" lon="7.8104917"><ele>402.83333333333337</ele><time>2026-04-29T08:50:55.124Z</time></trkpt><trkpt lat="45.048" lon="7.8106"><ele>402.6666666666667</ele><time>2026-04-29T08:50:57.124Z</time></trkpt><trkpt lat="45.0480517" lon="7.8106583"><ele>402.5</ele><time>2026-04-29T08:50:59.124Z</time></trkpt><trkpt lat="45.0481267" lon="7.810705"><ele>402.33333333333337</ele><time>2026-04-29T08:51:01.124Z</time></trkpt><trkpt lat="45.0482033" lon="7.8107267"><ele>402.1666666666667</ele><time>2026-04-29T08:51:03.124Z</time></trkpt><trkpt lat="45.0482883" lon="7.8107417"><ele>402.0</ele><time>2026-04-29T08:51:05.124Z</time></trkpt><trkpt lat="45.04838" lon="7.8107467"><ele>402.0</ele><time>2026-04-29T08:51:07.124Z</time></trkpt><trkpt lat="45.0484883" lon="7.810775"><ele>402.0</ele><time>2026-04-29T08:51:09.125Z</time></trkpt><trkpt lat="45.0486017" lon="7.8107933"><ele>402.0</ele><time>2026-04-29T08:51:11.124Z</time></trkpt><trkpt lat="45.0487117" lon="7.8108"><ele>402.0</ele><time>2026-04-29T08:51:13.124Z</time></trkpt><trkpt lat="45.0488033" lon="7.8108117"><ele>402.0</ele><time>2026-04-29T08:51:15.124Z</time></trkpt><trkpt lat="45.0487167" lon="7.81076"><ele>402.0</ele><time>2026-04-29T08:51:43.124Z</time></trkpt><trkpt lat="45.0486217" lon="7.8107383"><ele>402.0</ele><time>2026-04-29T08:51:45.124Z</time></trkpt><trkpt lat="45.048495" lon="7.81072"><ele>402.0</ele><time>2026-04-29T08:51:47.124Z</time></trkpt><trkpt lat="45.0483783" lon="7.8107017"><ele>402.0</ele><time>2026-04-29T08:51:49.125Z</time></trkpt><trkpt lat="45.0482667" lon="7.8106867"><ele>400.6666666666667</ele><time>2026-04-29T08:51:51.125Z</time></trkpt><trkpt lat="45.0481783" lon="7.81067"><ele>399.33333333333337</ele><time>2026-04-29T08:51:53.124Z</time></trkpt><trkpt lat="45.0480933" lon="7.8106517"><ele>398.0</ele><time>2026-04-29T08:51:56.124Z</time></trkpt><trkpt lat="45.048025" lon="7.8107333"><ele>396.6666666666667</ele><time>2026-04-29T08:51:59.124Z</time></trkpt><trkpt lat="45.0479867" lon="7.8108317"><ele>395.33333333333337</ele><time>2026-04-29T08:52:01.125Z</time></trkpt><trkpt lat="45.0479633" lon="7.81095"><ele>394.0</ele><time>2026-04-29T08:52:03.124Z</time></trkpt><trkpt lat="45.0479417" lon="7.81105"><ele>393.00000000000006</ele><time>2026-04-29T08:52:05.124Z</time></trkpt><trkpt lat="45.0479217" lon="7.8111517"><ele>392.0</ele><time>2026-04-29T08:52:07.124Z</time></trkpt><trkpt lat="45.0478933" lon="7.81125"><ele>391.0</ele><time>2026-04-29T08:52:09.124Z</time></trkpt><trkpt lat="45.0478633" lon="7.8113767"><ele>390.0</ele><time>2026-04-29T08:52:12.124Z</time></trkpt><trkpt lat="45.0478367" lon="7.81148"><ele>389.00000000000006</ele><time>2026-04-29T08:52:15.124Z</time></trkpt><trkpt lat="45.047805" lon="7.8115633"><ele>388.0</ele><time>2026-04-29T08:52:18.125Z</time></trkpt><trkpt lat="45.04777" lon="7.811655"><ele>388.00000000000006</ele><time>2026-04-29T08:52:21.124Z</time></trkpt><trkpt lat="45.0477383" lon="7.8117517"><ele>388.0</ele><time>2026-04-29T08:52:24.124Z</time></trkpt><trkpt lat="45.0477267" lon="7.8118617"><ele>388.0</ele><time>2026-04-29T08:52:28.124Z</time></trkpt><trkpt lat="45.0477133" lon="7.8119733"><ele>388.0</ele><time>2026-04-29T08:52:31.124Z</time></trkpt><trkpt lat="45.047715" lon="7.812075"><ele>388.00000000000006</ele><time>2026-04-29T08:52:34.125Z</time></trkpt><trkpt lat="45.0477217" lon="7.8121767"><ele>388.0</ele><time>2026-04-29T08:52:38.124Z</time></trkpt><trkpt lat="45.04773" lon="7.81229"><ele>387.1428571428571</ele><time>2026-04-29T08:52:42.124Z</time></trkpt><trkpt lat="45.0477217" lon="7.8123867"><ele>386.28571428571433</ele><time>2026-04-29T08:52:46.124Z</time></trkpt><trkpt lat="45.0477" lon="7.8124767"><ele>385.42857142857144</ele><time>2026-04-29T08:52:51.124Z</time></trkpt><trkpt lat="45.047665" lon="7.8125683"><ele>384.57142857142856</ele><time>2026-04-29T08:52:56.125Z</time></trkpt><trkpt lat="45.0476283" lon="7.8126433"><ele>383.71428571428567</ele><time>2026-04-29T08:53:10.124Z</time></trkpt><trkpt lat="45.04758" lon="7.8127117"><ele>382.8571428571429</ele><time>2026-04-29T08:53:14.124Z</time></trkpt><trkpt lat="45.0475317" lon="7.8127883"><ele>382.0</ele><time>2026-04-29T08:53:19.124Z</time></trkpt><trkpt lat="45.04748" lon="7.8128683"><ele>379.16666666666663</ele><time>2026-04-29T08:53:30.125Z</time></trkpt><trkpt lat="45.0474433" lon="7.8129517"><ele>376.3333333333333</ele><time>2026-04-29T08:53:33.124Z</time></trkpt><trkpt lat="45.047415" lon="7.8130467"><ele>373.5</ele><time>2026-04-29T08:53:38.124Z</time></trkpt><trkpt lat="45.0474" lon="7.8131367"><ele>370.6666666666667</ele><time>2026-04-29T08:53:42.124Z</time></trkpt><trkpt lat="45.047395" lon="7.8132817"><ele>367.83333333333337</ele><time>2026-04-29T08:53:55.124Z</time></trkpt><trkpt lat="45.0473833" lon="7.813375"><ele>365.0</ele><time>2026-04-29T08:54:01.124Z</time></trkpt><trkpt lat="45.0473633" lon="7.813475"><ele>364.6666666666667</ele><time>2026-04-29T08:54:07.124Z</time></trkpt><trkpt lat="45.0473383" lon="7.8136633"><ele>364.33333333333337</ele><time>2026-04-29T08:54:22.124Z</time></trkpt><trkpt lat="45.0473133" lon="7.8137683"><ele>364.0</ele><time>2026-04-29T08:54:29.124Z</time></trkpt><trkpt lat="45.0472733" lon="7.8138517"><ele>363.6666666666667</ele><time>2026-04-29T08:54:37.124Z</time></trkpt><trkpt lat="45.0472367" lon="7.8139283"><ele>363.3333333333333</ele><time>2026-04-29T08:54:41.124Z</time></trkpt><trkpt lat="45.0471967" lon="7.814025"><ele>363.0</ele><time>2026-04-29T08:54:45.124Z</time></trkpt><trkpt lat="45.0471817" lon="7.8141267"><ele>363.0</ele><time>2026-04-29T08:54:48.124Z</time></trkpt><trkpt lat="45.0471633" lon="7.81423"><ele>363.0</ele><time>2026-04-29T08:54:51.125Z</time></trkpt><trkpt lat="45.047145" lon="7.8143367"><ele>363.0</ele><time>2026-04-29T08:54:54.125Z</time></trkpt><trkpt lat="45.0471267" lon="7.814425"><ele>363.0</ele><time>2026-04-29T08:54:56.124Z</time></trkpt><trkpt lat="45.047095" lon="7.814545"><ele>363.0</ele><time>2026-04-29T08:54:59.125Z</time></trkpt><trkpt lat="45.0470683" lon="7.8146433"><ele>363.0</ele><time>2026-04-29T08:55:02.124Z</time></trkpt><trkpt lat="45.0470567" lon="7.81475"><ele>362.0</ele><time>2026-04-29T08:55:05.124Z</time></trkpt><trkpt lat="45.0470467" lon="7.81488"><ele>361.0</ele><time>2026-04-29T08:55:08.124Z</time></trkpt><trkpt lat="45.0470267" lon="7.8149967"><ele>360.0</ele><time>2026-04-29T08:55:15.124Z</time></trkpt><trkpt lat="45.0470083" lon="7.8151"><ele>359.0</ele><time>2026-04-29T08:55:20.124Z</time></trkpt><trkpt lat="45.0469867" lon="7.8152017"><ele>358.0</ele><time>2026-04-29T08:55:27.124Z</time></trkpt><trkpt lat="45.0469783" lon="7.8153017"><ele>357.0</ele><time>2026-04-29T08:55:32.124Z</time></trkpt><trkpt lat="45.0469633" lon="7.8155217"><ele>356.5</ele><time>2026-04-29T08:55:56.124Z</time></trkpt><trkpt lat="45.0468983" lon="7.81552"><ele>356.0</ele><time>2026-04-29T08:56:28.124Z</time></trkpt><trkpt lat="45.0468417" lon="7.8154783"><ele>355.5</ele><time>2026-04-29T08:56:32.124Z</time></trkpt><trkpt lat="45.046775" lon="7.8154483"><ele>355.0</ele><time>2026-04-29T08:56:36.124Z</time></trkpt><trkpt lat="45.0466917" lon="7.8154333"><ele>354.5</ele><time>2026-04-29T08:56:39.124Z</time></trkpt><trkpt lat="45.0465667" lon="7.8154067"><ele>354.0</ele><time>2026-04-29T08:56:46.124Z</time></trkpt><trkpt lat="45.0464917" lon="7.8153917"><ele>354.0</ele><time>2026-04-29T08:56:48.124Z</time></trkpt><trkpt lat="45.0464067" lon="7.8154"><ele>354.0</ele><time>2026-04-29T08:56:51.124Z</time></trkpt><trkpt lat="45.0463183" lon="7.8154633"><ele>354.0</ele><time>2026-04-29T08:56:58.124Z</time></trkpt><trkpt lat="45.0462567" lon="7.81555"><ele>354.0</ele><time>2026-04-29T08:57:01.124Z</time></trkpt><trkpt lat="45.0461983" lon="7.81565"><ele>354.0</ele><time>2026-04-29T08:57:04.124Z</time></trkpt><trkpt lat="45.0461583" lon="7.8157383"><ele>354.0</ele><time>2026-04-29T08:57:07.124Z</time></trkpt><trkpt lat="45.046105" lon="7.8158083"><ele>354.0</ele><time>2026-04-29T08:57:11.124Z</time></trkpt><trkpt lat="45.0460467" lon="7.8158633"><ele>354.0</ele><time>2026-04-29T08:57:21.124Z</time></trkpt><trkpt lat="45.0459783" lon="7.8158717"><ele>354.0</ele><time>2026-04-29T08:57:24.124Z</time></trkpt><trkpt lat="45.0459117" lon="7.815905"><ele>354.0</ele><time>2026-04-29T08:57:27.124Z</time></trkpt><trkpt lat="45.0458333" lon="7.8159483"><ele>354.0</ele><time>2026-04-29T08:57:30.124Z</time></trkpt><trkpt lat="45.0457617" lon="7.815995"><ele>354.0</ele><time>2026-04-29T08:57:32.125Z</time></trkpt><trkpt lat="45.0456883" lon="7.8160467"><ele>353.3333333333333</ele><time>2026-04-29T08:57:34.124Z</time></trkpt><trkpt lat="45.045615" lon="7.8160867"><ele>352.6666666666667</ele><time>2026-04-29T08:57:36.125Z</time></trkpt><trkpt lat="45.0455483" lon="7.8161217"><ele>352.0</ele><time>2026-04-29T08:57:38.124Z</time></trkpt><trkpt lat="45.04547" lon="7.816165"><ele>351.33333333333337</ele><time>2026-04-29T08:57:40.124Z</time></trkpt><trkpt lat="45.0453933" lon="7.8162017"><ele>350.6666666666667</ele><time>2026-04-29T08:57:42.124Z</time></trkpt><trkpt lat="45.0453033" lon="7.8162417"><ele>350.0</ele><time>2026-04-29T08:57:44.124Z</time></trkpt><trkpt lat="45.0452283" lon="7.81628"><ele>350.0</ele><time>2026-04-29T08:57:46.124Z</time></trkpt><trkpt lat="45.0451533" lon="7.8163183"><ele>350.0</ele><time>2026-04-29T08:57:48.124Z</time></trkpt><trkpt lat="45.045085" lon="7.8163567"><ele>350.0</ele><time>2026-04-29T08:57:50.124Z</time></trkpt><trkpt lat="45.0450167" lon="7.8164183"><ele>350.0</ele><time>2026-04-29T08:57:53.124Z</time></trkpt><trkpt lat="45.0449267" lon="7.816465"><ele>350.0</ele><time>2026-04-29T08:58:01.124Z</time></trkpt><trkpt lat="45.0448667" lon="7.8165117"><ele>350.0</ele><time>2026-04-29T08:58:04.124Z</time></trkpt><trkpt lat="45.0448067" lon="7.8165567"><ele>351.2</ele><time>2026-04-29T08:58:07.124Z</time></trkpt><trkpt lat="45.04469" lon="7.8166533"><ele>352.4</ele><time>2026-04-29T08:58:33.124Z</time></trkpt><trkpt lat="45.0446367" lon="7.816705"><ele>353.6</ele><time>2026-04-29T08:58:39.124Z</time></trkpt><trkpt lat="45.044545" lon="7.8167333"><ele>354.8</ele><time>2026-04-29T08:58:55.124Z</time></trkpt><trkpt lat="45.04442" lon="7.8167583"><ele>356.0</ele><time>2026-04-29T08:59:07.124Z</time></trkpt><trkpt lat="45.0443317" lon="7.81678"><ele>355.99999999999994</ele><time>2026-04-29T08:59:12.124Z</time></trkpt><trkpt lat="45.0442583" lon="7.816795"><ele>356.0</ele><time>2026-04-29T08:59:16.125Z</time></trkpt><trkpt lat="45.0441883" lon="7.81681"><ele>356.0</ele><time>2026-04-29T08:59:20.124Z</time></trkpt><trkpt lat="45.0441283" lon="7.816845"><ele>356.0</ele><time>2026-04-29T08:59:23.124Z</time></trkpt><trkpt lat="45.044085" lon="7.816945"><ele>356.0</ele><time>2026-04-29T08:59:26.124Z</time></trkpt><trkpt lat="45.0440567" lon="7.817035"><ele>355.99999999999994</ele><time>2026-04-29T08:59:28.124Z</time></trkpt><trkpt lat="45.0440183" lon="7.8171167"><ele>356.0</ele><time>2026-04-29T08:59:30.124Z</time></trkpt><trkpt lat="45.04397" lon="7.81719"><ele>356.5</ele><time>2026-04-29T08:59:32.125Z</time></trkpt><trkpt lat="45.0439133" lon="7.81726"><ele>357.0</ele><time>2026-04-29T08:59:34.124Z</time></trkpt><trkpt lat="45.0438583" lon="7.8173233"><ele>357.5</ele><time>2026-04-29T08:59:36.124Z</time></trkpt><trkpt lat="45.0438083" lon="7.8174"><ele>358.0</ele><time>2026-04-29T08:59:38.124Z</time></trkpt><trkpt lat="45.04375" lon="7.817475"><ele>358.5</ele><time>2026-04-29T08:59:40.124Z</time></trkpt><trkpt lat="45.0436917" lon="7.81756"><ele>359.0</ele><time>2026-04-29T08:59:42.124Z</time></trkpt><trkpt lat="45.04363" lon="7.8176467"><ele>357.6666666666667</ele><time>2026-04-29T08:59:44.124Z</time></trkpt><trkpt lat="45.043575" lon="7.81773"><ele>356.33333333333337</ele><time>2026-04-29T08:59:46.124Z</time></trkpt><trkpt lat="45.0435267" lon="7.81783"><ele>355.0</ele><time>2026-04-29T08:59:48.125Z</time></trkpt><trkpt lat="45.0434767" lon="7.81791"><ele>353.6666666666667</ele><time>2026-04-29T08:59:50.124Z</time></trkpt><trkpt lat="45.0434083" lon="7.8179883"><ele>352.3333333333333</ele><time>2026-04-29T08:59:53.125Z</time></trkpt><trkpt lat="45.0433517" lon="7.818035"><ele>351.0</ele><time>2026-04-29T08:59:57.124Z</time></trkpt><trkpt lat="45.0432983" lon="7.8180917"><ele>352.8333333333333</ele><time>2026-04-29T09:00:00.124Z</time></trkpt><trkpt lat="45.0432383" lon="7.8181333"><ele>354.6666666666667</ele><time>2026-04-29T09:00:03.124Z</time></trkpt><trkpt lat="45.0431333" lon="7.8181767"><ele>356.5</ele><time>2026-04-29T09:00:33.124Z</time></trkpt><trkpt lat="45.0430483" lon="7.818235"><ele>358.33333333333337</ele><time>2026-04-29T09:04:47.124Z</time></trkpt><trkpt lat="45.0429967" lon="7.818305"><ele>360.1666666666667</ele><time>2026-04-29T09:04:58.123Z</time></trkpt><trkpt lat="45.0429067" lon="7.8183667"><ele>362.0</ele><time>2026-04-29T09:05:11.123Z</time></trkpt><trkpt lat="45.0428433" lon="7.8184483"><ele>362.33333333333337</ele><time>2026-04-29T09:05:31.123Z</time></trkpt><trkpt lat="45.0428067" lon="7.8185233"><ele>362.6666666666667</ele><time>2026-04-29T09:05:35.123Z</time></trkpt><trkpt lat="45.0427683" lon="7.818665"><ele>363.0</ele><time>2026-04-29T09:06:45.123Z</time></trkpt><trkpt lat="45.04268" lon="7.8187717"><ele>363.3333333333333</ele><time>2026-04-29T09:07:19.123Z</time></trkpt><trkpt lat="45.04262" lon="7.8188117"><ele>363.66666666666663</ele><time>2026-04-29T09:08:23.124Z</time></trkpt><trkpt lat="45.0425483" lon="7.8188367"><ele>364.0</ele><time>2026-04-29T09:08:26.123Z</time></trkpt><trkpt lat="45.0424317" lon="7.8189133"><ele>364.0</ele><time>2026-04-29T09:08:36.123Z</time></trkpt><trkpt lat="45.0423883" lon="7.81898"><ele>364.0</ele><time>2026-04-29T09:08:40.123Z</time></trkpt><trkpt lat="45.0423867" lon="7.81908"><ele>364.0</ele><time>2026-04-29T09:08:44.123Z</time></trkpt><trkpt lat="45.0424017" lon="7.8192367"><ele>364.0</ele><time>2026-04-29T09:08:57.123Z</time></trkpt><trkpt lat="45.0423833" lon="7.8194667"><ele>364.0</ele><time>2026-04-29T09:09:13.123Z</time></trkpt><trkpt lat="45.042315" lon="7.8195"><ele>362.0</ele><time>2026-04-29T09:09:19.123Z</time></trkpt><trkpt lat="45.0422183" lon="7.8195"><ele>360.0</ele><time>2026-04-29T09:09:32.123Z</time></trkpt><trkpt lat="45.0421217" lon="7.8195217"><ele>358.0</ele><time>2026-04-29T09:09:41.123Z</time></trkpt><trkpt lat="45.0420517" lon="7.819545"><ele>356.0</ele><time>2026-04-29T09:09:45.123Z</time></trkpt><trkpt lat="45.0419867" lon="7.81957"><ele>354.0</ele><time>2026-04-29T09:09:48.123Z</time></trkpt><trkpt lat="45.0419183" lon="7.8196233"><ele>352.0</ele><time>2026-04-29T09:09:51.123Z</time></trkpt><trkpt lat="45.04185" lon="7.8196667"><ele>352.0</ele><time>2026-04-29T09:09:54.123Z</time></trkpt><trkpt lat="45.0417717" lon="7.819705"><ele>352.0</ele><time>2026-04-29T09:10:13.124Z</time></trkpt><trkpt lat="45.0417" lon="7.81977"><ele>352.0</ele><time>2026-04-29T09:10:17.124Z</time></trkpt><trkpt lat="45.04162" lon="7.8198333"><ele>352.0</ele><time>2026-04-29T09:10:20.123Z</time></trkpt><trkpt lat="45.0415583" lon="7.8198717"><ele>352.0</ele><time>2026-04-29T09:10:23.123Z</time></trkpt><trkpt lat="45.0415067" lon="7.819925"><ele>352.0</ele><time>2026-04-29T09:10:26.123Z</time></trkpt><trkpt lat="45.0414267" lon="7.8199833"><ele>352.2857142857143</ele><time>2026-04-29T09:10:31.124Z</time></trkpt><trkpt lat="45.0413767" lon="7.820045"><ele>352.57142857142856</ele><time>2026-04-29T09:10:33.123Z</time></trkpt><trkpt lat="45.0413217" lon="7.8201033"><ele>352.8571428571429</ele><time>2026-04-29T09:10:35.123Z</time></trkpt><trkpt lat="45.0412717" lon="7.8201583"><ele>353.1428571428571</ele><time>2026-04-29T09:10:37.123Z</time></trkpt><trkpt lat="45.0411917" lon="7.8202333"><ele>353.4285714285714</ele><time>2026-04-29T09:10:40.123Z</time></trkpt><trkpt lat="45.041135" lon="7.8202783"><ele>353.7142857142857</ele><time>2026-04-29T09:10:42.123Z</time></trkpt><trkpt lat="45.04107" lon="7.8203267"><ele>354.0</ele><time>2026-04-29T09:10:45.123Z</time></trkpt><trkpt lat="45.0410067" lon="7.820375"><ele>349.0</ele><time>2026-04-29T09:10:48.123Z</time></trkpt><trkpt lat="45.040935" lon="7.820405"><ele>349.0</ele><time>2026-04-29T09:10:51.123Z</time></trkpt></trkseg></trk></gpx>